[[{"header":{"parameterUnit":"m.s-1","parameterCategory":1,"la1":31.0,"la2":29.5877,"lo1":-88.7671,"lo2":-86.6584,"dy":0.0162,"dx":0.0185,"nx":115,"ny":88,"refTime":"2023-03-01T18:00:00:Z","depth":0,"parameterNumber":2,"parameterNumberName":"U-component_of_WINDS"},"data":[0.0,0.0,0.0,0.0,0.0,0.0,0.0,0.0,0.0,0.0,0.0,0.0,0.0,0.0,0.0,0.0,0.0,0.0,0.0,0.0,0.0,0.0,0.0,0.0,0.0,0.0,0.0,0.0,0.0,0.0,0.0,0.0,0.0,0.0,0.0,0.0,0.0,0.0,0.0,0.0,0.0,0.0,0.0,0.0,0.0,0.0,0.0,0.0,0.0,0.0,0.0,0.0,0.0,0.0,0.0,0.0,0.0,0.0,0.0,0.0,0.0,0.0,0.0,0.0,0.0,0.0,0.0,0.0,0.0,0.0,0.0,0.0,0.0,0.0,0.0,0.0,0.0,0.0,0.0,0.0,0.0,0.0,0.0,0.0,0.0,0.0,0.0,0.0,0.0,0.0,0.0,0.0,0.0,0.0,0.0,0.0,0.0,0.0,0.0,0.0,0.0,0.0,0.0,0.0,0.0,0.0,0.0,0.0,0.0,0.0,0.0,0.0,0.0,0.0,0.0,0.0,0.0,0.0,0.0,0.0,0.0,0.0,0.0,0.0,0.0,0.0,0.0,0.0,0.0,0.0,0.0,0.0,0.0,0.0,0.0,0.0,0.0,0.0,0.0,0.0,0.0,0.0,0.0,0.0,0.0,0.0,0.0,0.0,0.0,0.0,0.0,0.0,0.0,0.0,0.0,0.0,0.0,0.0,0.0,0.0,0.0,0.0,0.0,0.0,0.0,0.0,0.0,0.0,0.0,0.0,0.0,0.0,0.0,0.0,0.0,0.0,0.0,0.0,0.0,0.0,0.0,0.0,0.0,0.0,0.0,0.0,0.0,0.0,0.0,0.0,0.0,0.0,0.0,0.0,0.0,0.0,0.0,0.0,0.0,0.0,0.0,0.0,0.0,0.0,0.0,0.0,0.0,0.0,0.0,0.0,0.0,0.0,0.0,0.0,0.0,0.0,0.0,0.0,0.0,0.0,0.0,0.0,0.0,0.0,0.0,0.0,0.0,0.0,0.0,0.0,0.0,0.0,0.0,0.0,0.0,0.0,0.0,0.0,0.0,0.0,0.0,0.0,0.0,0.0,0.0,0.0,0.0,0.0,0.0,0.0,0.0,0.0,0.0,0.0,0.0,0.0,0.0,0.0,0.0,0.0,0.0,0.0,0.0,0.0,0.0,0.0,0.0,0.0,0.0,0.0,0.0,0.0,0.0,0.0,0.0,0.0,0.0,0.0,0.0,0.0,0.0,0.0,0.0,0.0,0.0,0.0,0.0,0.0,0.0,0.0,0.0,0.0,0.0,0.0,0.0,0.0,0.0,0.0,0.0,0.0,0.0,0.0,0.0,0.0,0.0,0.0,0.0,0.0,0.0,0.0,0.0,0.0,0.0,0.0,0.0,0.0,0.0,0.0,0.0,0.0,0.0,0.0,0.0,0.0,0.0,0.0,0.0,0.0,0.0,0.0,0.0,0.0,0.0,0.0,0.0,0.0,0.0,0.0,0.0,0.0,0.0,0.0,0.0,0.0,0.0,0.0,0.0,0.0,0.0,0.0,0.0,0.0,0.0,0.0,0.0,0.0,0.0,0.0,0.0,0.0,0.0,0.0,0.0,0.0,0.0,0.0,0.0,0.0,0.0,0.0,0.0,0.0,0.0,0.0,0.0,0.0,0.0,0.0,0.0,0.0,0.0,0.0,0.0,0.0,0.0,0.0,0.0,0.0,0.0,0.0,0.0,0.0,0.0,0.0,0.0,0.0,0.0,0.0,0.0,0.0,0.0,0.0,0.0,0.0,0.0,0.0,0.0,0.0,0.0,0.0,0.0,0.0,0.0,0.0,0.0,0.0,0.0,0.0,0.0,0.0,0.0,0.0,0.0,0.0,0.0,0.0,0.0,0.0,0.0,0.0,0.0,0.0,0.0,0.0,0.0,0.0,0.0,0.0,0.0,0.0,0.0,0.0,0.0,0.0,0.0,0.0,0.0,0.0,0.0,0.0,0.0,0.0,0.0,0.0,0.0,0.0,0.0,0.0,0.0,0.0,0.0,0.0,0.0,0.0,0.0,0.0,0.0,0.0,0.0,0.0,0.0,0.0,0.0,0.0,0.0,0.0,0.0,0.0,0.0,0.0,0.0,0.0,0.0,0.0,0.0,0.0,0.0,0.0,0.0,0.0,0.0,0.0,0.0,0.0,0.0,0.0,0.0,0.0,0.0,0.0,0.0,0.0,0.0,0.0,0.0,0.0,0.0,0.0,0.0,0.0,0.0,0.0,0.0,0.0,0.0,0.0,0.0,0.0,0.0,0.0,0.0,0.0,0.0,0.0,0.0,0.0,0.0,0.0,0.0,0.0,0.0,0.0,0.0,0.0,0.0,0.0,0.0,0.0,0.0,0.0,0.0,0.0,0.0,0.0,0.0,0.0,0.0,0.0,0.0,0.0,0.0,0.0,0.0,0.0,0.0,0.0,0.0,0.0,0.0,0.0,0.0,0.0,0.0,0.0,0.0,0.0,0.0,0.0,0.0,0.0,0.0,0.0,0.0,0.0,0.0,0.0,0.0,0.0,0.0,0.0,0.0,0.0,0.0,0.0,0.0,0.0,0.0,0.0,0.0,0.0,0.0,0.0,0.0,0.0,0.0,0.0,0.0,0.0,0.0,0.0,0.0,0.0,0.0,0.0,0.0,0.0,0.0,0.0,0.0,0.0,0.0,0.0,0.0,0.0,0.0,0.0,0.0,0.0,0.0,0.0,0.0,0.0,0.0,0.0,0.0,0.0,0.0,0.0,0.0,0.0,0.0,0.0,0.0,0.0,0.0,0.0,0.0,0.0,0.0,0.0,0.0,0.0,0.0,0.0,0.0,0.0,0.0,0.0,0.0,0.0,0.0,0.0,0.0,0.0,0.0,0.0,0.0,0.0,0.0,0.0,0.0,0.0,0.0,0.0,0.0,0.0,0.0,0.0,0.0,0.0,0.0,0.0,0.0,0.0,0.0,0.0,0.0,0.0,0.0,0.0,0.0,0.0,0.0,0.0,0.0,0.0,0.0,0.0,0.0,0.0,0.0,0.0,0.0,0.0,0.0,0.0,0.0,0.0,0.0,0.0,0.0,0.0,0.0,0.0,0.0,0.0,0.0,0.0,0.0,0.0,0.0,0.0,0.0,0.0,0.0,0.0,0.0,0.0,0.0,0.0,0.0,0.0,0.0,0.0,0.0,0.0,0.0,0.0,0.0,0.0,0.0,0.0,0.0,0.0,0.0,0.0,0.0,0.0,0.0,0.0,0.0,0.0,0.0,0.0,0.0,0.0,0.0,0.0,0.0,0.0,0.0,0.0,0.0,0.0,0.0,0.0,0.0,0.0,0.0,0.0,0.0,0.0,0.0,0.0,0.0,0.0,0.0,0.0,0.0,0.0,0.0,0.0,0.0,0.0,0.0,0.0,0.0,0.0,0.0,0.0,0.0,0.0,0.0,0.0,0.0,0.0,0.0,0.0,0.0,0.0,0.0,0.0,0.0,0.0,0.0,0.0,0.0,0.0,0.0,0.0,0.0,0.0,0.0,0.0,0.0,0.0,0.0,0.0,0.0,0.0,0.0,0.0,0.0,0.0,0.0,0.0,0.0,0.0,0.0,0.0,0.0,0.0,0.0,0.0,0.0,0.0,0.0,0.0,0.0,0.0,0.0,0.0,0.0,0.0,0.0,0.0,0.0,0.0,0.0,0.0,0.0,0.0,0.0,0.0,0.0,0.0,0.0,0.0,0.0,0.0,0.0,0.0,0.0,0.0,0.0,0.0,0.0,0.0,0.0,0.0,0.0,0.0,0.0,0.0,0.0,0.0,0.0,0.0,0.0,0.0,0.0,0.0,0.0,0.0,0.0,0.0,0.0,0.0,0.0,0.0,0.0,0.0,0.0,0.0,0.0,0.0,0.0,0.0,0.0,0.0,0.0,0.0,0.0,0.0,0.0,0.0,0.0,0.0,0.0,0.0,0.0,0.0,0.0,0.0,0.0,0.0,0.0,0.0,0.0,0.0,0.0,0.0,0.0,0.0,0.0,0.0,0.0,0.0,0.0,0.0,0.0,0.0,0.0,0.0,0.0,0.0,0.0,0.0,0.0,0.0,0.0,0.0,0.0,0.0,0.0,0.0,0.0,0.0,0.0,0.0,0.0,0.0,0.0,0.0,0.0,0.0,0.0,0.0,0.0,0.0,0.0,0.0,0.0,0.0,0.0,0.0,0.0,0.0,0.0,0.0,0.0,0.0,0.0,0.0,0.0,0.0,2.2327,0.0,0.0,0.0,0.0,0.0,0.0,0.0,0.0,0.0,0.0,0.0,0.0,0.0,0.0,0.0,0.0,0.0,0.0,0.0,0.0,0.0,0.0,0.0,0.0,0.0,0.0,0.0,0.0,0.0,0.0,0.0,0.0,0.0,0.0,0.0,0.0,0.0,0.0,0.0,0.0,0.0,0.0,0.0,0.0,0.0,0.0,0.0,0.0,0.0,0.0,0.0,0.0,0.0,0.0,0.0,0.0,0.0,0.0,0.0,0.0,0.0,0.0,0.0,0.0,0.0,0.0,0.0,0.0,0.0,0.0,0.0,0.0,0.0,0.0,0.0,0.0,0.0,0.0,0.0,0.0,0.0,0.0,0.0,0.0,0.0,0.0,0.0,0.0,0.0,0.0,0.0,0.0,0.0,0.0,0.0,0.0,0.0,0.0,0.0,0.0,0.0,0.0,0.0,0.0,0.0,0.0,0.0,0.0,0.0,0.0,2.2327,2.2327,2.2327,2.2327,2.2327,0.0,0.0,0.0,0.0,0.0,0.0,0.0,0.0,0.0,0.0,0.0,0.0,0.0,0.0,0.0,0.0,0.0,0.0,0.0,0.0,0.0,0.0,0.0,0.0,0.0,0.0,0.0,0.0,0.0,0.0,0.0,0.0,0.0,0.0,0.0,0.0,0.0,0.0,0.0,0.0,0.0,0.0,0.0,0.0,0.0,0.0,0.0,0.0,0.0,0.0,0.0,0.0,0.0,0.0,0.0,0.0,0.0,0.0,0.0,0.0,0.0,0.0,0.0,0.0,0.0,0.0,0.0,0.0,0.0,0.0,0.0,0.0,0.0,0.0,0.0,0.0,0.0,0.0,0.0,0.0,0.0,0.0,0.0,0.0,0.0,0.0,0.0,0.0,0.0,0.0,0.0,0.0,0.0,0.0,0.0,0.0,0.0,0.0,0.0,0.0,0.0,0.0,0.0,0.0,0.0,0.0,0.0,0.0,0.0,0.0,0.0,0.0,2.2327,2.2327,2.2327,0.0,0.0,0.0,0.0,0.0,0.0,0.0,0.0,0.0,0.0,0.0,0.0,0.0,0.0,0.0,0.0,0.0,0.0,0.0,0.0,0.0,0.0,0.0,0.0,0.0,0.0,0.0,0.0,0.0,0.0,0.0,0.0,0.0,0.0,0.0,0.0,0.0,0.0,0.0,0.0,0.0,0.0,0.0,0.0,0.0,0.0,0.0,0.0,0.0,0.0,0.0,0.0,0.0,0.0,0.0,0.0,0.0,0.0,0.0,0.0,0.0,0.0,0.0,0.0,0.0,0.0,0.0,0.0,0.0,0.0,0.0,0.0,0.0,0.0,0.0,0.0,0.0,0.0,0.0,0.0,0.0,0.0,0.0,0.0,0.0,0.0,0.0,0.0,0.0,0.0,0.0,0.0,0.0,0.0,0.0,0.0,0.0,0.0,0.0,0.0,0.0,0.0,0.0,0.0,0.0,0.0,0.0,0.0,0.0,0.0,2.2327,2.2327,2.2327,0.0,2.2282,0.0,0.0,0.0,0.0,0.0,0.0,0.0,0.0,0.0,0.0,0.0,0.0,0.0,0.0,0.0,0.0,0.0,0.0,0.0,0.0,0.0,0.0,0.0,0.0,0.0,0.0,0.0,0.0,0.0,0.0,0.0,0.0,0.0,0.0,0.0,0.0,0.0,0.0,0.0,0.0,0.0,0.0,0.0,0.0,0.0,0.0,0.0,0.0,0.0,0.0,0.0,0.0,0.0,0.0,0.0,0.0,0.0,0.0,0.0,0.0,0.0,0.0,0.0,0.0,0.0,0.0,0.0,0.0,0.0,0.0,0.0,0.0,0.0,0.0,0.0,0.0,0.0,0.0,0.0,0.0,0.0,0.0,0.0,0.0,0.0,0.0,0.0,0.0,0.0,0.0,0.0,0.0,0.0,0.0,0.0,0.0,0.0,0.0,0.0,0.0,0.0,0.0,0.0,0.0,0.0,0.0,0.0,0.0,0.0,0.0,2.2327,2.2327,2.2327,2.2237,0.0,0.0,0.0,0.0,0.0,0.0,0.0,0.0,0.0,0.0,0.0,0.0,0.0,0.0,0.0,0.0,0.0,0.0,0.0,0.0,0.0,0.0,0.0,0.0,0.0,0.0,0.0,0.0,0.0,0.0,0.0,0.0,0.0,0.0,0.0,0.0,0.0,0.0,0.0,0.0,0.0,0.0,0.0,0.0,0.0,0.0,0.0,0.0,0.0,0.0,0.0,0.0,0.0,0.0,0.0,0.0,0.0,0.0,0.0,0.0,0.0,0.0,0.0,0.0,0.0,0.0,0.0,0.0,0.0,0.0,0.0,0.0,0.0,0.0,0.0,0.0,0.0,0.0,0.0,0.0,0.0,0.0,0.0,0.0,0.0,0.0,0.0,0.0,0.0,0.0,0.0,0.0,0.0,0.0,0.0,0.0,0.0,0.0,0.0,0.0,0.0,0.0,0.0,0.0,0.0,0.0,0.0,0.0,0.0,0.0,2.2327,2.2327,2.2327,2.2327,2.2209,2.2032,0.0,0.0,0.0,0.0,0.0,0.0,0.0,0.0,0.0,0.0,0.0,0.0,0.0,0.0,0.0,0.0,0.0,0.0,0.0,0.0,0.0,0.0,0.0,0.0,0.0,0.0,0.0,0.0,0.0,0.0,0.0,0.0,0.0,0.0,0.0,0.0,0.0,0.0,0.0,0.0,0.0,0.0,0.0,0.0,0.0,0.0,0.0,0.0,0.0,0.0,0.0,0.0,0.0,0.0,0.0,0.0,0.0,0.0,0.0,0.0,0.0,0.0,0.0,0.0,0.0,0.0,0.0,0.0,0.0,0.0,0.0,0.0,0.0,0.0,0.0,0.0,0.0,0.0,0.0,0.0,0.0,0.0,0.0,0.0,0.0,0.0,0.0,0.0,0.0,0.0,0.0,0.0,0.0,0.0,0.0,0.0,0.0,0.0,0.0,0.0,0.0,0.0,0.0,0.0,0.0,0.0,0.0,0.0,2.2327,2.2327,2.2327,2.2327,2.2327,2.2282,0.0,0.0,0.0,0.0,0.0,0.0,0.0,0.0,0.0,0.0,0.0,0.0,0.0,0.0,0.0,0.0,0.0,0.0,0.0,0.0,0.0,0.0,0.0,0.0,0.0,0.0,0.0,0.0,0.0,0.0,0.0,0.0,0.0,0.0,0.0,0.0,0.0,0.0,0.0,0.0,0.0,0.0,0.0,0.0,0.0,0.0,0.0,0.0,0.0,0.0,0.0,0.0,0.0,0.0,0.0,0.0,0.0,0.0,0.0,0.0,0.0,0.0,0.0,0.0,0.0,0.0,0.0,0.0,0.0,0.0,0.0,0.0,0.0,0.0,0.0,0.0,0.0,0.0,0.0,0.0,0.0,0.0,0.0,0.0,0.0,0.0,0.0,0.0,0.0,0.0,0.0,0.0,0.0,0.0,0.0,0.0,0.0,0.0,0.0,0.0,0.0,0.0,0.0,0.0,0.0,0.0,0.0,0.0,0.0,2.2327,2.2327,2.2327,2.2327,2.2327,2.2135,0.0,0.0,0.0,0.0,0.0,0.0,0.0,0.0,0.0,0.0,0.0,0.0,0.0,0.0,0.0,0.0,0.0,0.0,0.0,0.0,0.0,0.0,0.0,0.0,0.0,0.0,0.0,0.0,0.0,0.0,0.0,0.0,0.0,0.0,0.0,0.0,0.0,0.0,0.0,0.0,0.0,0.0,0.0,0.0,0.0,0.0,0.0,0.0,0.0,0.0,0.0,0.0,0.0,0.0,0.0,0.0,0.0,0.0,0.0,0.0,0.0,0.0,0.0,0.0,0.0,0.0,0.0,0.0,0.0,0.0,0.0,0.0,0.0,0.0,0.0,0.0,0.0,0.0,0.0,0.0,0.0,0.0,0.0,0.0,0.0,0.0,0.0,0.0,0.0,0.0,0.0,0.0,0.0,0.0,0.0,0.0,0.0,0.0,0.0,0.0,0.0,0.0,0.0,0.0,0.0,0.0,0.0,0.0,0.0,2.2327,0.0,2.2327,0.0,2.2327,2.2077,0.0,0.0,0.0,0.0,0.0,0.0,0.0,0.0,0.0,0.0,0.0,0.0,0.0,0.0,0.0,0.0,0.0,0.0,0.0,0.0,0.0,0.0,0.0,0.0,0.0,0.0,0.0,0.0,0.0,0.0,0.0,0.0,0.0,0.0,0.0,0.0,0.0,0.0,0.0,0.0,0.0,0.0,0.0,0.0,0.0,0.0,0.0,0.0,0.0,0.0,0.0,0.0,0.0,0.0,0.0,0.0,0.0,0.0,0.0,0.0,0.0,0.0,0.0,0.0,0.0,0.0,0.0,0.0,0.0,0.0,0.0,0.0,0.0,0.0,0.0,0.0,0.0,0.0,0.0,0.0,0.0,0.0,0.0,0.0,0.0,0.0,0.0,0.0,0.0,0.0,0.0,0.0,0.0,0.0,0.0,0.0,0.0,0.0,0.0,0.0,0.0,0.0,0.0,0.0,0.0,0.0,0.0,0.0,2.2293,2.2293,2.226,2.2276,2.2282,2.231,2.218,0.0,0.0,0.0,0.0,0.0,0.0,0.0,0.0,0.0,0.0,0.0,0.0,0.0,0.0,0.0,0.0,0.0,0.0,0.0,0.0,0.0,0.0,0.0,0.0,0.0,0.0,0.0,0.0,0.0,0.0,0.0,0.0,0.0,0.0,0.0,0.0,0.0,0.0,0.0,0.0,0.0,0.0,0.0,0.0,0.0,0.0,0.0,0.0,0.0,0.0,0.0,0.0,0.0,0.0,0.0,0.0,0.0,0.0,0.0,0.0,0.0,0.0,0.0,0.0,0.0,0.0,0.0,0.0,0.0,0.0,0.0,0.0,0.0,0.0,0.0,0.0,0.0,0.0,0.0,0.0,0.0,0.0,0.0,0.0,0.0,0.0,0.0,0.0,0.0,0.0,0.0,0.0,0.0,0.0,0.0,0.0,0.0,0.0,0.0,0.0,0.0,0.0,0.0,0.0,0.0,0.0,0.0,0.0,0.0,2.1532,2.1632,2.1861,2.2209,2.2225,2.2036,0.0,0.0,0.0,0.0,0.0,0.0,0.0,0.0,0.0,0.0,0.0,0.0,0.0,0.0,0.0,0.0,0.0,0.0,0.0,0.0,0.0,0.0,0.0,0.0,0.0,0.0,0.0,0.0,0.0,0.0,0.0,0.0,0.0,0.0,0.0,0.0,0.0,0.0,0.0,0.0,0.0,0.0,0.0,0.0,0.0,0.0,0.0,0.0,0.0,0.0,0.0,0.0,0.0,0.0,0.0,0.0,0.0,0.0,0.0,0.0,0.0,0.0,0.0,0.0,0.0,0.0,0.0,0.0,0.0,0.0,0.0,0.0,0.0,0.0,0.0,0.0,0.0,0.0,0.0,0.0,0.0,0.0,0.0,0.0,0.0,0.0,0.0,0.0,0.0,0.0,0.0,0.0,0.0,0.0,0.0,0.0,0.0,0.0,0.0,0.0,0.0,0.0,0.0,0.0,0.0,0.0,0.0,0.0,0.0,2.107,2.1567,2.1993,2.2225,2.2214,2.1978,2.1462,0.0,0.0,0.0,0.0,0.0,0.0,0.0,0.0,0.0,0.0,0.0,0.0,0.0,0.0,0.0,0.0,0.0,0.0,0.0,0.0,0.0,0.0,0.0,0.0,0.0,0.0,0.0,0.0,0.0,0.0,0.0,0.0,0.0,0.0,0.0,0.0,0.0,0.0,0.0,0.0,0.0,0.0,0.0,0.0,0.0,0.0,0.0,0.0,0.0,0.0,0.0,0.0,0.0,0.0,0.0,0.0,0.0,0.0,0.0,0.0,0.0,0.0,0.0,0.0,0.0,0.0,0.0,0.0,0.0,0.0,0.0,0.0,0.0,0.0,0.0,0.0,0.0,0.0,0.0,0.0,0.0,0.0,0.0,0.0,0.0,0.0,0.0,0.0,0.0,0.0,0.0,0.0,0.0,0.0,0.0,0.0,0.0,0.0,0.0,0.0,0.0,0.0,0.0,0.0,0.0,0.0,0.0,0.0,2.0858,2.2021,2.2542,2.231,2.2242,2.1978,0.0,0.0,0.0,0.0,0.0,0.0,0.0,0.0,0.0,0.0,0.0,0.0,0.0,0.0,0.0,0.0,0.0,0.0,0.0,0.0,0.0,0.0,0.0,0.0,0.0,0.0,0.0,0.0,0.0,0.0,0.0,0.0,0.0,0.0,0.0,0.0,0.0,0.0,0.0,0.0,0.0,0.0,0.0,0.0,0.0,0.0,0.0,0.0,0.0,0.0,0.0,0.0,0.0,0.0,0.0,0.0,0.0,0.0,0.0,0.0,0.0,0.0,0.0,0.0,0.0,0.0,0.0,0.0,0.0,0.0,0.0,0.0,0.0,0.0,0.0,0.0,0.0,0.0,0.0,0.0,0.0,0.0,0.0,0.0,0.0,0.0,0.0,0.0,0.0,0.0,0.0,0.0,0.0,0.0,0.0,0.0,0.0,0.0,0.0,0.0,0.0,0.0,0.0,0.0,0.0,0.0,0.0,0.0,0.0,2.2481,2.2909,2.2919,2.2477,2.2282,2.1978,0.0,0.0,0.0,0.0,0.0,0.0,0.0,0.0,0.0,0.0,0.0,0.0,0.0,0.0,0.0,0.0,0.0,0.0,0.0,0.0,0.0,0.0,0.0,0.0,0.0,0.0,0.0,0.0,0.0,0.0,0.0,0.0,0.0,0.0,0.0,0.0,0.0,0.0,0.0,0.0,0.0,0.0,0.0,0.0,0.0,0.0,0.0,0.0,0.0,0.0,0.0,0.0,0.0,0.0,0.0,0.0,0.0,0.0,0.0,0.0,0.0,0.0,0.0,0.0,0.0,0.0,0.0,0.0,0.0,0.0,0.0,0.0,0.0,0.0,0.0,0.0,0.0,0.0,0.0,0.0,0.0,0.0,0.0,0.0,0.0,0.0,0.0,0.0,0.0,0.0,0.0,0.0,0.0,0.0,0.0,0.0,0.0,0.0,0.0,0.0,0.0,0.0,0.0,0.0,0.0,0.0,0.0,0.0,2.3827,2.3904,2.4502,2.4529,2.3903,2.2894,2.2049,0.0,0.0,0.0,0.0,0.0,0.0,0.0,0.0,0.0,0.0,0.0,0.0,0.0,0.0,0.0,0.0,0.0,0.0,0.0,0.0,0.0,0.0,0.0,0.0,0.0,0.0,0.0,0.0,0.0,0.0,0.0,0.0,0.0,0.0,0.0,0.0,0.0,0.0,0.0,0.0,0.0,0.0,0.0,0.0,0.0,0.0,0.0,0.0,0.0,0.0,0.0,0.0,0.0,0.0,0.0,0.0,0.0,0.0,0.0,0.0,0.0,0.0,0.0,0.0,0.0,0.0,0.0,0.0,0.0,0.0,0.0,0.0,0.0,0.0,0.0,0.0,0.0,0.0,0.0,0.0,0.0,0.0,0.0,0.0,0.0,0.0,0.0,0.0,0.0,0.0,0.0,0.0,0.0,0.0,0.0,0.0,0.0,0.0,0.0,0.0,0.0,0.0,0.0,0.0,0.0,0.0,0.0,0.0,2.5805,2.5298,2.6301,2.6514,2.5743,2.3805,2.2417,0.0,0.0,0.0,0.0,0.0,0.0,0.0,0.0,0.0,0.0,0.0,0.0,0.0,0.0,0.0,0.0,0.0,0.0,0.0,0.0,0.0,0.0,0.0,0.0,0.0,0.0,0.0,0.0,0.0,0.0,0.0,0.0,0.0,0.0,0.0,0.0,0.0,0.0,0.0,0.0,0.0,0.0,0.0,0.0,0.0,0.0,0.0,0.0,0.0,0.0,0.0,0.0,0.0,0.0,0.0,0.0,0.0,0.0,0.0,0.0,0.0,0.0,0.0,0.0,0.0,0.0,0.0,0.0,0.0,0.0,0.0,0.0,0.0,0.0,0.0,0.0,0.0,0.0,0.0,0.0,0.0,0.0,0.0,0.0,0.0,0.0,0.0,0.0,0.0,0.0,0.0,0.0,0.0,0.0,0.0,0.0,0.0,0.0,0.0,0.0,0.0,0.0,0.0,0.0,0.0,0.0,0.0,0.0,2.6713,2.7042,2.6716,2.6255,2.5648,2.4896,2.403,0.0,0.0,0.0,0.0,0.0,0.0,0.0,0.0,0.0,0.0,0.0,0.0,0.0,0.0,0.0,0.0,0.0,0.0,0.0,0.0,0.0,0.0,0.0,0.0,0.0,0.0,0.0,0.0,0.0,0.0,0.0,0.0,0.0,0.0,0.0,0.0,0.0,0.0,0.0,0.0,0.0,0.0,0.0,0.0,0.0,0.0,0.0,0.0,2.34,0.0,0.0,0.0,0.0,0.0,0.0,0.0,0.0,0.0,0.0,0.0,0.0,0.0,0.0,0.0,0.0,0.0,0.0,0.0,0.0,0.0,0.0,0.0,0.0,0.0,0.0,0.0,0.0,0.0,0.0,0.0,0.0,0.0,0.0,0.0,0.0,0.0,0.0,0.0,0.0,0.0,0.0,0.0,0.0,0.0,0.0,0.0,0.0,0.0,0.0,0.0,0.0,0.0,0.0,0.0,0.0,0.0,0.0,0.0,2.7607,2.8268,2.7817,2.7416,2.711,2.6647,2.5466,0.0,0.0,0.0,0.0,0.0,0.0,0.0,0.0,0.0,0.0,0.0,0.0,0.0,0.0,0.0,0.0,0.0,0.0,0.0,0.0,0.0,0.0,0.0,0.0,0.0,0.0,0.0,0.0,0.0,0.0,0.0,0.0,0.0,0.0,0.0,0.0,0.0,0.0,0.0,0.0,0.0,0.0,0.0,0.0,0.0,0.0,0.0,0.0,0.0,0.0,0.0,0.0,0.0,0.0,0.0,0.0,0.0,0.0,0.0,0.0,0.0,0.0,0.0,0.0,0.0,0.0,0.0,0.0,0.0,0.0,0.0,0.0,0.0,0.0,0.0,0.0,0.0,0.0,0.0,0.0,0.0,0.0,0.0,0.0,0.0,0.0,0.0,0.0,0.0,0.0,0.0,0.0,0.0,0.0,0.0,0.0,0.0,0.0,0.0,0.0,0.0,0.0,0.0,0.0,0.0,0.0,0.0,2.7622,2.8479,2.9107,2.9007,2.8888,2.8822,2.8336,2.6767,2.4013,0.0,0.0,0.0,0.0,0.0,0.0,0.0,0.0,0.0,0.0,0.0,0.0,0.0,0.0,0.0,0.0,0.0,0.0,0.0,0.0,0.0,0.0,0.0,0.0,0.0,0.0,0.0,0.0,0.0,0.0,0.0,0.0,0.0,0.0,0.0,0.0,0.0,0.0,2.0357,2.1268,0.0,0.0,0.0,0.0,0.0,0.0,0.0,0.0,2.3176,0.0,0.0,0.0,0.0,0.0,0.0,0.0,0.0,0.0,0.0,0.0,0.0,0.0,0.0,0.0,0.0,0.0,0.0,0.0,0.0,0.0,0.0,0.0,0.0,0.0,0.0,0.0,0.0,0.0,0.0,0.0,0.0,0.0,0.0,0.0,0.0,0.0,0.0,0.0,0.0,0.0,0.0,0.0,0.0,0.0,0.0,0.0,0.0,0.0,0.0,0.0,0.0,0.0,0.0,0.0,0.0,2.7009,2.8464,2.928,2.9328,2.9163,2.8984,2.8785,2.8543,2.7656,2.6039,0.0,0.0,0.0,0.0,0.0,0.0,0.0,0.0,0.0,0.0,0.0,0.0,0.0,0.0,0.0,0.0,0.0,0.0,0.0,0.0,0.0,0.0,0.0,0.0,0.0,0.0,0.0,0.0,0.0,0.0,0.0,0.0,0.0,0.0,0.0,0.0,0.0,0.0,0.0,2.1991,2.2595,0.0,0.0,0.0,0.0,0.0,0.0,0.0,0.0,2.2996,0.0,0.0,0.0,0.0,0.0,0.0,0.0,0.0,0.0,0.0,0.0,0.0,0.0,0.0,0.0,0.0,0.0,0.0,0.0,0.0,0.0,0.0,0.0,0.0,0.0,0.0,0.0,0.0,0.0,0.0,0.0,0.0,0.0,0.0,0.0,0.0,0.0,0.0,0.0,0.0,0.0,0.0,0.0,0.0,0.0,0.0,0.0,0.0,0.0,0.0,0.0,0.0,0.0,0.0,0.0,2.701,2.8708,2.9569,2.9568,2.9353,2.9144,2.892,2.8749,2.8146,0.0,0.0,0.0,0.0,0.0,0.0,0.0,0.0,0.0,0.0,0.0,0.0,0.0,0.0,0.0,0.0,0.0,0.0,0.0,0.0,0.0,0.0,0.0,0.0,0.0,0.0,0.0,0.0,0.0,0.0,0.0,0.0,0.0,0.0,0.0,0.0,0.0,0.0,0.0,0.0,2.2325,2.2773,2.207,0.0,0.0,0.0,0.0,0.0,0.0,2.2922,2.2819,0.0,0.0,0.0,0.0,0.0,0.0,0.0,0.0,0.0,0.0,0.0,0.0,0.0,0.0,0.0,0.0,0.0,0.0,0.0,0.0,0.0,0.0,0.0,0.0,0.0,0.0,0.0,0.0,0.0,0.0,0.0,0.0,0.0,0.0,0.0,0.0,0.0,0.0,0.0,0.0,0.0,0.0,0.0,0.0,0.0,0.0,0.0,0.0,0.0,0.0,0.0,0.0,0.0,0.0,0.0,2.7157,2.8802,2.9664,2.9701,2.9492,2.9217,2.8835,2.88,2.8384,0.0,0.0,0.0,0.0,0.0,0.0,0.0,0.0,0.0,0.0,0.0,0.0,0.0,0.0,0.0,0.0,0.0,0.0,0.0,0.0,0.0,0.0,0.0,0.0,0.0,0.0,0.0,0.0,0.0,0.0,0.0,0.0,0.0,0.0,0.0,0.0,0.0,0.0,0.0,0.0,0.0,2.2725,2.1845,2.1972,0.0,0.0,0.0,0.0,2.279,2.2936,0.0,0.0,0.0,0.0,0.0,0.0,0.0,0.0,0.0,0.0,0.0,0.0,0.0,0.0,0.0,0.0,0.0,0.0,0.0,0.0,0.0,0.0,0.0,0.0,0.0,0.0,0.0,0.0,0.0,0.0,0.0,0.0,0.0,0.0,0.0,0.0,0.0,0.0,0.0,0.0,0.0,0.0,0.0,0.0,0.0,0.0,0.0,0.0,0.0,0.0,0.0,0.0,0.0,0.0,0.0,0.0,2.811,2.9045,2.9569,2.9701,2.9511,2.8977,2.8162,2.8613,2.8207,0.0,0.0,0.0,0.0,0.0,0.0,0.0,0.0,0.0,0.0,0.0,0.0,0.0,0.0,0.0,0.0,0.0,0.0,0.0,0.0,0.0,0.0,0.0,0.0,0.0,0.0,0.0,0.0,0.0,0.0,0.0,0.0,0.0,0.0,0.0,0.0,0.0,0.0,0.0,0.0,0.0,2.2569,2.0601,2.1144,2.1487,0.0,0.0,2.1724,2.2047,2.2468,0.0,0.0,0.0,0.0,0.0,0.0,0.0,0.0,0.0,0.0,0.0,0.0,0.0,0.0,0.0,0.0,0.0,0.0,0.0,0.0,0.0,0.0,0.0,0.0,0.0,0.0,0.0,0.0,0.0,0.0,0.0,0.0,0.0,0.0,0.0,0.0,0.0,0.0,0.0,0.0,0.0,0.0,0.0,0.0,0.0,0.0,0.0,0.0,0.0,0.0,0.0,0.0,0.0,0.0,0.0,2.7509,2.8385,2.8797,2.9248,2.979,2.9645,2.906,2.8036,2.8651,2.8258,0.0,0.0,0.0,0.0,0.0,0.0,0.0,0.0,0.0,0.0,0.0,0.0,0.0,0.0,0.0,0.0,0.0,0.0,0.0,0.0,0.0,0.0,0.0,0.0,0.0,0.0,0.0,0.0,0.0,0.0,0.0,0.0,0.0,0.0,0.0,0.0,0.0,0.0,0.0,0.0,0.0,0.0,2.0801,2.1188,0.0,0.0,0.0,2.18,2.2425,0.0,0.0,0.0,0.0,0.0,0.0,0.0,0.0,0.0,0.0,0.0,0.0,0.0,0.0,0.0,0.0,0.0,0.0,0.0,0.0,0.0,0.0,0.0,0.0,0.0,0.0,0.0,0.0,0.0,0.0,0.0,0.0,0.0,0.0,0.0,0.0,0.0,0.0,0.0,0.0,0.0,0.0,0.0,0.0,0.0,0.0,0.0,0.0,0.0,0.0,0.0,0.0,0.0,0.0,0.0,0.0,0.0,2.8839,2.8896,2.9252,2.9876,2.9756,2.9063,2.7758,2.8609,0.0,0.0,0.0,0.0,0.0,0.0,0.0,0.0,0.0,0.0,0.0,0.0,0.0,0.0,0.0,0.0,0.0,0.0,0.0,0.0,0.0,0.0,0.0,0.0,0.0,0.0,0.0,2.0377,0.0,0.0,0.0,0.0,0.0,0.0,0.0,0.0,0.0,0.0,0.0,0.0,0.0,0.0,2.2362,2.146,2.1738,2.2254,0.0,0.0,2.2106,2.2892,2.2949,2.2611,0.0,0.0,0.0,0.0,0.0,0.0,0.0,0.0,0.0,0.0,0.0,0.0,0.0,0.0,0.0,0.0,0.0,0.0,0.0,0.0,0.0,0.0,0.0,0.0,0.0,0.0,0.0,0.0,0.0,0.0,0.0,0.0,0.0,0.0,0.0,0.0,0.0,0.0,0.0,0.0,0.0,0.0,0.0,0.0,0.0,0.0,0.0,0.0,0.0,0.0,0.0,0.0,0.0,0.0,0.0,2.9775,2.9799,2.982,2.9895,2.9775,2.8783,2.6985,2.8313,2.8012,0.0,0.0,0.0,0.0,0.0,0.0,0.0,0.0,0.0,0.0,0.0,0.0,0.0,0.0,0.0,0.0,0.0,0.0,0.0,0.0,0.0,0.0,0.0,0.0,0.0,0.0,0.0,0.0,0.0,0.0,0.0,0.0,0.0,0.0,0.0,0.0,0.0,0.0,0.0,0.0,0.0,2.2582,2.2488,2.3061,2.3375,0.0,0.0,2.2623,2.3172,2.3157,2.2671,2.1504,0.0,0.0,0.0,0.0,0.0,0.0,0.0,0.0,0.0,0.0,0.0,0.0,0.0,0.0,0.0,0.0,0.0,0.0,0.0,0.0,0.0,0.0,0.0,0.0,0.0,0.0,0.0,0.0,0.0,0.0,0.0,0.0,0.0,0.0,0.0,0.0,0.0,0.0,0.0,0.0,0.0,0.0,0.0,0.0,0.0,0.0,0.0,0.0,0.0,0.0,0.0,0.0,0.0,2.9099,3.006,2.9565,2.9516,2.995,2.9876,2.8893,2.6991,2.8336,2.8068,0.0,0.0,0.0,0.0,0.0,0.0,0.0,0.0,0.0,0.0,0.0,0.0,0.0,0.0,0.0,0.0,0.0,0.0,0.0,0.0,0.0,0.0,0.0,0.0,0.0,0.0,0.0,0.0,2.2436,2.3065,2.3363,0.0,0.0,0.0,0.0,0.0,0.0,0.0,0.0,0.0,0.0,2.4024,2.3597,2.4257,0.0,0.0,2.3516,2.324,2.3421,2.3187,2.2831,2.2361,2.1586,0.0,0.0,0.0,0.0,0.0,0.0,0.0,0.0,0.0,0.0,0.0,0.0,0.0,0.0,0.0,0.0,0.0,0.0,0.0,0.0,0.0,0.0,0.0,0.0,0.0,0.0,0.0,0.0,0.0,0.0,0.0,0.0,0.0,0.0,0.0,0.0,0.0,0.0,0.0,0.0,0.0,0.0,0.0,0.0,0.0,0.0,0.0,0.0,0.0,0.0,0.0,0.0,2.987,3.0548,3.0017,2.992,3.0373,3.0054,2.9094,2.7475,2.8285,2.7915,0.0,0.0,0.0,0.0,0.0,0.0,0.0,0.0,0.0,0.0,0.0,0.0,0.0,0.0,0.0,0.0,0.0,0.0,0.0,0.0,0.0,0.0,0.0,0.0,0.0,0.0,0.0,0.0,2.2222,2.2893,2.3124,0.0,0.0,0.0,0.0,0.0,0.0,0.0,0.0,0.0,0.0,2.5243,2.4932,2.5305,2.5363,2.4683,2.3952,2.3436,2.3319,2.3083,2.2844,2.2754,0.0,0.0,0.0,0.0,0.0,0.0,0.0,0.0,0.0,0.0,0.0,0.0,0.0,0.0,0.0,0.0,0.0,0.0,0.0,0.0,0.0,0.0,0.0,0.0,0.0,0.0,0.0,0.0,0.0,0.0,2.4812,0.0,0.0,0.0,0.0,0.0,0.0,0.0,0.0,0.0,0.0,0.0,0.0,0.0,0.0,0.0,0.0,0.0,0.0,0.0,0.0,0.0,0.0,3.1264,3.1365,3.1431,3.1411,3.1245,3.0376,2.9358,2.8203,2.8081,2.7442,2.6222,0.0,0.0,0.0,0.0,0.0,0.0,0.0,0.0,0.0,0.0,0.0,0.0,0.0,0.0,0.0,0.0,0.0,0.0,0.0,0.0,0.0,0.0,0.0,0.0,0.0,0.0,2.0387,2.1168,2.167,0.0,0.0,0.0,0.0,0.0,0.0,0.0,0.0,0.0,0.0,2.5102,2.5848,2.6523,2.6116,2.5467,2.477,2.3797,2.3083,2.2994,2.2934,2.2799,0.0,0.0,0.0,0.0,0.0,0.0,0.0,0.0,0.0,0.0,0.0,0.0,0.0,0.0,0.0,0.0,0.0,0.0,0.0,0.0,0.0,0.0,0.0,0.0,0.0,0.0,0.0,2.4564,2.5527,0.0,0.0,0.0,0.0,0.0,0.0,0.0,0.0,0.0,0.0,0.0,2.9538,2.9767,0.0,0.0,0.0,0.0,0.0,0.0,0.0,0.0,0.0,0.0,0.0,0.0,3.1482,3.1595,3.1684,3.1638,3.1426,3.046,2.9455,2.8425,2.8161,2.7358,2.5985,0.0,0.0,0.0,0.0,0.0,0.0,0.0,0.0,0.0,0.0,0.0,0.0,0.0,0.0,0.0,0.0,0.0,0.0,0.0,0.0,0.0,0.0,0.0,0.0,0.0,2.0288,0.0,0.0,0.0,0.0,0.0,0.0,0.0,0.0,0.0,0.0,0.0,2.4278,2.4824,2.5872,2.6683,2.6946,2.6629,2.6333,0.0,0.0,0.0,0.0,0.0,0.0,0.0,0.0,0.0,0.0,0.0,0.0,0.0,0.0,2.308,2.104,2.0486,2.0358,2.0358,0.0,0.0,0.0,0.0,0.0,0.0,0.0,0.0,0.0,0.0,0.0,0.0,0.0,0.0,2.5831,0.0,2.7148,0.0,0.0,0.0,0.0,0.0,0.0,0.0,0.0,2.9808,3.006,3.009,3.0317,3.0326,0.0,3.0188,3.012,0.0,0.0,0.0,0.0,0.0,0.0,0.0,0.0,3.1634,3.1699,3.1777,3.1746,3.1495,3.0534,2.969,2.8985,2.807,2.7086,2.6069,2.5582,2.5279,0.0,0.0,0.0,0.0,0.0,0.0,0.0,0.0,0.0,0.0,0.0,0.0,0.0,0.0,0.0,0.0,0.0,0.0,0.0,0.0,0.0,0.0,0.0,2.0538,0.0,0.0,0.0,0.0,0.0,0.0,0.0,0.0,0.0,2.2212,2.3968,2.5413,2.5648,2.6683,2.7321,2.7097,0.0,0.0,0.0,0.0,0.0,0.0,0.0,2.3925,2.3954,2.3557,2.3435,2.3966,2.4688,2.5091,2.4878,0.0,0.0,2.2568,2.2073,2.1953,2.1908,2.211,2.211,2.1652,2.1798,2.1959,0.0,0.0,0.0,0.0,0.0,0.0,0.0,0.0,2.6115,2.6879,0.0,2.7291,0.0,0.0,0.0,0.0,0.0,2.9241,0.0,0.0,3.0513,3.0723,3.079,3.0792,3.0782,3.0788,3.0778,3.072,3.0567,2.95,0.0,0.0,0.0,0.0,0.0,0.0,3.1777,3.1729,3.1833,3.1806,3.1576,3.0562,2.9959,2.9776,2.7884,2.6755,2.6457,2.5378,2.4946,2.5438,2.5017,0.0,0.0,0.0,0.0,0.0,0.0,0.0,0.0,0.0,0.0,0.0,0.0,0.0,0.0,0.0,0.0,0.0,0.0,0.0,0.0,2.0573,0.0,0.0,0.0,0.0,0.0,0.0,0.0,0.0,0.0,0.0,2.3167,2.474,2.6247,2.6707,0.0,0.0,0.0,0.0,2.7389,2.651,2.6307,2.6286,2.6287,2.588,2.5619,2.5619,0.0,0.0,2.5217,2.5471,2.561,2.5261,2.5401,2.5423,2.5232,2.4893,2.4704,2.4543,2.4129,2.3873,2.3649,2.3283,2.3231,2.5499,0.0,0.0,0.0,0.0,2.5288,2.5825,2.6286,2.7,2.7885,2.8809,2.8618,0.0,0.0,0.0,0.0,0.0,0.0,2.9975,3.0214,3.0436,3.0638,3.0719,3.0741,3.0739,3.0728,3.0782,3.0462,2.9847,2.9547,2.9574,2.9892,0.0,0.0,0.0,0.0,3.1889,3.1933,3.1903,3.1844,3.1737,3.0649,2.9655,2.8783,2.799,2.7227,2.645,2.6477,2.5975,2.4853,2.5457,0.0,0.0,0.0,0.0,0.0,0.0,0.0,0.0,0.0,0.0,0.0,0.0,0.0,0.0,0.0,0.0,0.0,0.0,0.0,2.032,2.1132,2.1484,0.0,0.0,0.0,0.0,0.0,0.0,0.0,0.0,0.0,2.5582,2.6539,2.7217,0.0,0.0,2.7419,2.7511,2.7654,2.7961,2.8553,2.8118,0.0,2.7842,2.7027,2.639,2.6437,2.6794,2.7026,2.6841,2.7033,2.7173,2.6961,2.6792,2.6672,2.6577,2.5742,2.4907,2.4312,2.4384,2.4268,2.338,2.3443,2.3608,2.8518,2.8144,2.6554,2.6054,2.6293,2.683,2.7269,2.7681,2.8278,2.8931,2.9544,2.924,2.9255,2.9481,2.9358,0.0,0.0,0.0,2.9842,2.9383,2.9824,2.989,2.9671,2.9985,3.0131,3.016,3.0579,3.0488,2.9982,3.0016,3.018,3.0486,0.0,0.0,3.1078,3.1644,3.2138,3.2527,3.2143,3.1895,3.1816,3.0721,2.9756,2.8968,2.8409,2.7744,2.7071,2.7282,2.6844,2.5597,2.6081,2.6208,0.0,0.0,0.0,0.0,0.0,0.0,0.0,0.0,0.0,0.0,0.0,2.3664,2.1961,0.0,0.0,0.0,2.154,2.1252,2.1205,2.2419,0.0,0.0,0.0,0.0,0.0,0.0,0.0,2.545,2.6492,2.7219,2.7317,2.779,2.8,2.7517,2.7722,2.7912,2.7981,0.0,2.9098,2.9616,2.9543,2.9364,2.9209,2.8501,2.7866,2.7559,2.7842,2.8061,2.8,2.809,2.8192,2.811,2.7929,2.7795,2.7695,2.6984,2.612,2.521,2.5132,2.4929,2.394,2.3851,2.3837,3.0916,3.1352,2.7189,2.637,2.7717,2.7755,2.8536,2.9741,2.9764,2.9958,3.0252,2.9459,2.9531,3.0209,2.9975,0.0,2.9065,2.9858,2.9455,2.812,2.8838,2.8762,2.8058,2.8896,2.9306,2.9306,3.0247,3.0691,3.0697,3.0693,3.0704,3.0682,2.9972,3.0378,3.1828,3.1952,3.2423,3.3262,3.2421,3.1955,3.1874,3.0765,3.0098,2.9891,2.8981,2.8372,2.8091,2.7912,2.7604,2.7115,2.6854,2.6865,2.7113,0.0,0.0,0.0,0.0,0.0,0.0,0.0,0.0,0.0,0.0,0.0,0.0,0.0,0.0,0.0,2.3759,0.0,2.3159,2.4016,0.0,0.0,0.0,2.4952,2.4536,2.6352,2.7328,2.6573,0.0,0.0,2.8557,2.8764,2.8801,2.8416,2.8767,2.8911,2.8546,2.954,3.0292,3.0065,3.0594,3.0864,3.0361,3.0051,2.9556,2.8946,2.8826,2.8795,2.8795,2.8717,2.8732,2.8748,2.8685,2.8638,2.8511,2.8401,2.8119,2.6985,2.6298,2.5788,2.5119,2.4557,2.4106,3.0693,3.0801,2.9706,2.9838,3.0744,3.0743,3.0592,3.0317,3.0318,3.0358,3.0447,3.0222,3.0276,3.0501,3.0495,3.0027,2.9237,2.9432,2.8961,2.7999,2.8135,2.8114,2.7991,2.8876,2.927,2.9282,3.0229,3.0665,3.0622,3.0614,3.0639,3.0678,3.0511,3.065,3.1086,3.1735,3.2185,3.2414,3.2154,3.1929,3.1728,3.0746,3.0118,2.9972,2.9545,2.9195,2.8929,2.9274,2.8798,2.7367,2.7629,2.7538,2.701,2.6004,0.0,0.0,0.0,0.0,0.0,0.0,0.0,0.0,0.0,2.4021,2.2991,0.0,2.3631,0.0,2.4194,2.4596,2.3979,2.4552,0.0,0.0,2.5781,2.6152,2.6014,2.7592,2.8541,2.8102,2.9143,2.9868,2.9777,3.04,3.0766,3.0629,2.9403,2.8767,2.9315,2.9519,3.0085,3.1039,3.1035,3.0857,3.1004,3.0666,3.0293,3.0123,2.981,2.9621,2.9621,2.935,2.9136,2.9152,2.8889,2.8701,2.8701,2.8559,2.8358,2.7797,2.7226,2.6489,2.5433,2.4963,2.4633,2.9745,2.9398,2.9401,2.9659,3.0126,3.092,3.0983,3.0555,3.054,3.0554,3.0518,3.0138,2.9993,3.0,2.9658,2.9003,2.8189,2.8533,2.7999,2.6751,2.7048,2.722,2.7248,2.8121,2.873,2.9135,3.0105,3.0549,3.054,3.0565,3.0618,3.0707,3.1087,3.114,3.0849,3.1676,3.2285,3.2666,3.2228,3.1754,3.1217,3.064,3.0241,3.0049,2.9905,2.9681,2.9353,3.0002,2.9793,2.8621,2.8693,2.8559,2.8029,2.7021,2.6636,0.0,0.0,0.0,0.0,0.0,0.0,0.0,0.0,0.0,0.0,0.0,2.5324,2.412,2.5471,2.5995,2.5072,2.5982,2.6551,2.6336,2.752,2.8045,2.7457,2.864,2.9321,2.887,2.9439,2.9891,2.9909,3.032,3.0724,3.0988,3.0057,2.9689,3.0588,3.0916,3.1355,3.2089,3.1863,3.1533,3.1511,3.1067,3.0764,3.0723,3.0452,3.0248,3.0248,2.9973,2.9694,2.9605,2.9409,2.9273,2.9227,2.9182,2.9039,2.8889,2.8685,2.7984,2.6522,2.5835,2.5408,2.8887,2.8211,2.8217,2.823,2.8333,2.9885,3.0456,3.0266,3.0261,3.0337,3.0419,2.9617,2.9351,2.9393,2.8647,2.7828,2.7046,2.7771,2.7179,2.5587,2.6232,2.6524,2.6496,2.735,2.8198,2.9009,2.9939,3.0414,3.0479,3.05,3.0549,3.0707,3.1437,3.1468,3.0857,3.1535,3.2363,3.3205,3.2411,3.1638,3.0967,3.0772,3.0587,3.0457,3.0348,3.0124,2.972,3.0259,3.0389,2.9996,2.9624,2.9413,2.9331,2.8293,2.7617,0.0,2.7853,0.0,0.0,0.0,0.0,0.0,0.0,0.0,0.0,2.7904,2.7931,2.5718,2.7054,2.7624,2.6537,2.7619,2.8237,2.7724,2.9237,2.9837,2.8735,2.9423,2.9806,2.9218,2.9405,2.9582,2.9696,2.9716,3.0087,3.0727,3.0943,3.1204,3.2019,3.2469,3.2625,3.2818,3.2781,3.2466,3.1914,3.149,3.1201,3.1123,3.0861,3.0733,3.0692,3.0468,3.0231,3.0146,3.0087,3.006,3.0033,2.9908,2.9827,2.9729,2.9701,2.9186,2.7782,2.6967,2.6446,3.0006,2.9852,2.9898,2.9929,2.9963,3.0239,2.9663,2.849,2.8495,2.8923,2.9596,2.9343,2.9606,3.0226,3.0044,2.9417,2.8511,2.8706,2.8185,2.7062,2.7266,2.7328,2.7324,2.8229,2.8772,2.9047,2.9958,3.0402,3.0428,3.0409,3.046,3.055,3.0759,3.0812,3.0728,0.0,0.0,0.0,3.207,3.2181,3.2645,3.1961,3.1804,3.2327,3.168,0.0,3.0713,3.0188,2.9719,2.9388,2.9237,0.0,0.0,0.0,0.0,0.0,0.0,0.0,0.0,0.0,0.0,0.0,3.0938,3.0241,2.8606,2.89,2.8988,2.8455,2.8356,2.8407,2.8574,2.827,2.8131,2.8246,2.9233,2.9598,2.8883,2.9609,3.0017,2.9423,2.999,3.0441,3.0482,3.104,3.1488,3.1654,3.2254,3.272,3.2947,3.2373,3.2119,3.2907,3.3142,3.2894,3.2351,3.2021,3.175,3.1432,3.1061,3.0828,3.0771,3.0747,3.0683,3.0608,3.0642,3.0642,3.0584,3.0054,2.9658,2.9575,2.9072,2.8425,2.798,2.7896,2.7553,2.9599,0.0,2.8911,2.893,0.0,2.8897,2.8453,2.7764,2.8728,2.9398,2.9805,2.9321,2.9347,2.9723,2.9264,2.8778,2.8261,2.8294,2.803,2.75,2.7533,2.7761,2.8145,2.8603,2.9065,2.9546,3.0062,3.0305,3.0323,3.0364,3.0439,3.0481,3.0558,3.0618,3.0651,3.0721,3.0982,3.144,3.1815,3.2216,3.259,3.2571,3.2668,3.2921,3.2512,0.0,0.0,0.0,0.0,0.0,0.0,0.0,0.0,0.0,0.0,3.0134,3.0259,3.0457,3.0774,3.1142,3.164,3.2289,3.2385,3.1893,3.0659,3.0542,3.0398,3.0132,2.9864,2.9665,2.9557,2.9214,2.8938,2.8852,2.9533,2.9793,2.9329,2.9712,2.9983,2.9813,3.045,3.105,3.105,3.175,3.2392,3.2748,3.3125,3.354,3.3797,3.3377,3.3148,3.3479,3.3494,3.3309,3.2939,3.2666,3.2435,3.2144,3.1458,3.0922,3.0793,3.062,3.0482,3.046,3.0673,3.0861,3.0771,3.0446,3.0032,2.9682,2.9415,2.8921,2.8256,2.7948,2.7674,2.9519,2.8202,2.818,2.8108,2.801,2.7975,2.7896,2.7938,0.0,0.0,0.0,2.9257,2.9046,2.9136,2.8433,2.8082,2.8017,2.8017,2.8008,2.7937,2.7922,2.8302,2.8966,2.8954,2.9327,3.0083,3.019,3.0226,3.0247,3.034,3.0419,3.0491,3.0558,3.0574,3.0599,3.0823,3.0958,3.1053,3.1727,3.2209,3.2478,3.3147,3.3534,3.3478,3.3291,3.3114,3.3001,3.2771,3.2534,3.2313,3.2128,3.1948,3.1815,3.157,3.1483,3.1593,3.2184,3.2564,3.263,3.3195,3.357,3.3607,3.3552,3.3213,3.2472,3.2047,3.1715,3.1319,3.1071,3.0691,3.0088,2.9934,2.9793,2.9511,2.9925,3.0083,2.9851,2.9874,2.9981,3.0053,3.0676,3.1202,3.1188,3.1851,3.2607,3.3175,3.3444,3.3959,3.4585,3.454,3.4267,3.4031,3.391,3.3734,3.3419,3.3214,3.3093,3.2791,3.1989,3.137,3.1184,3.0784,3.0448,3.0465,3.0691,3.0789,3.0726,3.0527,3.0349,2.9756,2.9739,2.954,2.8356,2.7776,2.7589,3.1858,3.1631,3.1032,3.076,3.0687,2.995,2.9614,2.9453,2.8396,2.836,2.9059,2.885,2.9193,2.9937,2.9741,2.9661,2.9661,2.9726,2.9711,2.9646,2.958,2.9623,2.9739,2.9788,2.9924,3.0094,3.0226,3.0305,3.0367,3.0394,3.0439,3.0499,3.0519,3.0559,3.0653,3.1417,3.185,3.1914,3.1984,3.2748,3.4183,3.4353,3.4749,3.5346,3.4641,3.4226,3.4075,3.3308,3.2779,3.2634,3.2553,3.2421,3.2241,3.2105,3.2198,3.2612,3.2624,3.2863,3.346,3.3873,3.4184,3.442,3.4467,3.412,3.3226,3.2526,3.2192,3.2294,3.1267,3.0479,3.0522,2.999,2.9864,3.0394,3.0187,3.0191,3.075,3.0486,3.0253,3.0311,3.0355,3.0578,3.0828,3.1354,3.1966,3.213,3.3314,3.427,3.489,3.4907,3.4612,3.4454,3.434,3.4087,3.3642,3.3468,3.3252,3.2991,3.2696,3.2317,3.2268,3.1667,3.1204,3.1342,3.0864,3.0568,3.048,2.9907,2.9638,2.9378,2.9064,2.847,2.8134,2.8099,2.8012,3.1148,3.0715,3.0452,3.0319,3.0245,2.9921,2.9805,2.9784,2.9082,2.8992,2.9406,2.9418,2.9642,3.0026,3.0053,3.0022,2.9956,2.9991,2.9956,2.9888,2.9839,2.9842,2.9844,2.9876,2.994,3.0049,3.0138,3.0489,3.0919,3.0621,3.0879,3.1746,3.1868,3.1719,3.1382,3.2193,3.2914,3.3429,3.347,3.3845,3.463,3.5119,3.5529,3.5852,3.5422,3.5161,3.5068,3.4607,3.4313,3.4224,3.4112,3.399,3.3878,3.3714,3.3752,3.3949,3.388,3.4001,3.4311,3.448,3.4588,3.4694,3.4754,3.4389,3.3533,3.352,3.3599,3.3672,3.2366,3.1544,3.1618,3.062,3.0091,3.0483,3.0266,3.0297,3.0592,3.0571,3.0604,3.1049,3.1534,3.2008,3.2473,3.2825,3.3236,3.3622,3.4386,3.4898,3.5239,3.5152,3.4981,3.4832,3.4651,3.4214,3.365,3.334,3.2978,3.2319,3.1765,3.1447,3.1329,3.0902,3.0692,3.061,3.046,3.0534,3.0451,3.0178,2.9786,2.9333,2.9122,2.8756,2.8398,2.8291,2.8282,3.0511,2.9893,2.9808,2.964,2.9433,2.9551,2.9644,2.9754,2.9754,2.9806,2.9891,2.9924,2.9959,2.9975,3.0007,2.9975,2.9891,2.9872,2.9839,2.9805,2.9806,2.9808,2.9828,2.9842,2.9907,3.0057,3.0299,3.083,3.1383,3.1123,3.1564,3.2776,3.3003,3.2754,3.2161,3.302,3.3852,3.4568,3.4842,3.4984,3.5019,3.5641,3.5957,3.5919,3.5858,3.5807,3.5749,3.5689,3.5618,3.5538,3.5424,3.533,3.5207,3.5069,3.498,3.4925,3.4908,3.4926,3.4944,3.4718,3.4623,3.4659,3.4485,3.4122,3.3587,3.3994,3.4206,3.3866,3.2618,3.1909,3.1752,3.0983,3.0383,3.0537,3.0425,3.0571,3.0893,3.0878,3.1167,3.2027,3.2723,3.3372,3.3962,3.4265,3.4583,3.5183,3.5432,3.5364,3.535,3.5355,3.5258,3.4904,3.4641,3.4224,3.3561,3.3095,3.2605,3.1745,3.1214,3.0937,3.0673,3.0314,2.9935,3.002,3.0085,3.017,3.0206,3.0134,2.9845,2.9394,2.9293,2.9166,2.8677,2.8619,2.8594,3.1651,3.1542,3.0779,3.0166,2.9548,2.9588,2.9625,2.9664,2.9701,2.9756,2.9846,2.9825,2.9863,2.9825,2.9844,2.9825,2.9827,2.9825,2.9808,2.9808,2.9859,2.9876,2.9933,3.0007,3.0079,3.0208,3.0978,3.1426,3.1684,3.2286,3.2659,3.2801,3.2891,3.296,3.2987,3.3839,3.4389,3.4613,3.5379,3.5821,3.5879,3.5894,3.5917,3.5968,3.5935,3.5875,3.5878,3.583,3.5727,3.5607,3.5581,3.5489,3.5324,3.5258,3.5174,3.5015,3.4962,3.498,3.5111,3.4442,3.4098,3.4193,3.3654,3.325,3.3128,3.3154,3.2756,3.2004,3.1085,3.0713,3.0513,3.0402,3.0617,3.1287,3.0897,3.1081,3.2328,3.226,3.2195,3.3064,3.329,3.3336,3.3706,3.4197,3.4828,3.5406,3.5533,3.5527,3.5512,3.5502,3.5239,3.457,3.414,3.3927,3.3559,3.2956,3.2449,3.2185,3.2071,3.1694,3.1314,3.0915,3.0633,3.0166,2.9879,2.9632,2.9555,2.9425,2.9447,2.9421,2.9333,2.9222,2.913,2.9112,2.8984,3.0198,3.0142,2.9832,2.9839,3.0015,3.0143,3.0203,3.0183,3.0213,3.0275,3.0376,3.0824,3.0846,3.0471,2.998,3.0,3.0415,2.9945,2.9738,2.9738,2.9774,3.0019,3.0359,3.0034,3.012,3.0625,3.114,3.1657,3.2333,3.3544,3.3727,3.3006,3.3833,3.4217,3.3894,3.4689,3.5214,3.5305,3.5663,3.5864,3.5914,3.5907,3.5915,3.5954,3.5957,3.5958,3.5958,3.5897,3.5813,3.5749,3.5717,3.5649,3.5523,3.5025,3.4962,3.5368,3.5374,3.5387,3.5476,3.4629,3.4403,3.4966,3.4248,3.3796,3.3819,3.3868,3.3481,3.259,3.1719,3.1186,3.1158,3.0791,3.0886,3.159,3.1546,3.1887,3.3031,3.2954,3.3095,3.3916,3.4086,3.43,3.4778,3.5112,3.5178,3.5196,3.5324,3.5621,3.5611,3.5577,3.5407,3.5039,3.4533,3.3857,3.3349,3.2839,3.2352,3.1808,3.126,3.0905,3.0947,3.0665,3.0292,3.0299,2.9982,2.9701,2.9645,2.9551,2.9531,2.9587,2.9492,2.9454,2.9531,2.9453,2.9291,2.9494,2.9659,2.9677,3.0055,3.0683,3.0789,3.0861,3.0869,3.089,3.0939,3.1054,3.1626,3.1766,3.1424,3.0677,3.064,3.107,3.0602,3.0339,3.0339,3.0339,3.0677,3.1125,3.0716,3.079,3.1427,3.1817,3.2416,3.3323,3.4475,3.4563,3.3754,3.476,3.5149,3.4758,3.5334,3.5698,3.5766,3.5775,3.5793,3.585,3.5855,3.589,3.593,3.5976,3.6003,3.6013,3.5947,3.5885,3.5791,3.5795,3.5764,3.5687,3.5097,3.5049,3.5573,3.5456,3.534,3.5359,3.4294,3.3916,3.4468,3.3993,3.3683,3.3766,3.4012,3.3898,3.3329,3.2645,3.2197,3.215,3.1732,3.1735,3.2273,3.2337,3.2725,3.3521,3.3662,3.3999,3.4798,3.4988,3.5227,3.5786,3.587,3.5616,3.5201,3.5438,3.5725,3.5696,3.565,3.5573,3.5345,3.4872,3.4375,3.341,3.2947,3.2441,3.1972,3.1393,3.1131,3.0782,3.0787,3.0761,3.1336,3.0671,3.0297,3.0345,3.0237,3.0261,3.0318,3.0263,3.0113,3.0169,2.9908,2.9664,3.0595,3.1219,3.1274,3.1274,3.1372,3.1427,3.1501,3.1584,3.1616,3.1686,3.1741,3.1853,3.2201,3.2715,3.2135,3.192,3.1939,3.1808,3.1752,3.1755,3.1875,3.205,3.2223,3.2259,3.233,3.2498,3.3102,3.3935,3.4845,3.5032,3.5105,3.5076,3.5149,3.5307,3.5354,3.5463,3.5581,3.5689,3.5708,3.5708,3.5708,3.5772,3.5872,3.5963,3.5996,3.5995,3.6015,3.6005,3.5946,3.5798,3.5814,3.5772,3.5713,3.5648,3.562,3.5582,3.4952,3.4563,3.447,3.3227,3.2388,3.2402,3.2616,3.2273,3.2746,3.3323,3.3659,3.3373,3.3418,3.3309,3.3297,3.2939,3.2964,3.3204,3.3175,3.3522,3.4408,3.4413,3.4959,3.5596,3.5771,3.583,3.5997,3.6017,3.5958,3.5841,3.5884,3.5875,3.5852,3.582,3.5477,3.5066,3.5124,3.5385,3.4395,3.3651,3.3161,3.2798,3.2608,3.2601,3.2673,3.2678,3.2551,3.2286,3.1688,3.1333,3.1248,3.1331,3.1488,3.1493,3.1288,3.1157,3.085,3.0258,3.0091,3.1127,3.1464,3.1953,3.2173,3.2173,3.225,3.2284,3.2318,3.2327,3.2385,3.2508,3.2933,3.3315,3.358,3.3395,3.3017,3.2539,3.2084,3.1886,3.193,3.2016,3.2297,3.2667,3.2302,3.2422,3.2973,3.3354,3.3999,3.4888,3.502,3.5037,3.5089,3.5157,3.5251,3.5355,3.5457,3.5546,3.5626,3.5678,3.5718,3.5747,3.5799,3.5811,3.5864,3.5899,3.5946,3.6005,3.5955,3.5918,3.5932,3.5891,3.5876,3.589,3.5858,3.5567,3.5145,3.5243,3.5386,3.5293,3.4321,3.3924,3.4437,3.3994,3.3843,3.4394,3.4771,3.4953,3.4937,3.4945,3.4966,3.461,3.3555,3.2974,3.3785,3.323,3.3214,3.4267,3.4661,3.48,3.5176,3.56,3.6001,3.602,3.6004,3.6007,3.601,3.5985,3.5951,3.5909,3.5869,3.569,3.5449,3.5546,3.5682,3.5391,3.4497,3.3877,3.3682,3.3495,3.3114,3.2998,3.3128,3.3006,3.3037,3.2574,3.2354,3.2269,3.2312,3.2497,3.2523,3.2355,3.1981,3.1493,3.1236,3.1108,3.2008,3.1935,3.2651,3.2999,3.2973,3.3057,3.3065,3.307,3.3038,3.3073,3.3195,3.3674,3.3895,3.3921,3.3947,3.3688,3.3185,3.2723,3.2553,3.26,3.2646,3.3096,3.3697,3.337,3.3478,3.4073,3.4175,3.4732,3.5608,3.578,3.5666,3.5457,3.5507,3.5441,3.5331,3.5364,3.543,3.5509,3.5601,3.5676,3.5707,3.5757,3.5756,3.5773,3.5842,3.5905,3.5974,3.5919,3.5916,3.5951,3.5915,3.5918,3.5947,3.5958,3.5689,3.5252,3.5342,3.5522,3.5477,3.4726,3.4456,3.5064,3.4881,3.492,3.5462,3.5739,3.5877,3.5898,3.5898,3.5898,3.5526,3.412,3.3527,3.4624,3.4019,3.3806,3.4881,3.5095,3.5153,3.527,3.5655,3.5957,3.6004,3.6007,3.601,3.601,3.601,3.5965,3.5931,3.5927,3.5895,3.5858,3.5825,3.5844,3.569,3.5164,3.4847,3.4686,3.4478,3.3973,3.368,3.3716,3.372,3.3716,3.3595,3.3397,3.3314,3.334,3.3409,3.3503,3.3341,3.3015,3.2709,3.2473,3.2233,3.3385,3.2881,3.3495,3.3917,3.3935,3.3954,3.3862,3.3917,3.3899,3.3972,3.4036,3.3954,3.4072,3.3899,3.4072,3.3907,3.3732,3.3817,3.3813,3.3802,3.3839,3.4439,3.5385,3.5268,3.5421,3.5883,3.6039,3.6458,3.7144,3.7165,3.69,3.6388,3.6197,3.5928,3.5324,3.534,3.5277,3.5441,3.5592,3.5586,3.5528,3.5701,3.5785,3.5718,3.5756,3.5823,3.5903,3.5885,3.5883,3.5888,3.5888,3.5893,3.5918,3.5962,3.5965,3.5804,3.522,3.4817,3.4725,3.414,3.3846,3.4043,3.4355,3.4863,3.5078,3.5527,3.5897,3.5895,3.5894,3.589,3.5773,3.5093,3.4873,3.568,3.5388,3.5306,3.5638,3.5872,3.5974,3.5898,3.5994,3.6007,3.6018,3.601,3.601,3.601,3.601,3.601,3.5988,3.5988,3.5958,3.5927,3.5923,3.5927,3.5899,3.5866,3.5805,3.5717,3.5516,3.5193,3.502,3.4972,3.4883,3.4842,3.4473,3.4275,3.4199,3.4243,3.4461,3.451,3.4299,3.3958,3.3623,3.3307,3.3116,3.5227,3.5044,3.5282,3.5449,3.5514,3.5515,3.5533,3.5514,3.554,3.554,3.5532,3.5514,3.5202,3.4871,3.5202,3.489,3.3899,3.4348,3.4439,3.4031,3.4009,3.4587,3.538,3.5347,3.5676,3.6438,3.6798,3.706,3.7329,3.7387,3.7198,3.6953,3.6482,3.6464,3.6653,3.5755,3.5436,3.6151,3.6329,3.6177,3.5774,3.6226,3.6287,3.5775,3.5716,3.5747,3.5771,3.5807,3.583,3.582,3.5878,3.5888,3.5906,3.5935,3.5917,3.5896,3.5702,3.5506,3.5501,3.5288,3.5052,3.514,3.5372,3.5508,3.5536,3.572,3.5892,3.5892,3.5899,3.5899,3.585,3.5699,3.563,3.5857,3.4931,3.4615,3.5087,3.5096,3.5352,3.5898,3.6015,3.6015,3.601,3.6021,3.601,3.601,3.601,3.601,3.601,3.601,3.601,3.5985,3.5991,3.5991,3.5962,3.5951,3.5923,3.588,3.5833,3.5772,3.5764,3.5752,3.5727,3.5679,3.5325,3.514,3.5079,3.5078,3.5199,3.5268,3.4985,3.4658,3.4312,3.4197,3.4164,3.6142,3.6161,3.619,3.6237,3.6285,3.6305,3.6277,3.6285,3.6292,3.6292,3.6285,3.6285,3.6009,3.5679,3.6083,3.5716,3.4835,3.5293,3.5202,3.4743,3.45,3.5043,3.5938,3.6222,3.6794,3.7598,3.7732,3.7901,3.821,3.8213,3.8083,3.7743,3.7351,3.7202,3.7413,3.654,3.6326,3.6831,3.7072,3.6958,3.6698,3.7073,3.6991,3.6295,3.6151,3.5987,3.5756,3.5737,3.5793,3.5799,3.5838,3.5872,3.586,3.5873,3.5861,3.5884,3.5887,3.5848,3.5892,3.5822,3.588,3.5895,3.5895,3.5875,3.5894,3.5891,3.5885,3.5885,3.5898,3.5878,3.5885,3.5892,3.5897,3.5885,3.5086,3.4594,3.5008,3.5098,3.531,3.5854,3.5986,3.6013,3.6015,3.6003,3.6013,3.601,3.601,3.601,3.601,3.601,3.603,3.603,3.601,3.601,3.601,3.6007,3.6007,3.5951,3.5904,3.5864,3.5827,3.5794,3.5776,3.5948,3.5776,3.5684,3.5628,3.5444,3.5457,3.5495,3.5589,3.5422,3.5224,3.5537,3.5638,3.6271,3.6413,3.6421,3.6494,3.6512,3.656,3.6597,3.6505,3.6541,3.6597,3.656,3.6652,3.6486,3.6395,3.6597,3.6468,3.6285,3.6274,3.6153,3.5889,3.568,3.5943,3.6563,3.748,3.8394,3.9142,3.8771,3.8889,3.9387,3.9471,3.9403,3.8685,3.8504,3.8338,3.7809,3.7505,3.7317,3.7528,3.7731,3.7811,3.769,3.8067,3.7839,3.7015,3.6949,3.6709,3.6198,3.5998,3.5844,3.5793,3.5793,3.5799,3.5813,3.5788,3.5813,3.588,3.583,3.5844,3.5885,3.5872,3.5872,3.5885,3.5885,3.5885,3.5898,3.5866,3.5878,3.5859,3.5898,3.5872,3.5872,3.5878,3.5885,3.5885,3.5665,3.5665,3.584,3.583,3.5833,3.5878,3.5971,3.6015,3.6015,3.601,3.6018,3.601,3.601,3.603,3.6245,3.6303,3.6127,3.6166,3.6323,3.6127,3.6166,3.601,3.6027,3.6063,3.6087,3.6192,3.6119,3.6072,3.6119,3.6258,3.6373,3.627,3.6074,3.5867,3.5809,3.5913,3.599,3.6078,3.6334,3.6642,3.682,3.7326,3.7807,3.7844,3.7844,3.7875,3.7888,3.79,3.7918,3.7998,3.7955,3.8046,3.8065,3.7661,3.7276,3.7771,3.7459,3.6696,3.685,3.6655,3.6271,3.6688,3.6554,3.6666,3.7641,3.864,3.9296,3.932,3.9443,3.9698,3.9722,3.9595,3.9415,3.8915,3.8902,3.9018,3.8035,3.7868,3.8404,3.8556,3.8339,3.8041,3.8638,3.8568,3.7816,3.7803,3.7723,3.7464,3.6964,3.6318,3.5776,3.5718,3.5747,3.5791,3.5799,3.5795,3.5818,3.5803,3.5795,3.5823,3.5823,3.5823,3.5823,3.585,3.583,3.5826,3.5823,3.5823,3.5811,3.5823,3.5815,3.5815,3.583,3.5818,3.5818,3.5896,3.5877,3.5823,3.5826,3.5842,3.5891,3.5908,3.5949,3.5986,3.6015,3.6032,3.6062,3.6074,3.6228,3.6582,3.6638,3.6501,3.6833,3.6911,3.654,3.6284,3.6088,3.6049,3.6147,3.6355,3.6719,3.6649,3.6611,3.6721,3.6865,3.698,3.6961,3.6512,3.6164,3.6237,3.6431,3.6921,3.7269,3.7462,3.7723,3.7747,3.8058,3.8428,3.8446,3.8415,3.8396,3.8446,3.8446,3.8478,3.8528,3.8596,3.8578,3.8578,3.8321,3.7955,3.837,3.8114,3.7363,3.7644,3.7509,3.718,3.7241,3.7382,3.7646,3.8432,3.8971,3.9364,3.9533,3.9602,3.9669,3.9693,3.9698,3.9637,3.9305,3.941,3.9719,3.9077,3.8702,3.922,3.9376,3.9165,3.8875,3.9355,3.9189,3.8661,3.8574,3.8563,3.8187,3.7746,3.6975,3.6017,3.5708,3.5708,3.5757,3.5757,3.5757,3.5745,3.5756,3.5784,3.581,3.5791,3.5791,3.5791,3.5791,3.5799,3.5788,3.5799,3.5807,3.5788,3.5799,3.5799,3.5799,3.5807,3.599,3.6301,3.634,3.6196,3.5877,3.5838,3.5854,3.5878,3.5905,3.5919,3.5955,3.5999,3.6186,3.6328,3.617,3.6558,3.6983,3.6958,3.6911,3.7087,3.697,3.6482,3.644,3.6381,3.6729,3.6811,3.7003,3.7331,3.7581,3.7472,3.7342,3.7498,3.7598,3.7514,3.7043,3.6781,3.6988,3.7346,3.7964,3.8377,3.8517,3.8639,3.867,3.8478,3.8478,3.8478,3.8446,3.8382,3.8401,3.8401,3.8382,3.8415,3.8415,3.8415,3.8382,3.8378,3.8396,3.8423,3.8455,3.8418,3.8314,3.8337,3.8094,3.7967,3.8011,3.884,3.8894,3.9246,3.9514,3.962,3.962,3.9645,3.9693,3.9722,3.9693,3.9724,3.9788,3.987,3.9757,3.9851,3.98,3.9867,3.987,3.9814,4.0003,3.9787,3.9344,3.9304,3.9022,3.8531,3.8105,3.7402,3.5886,3.5822,3.5833,3.5792,3.5715,3.5697,3.5699,3.5708,3.5747,3.5801,3.581,3.5791,3.5791,3.5791,3.5791,3.5799,3.5799,3.5799,3.5799,3.5791,3.5791,3.5829,3.5877,3.6304,3.6848,3.7061,3.6848,3.6304,3.6129,3.6168,3.6168,3.6187,3.617,3.6156,3.6226,3.6484,3.7251,3.7087,3.7362,3.7632,3.7585,3.7304,3.7028,3.6716,3.6245,3.642,3.6671,3.7256,3.7686,3.7917,3.8248,3.8821,3.8736,3.8264,3.8174,3.8463,3.8207,3.756,3.7525,3.7825,3.8274,3.8926,3.9198,3.9391,3.9489,3.9561,3.8401,3.8354,3.8322,3.8289,3.8274,3.8307,3.834,3.8322,3.8368,3.8382,3.8382,3.8382,3.8382,3.8382,3.8415,3.8428,3.851,3.8433,3.8368,3.8473,3.8615,3.8728,3.9053,3.8794,3.8871,3.9383,3.962,3.9645,3.9669,3.9693,3.9703,3.9758,3.9781,3.9845,3.9889,3.9889,3.9889,3.9892,3.9935,3.9956,3.9977,4.008,4.0043,3.9833,3.9957,3.966,3.8942,3.8344,3.7552,3.6807,3.6578,3.6411,3.5919,3.5775,3.5785,3.5805,3.5766,3.5757,3.5775,3.5793,3.5801,3.5791,3.5791,3.5791,3.5791,3.5791,3.5791,3.5791,3.5791,3.581,3.5954,3.6459,3.6925,3.7294,3.778,3.8071,3.7877,3.7819,3.7702,3.7741,3.773,3.7844,3.7809,3.7728,3.7909,3.8151,3.8224,3.8378,3.826,3.8098,3.7565,3.6997,3.697,3.6638,3.6693,3.724,3.8196,3.872,3.8954,3.9146,3.9719,3.9836,3.9302,3.9232,3.9433,3.8951,3.8258,3.8675,3.9052,3.9473,3.9816,4.006,4.0238,4.0341,4.028,3.8368,3.8307,3.8256,3.8189,3.8207,3.8189,3.8189,3.8241,3.8289,3.8322,3.8322,3.8322,3.8303,3.8354,3.8382,3.8478,3.8621,3.8652,3.8695,3.8826,3.897,3.9156,3.9317,3.9032,3.9089,3.9602,3.962,3.9645,3.9645,3.9712,3.9703,3.9758,3.98,3.9845,3.9889,3.9889,3.9889,3.9889,3.9889,3.9889,3.9933,3.9977,4.0081,4.0157,4.0264,4.012,3.9875,3.9475,3.8574,3.7733,3.7366,3.7057,3.643,3.6267,3.6258,3.6299,3.6299,3.6057,3.5912,3.5747,3.5775,3.5801,3.5801,3.5801,3.5791,3.5791,3.5791,3.5791,3.5829,3.5935,3.6362,3.6731,3.7314,3.8285,3.8712,3.914,3.9353,3.8907,3.8382,3.8391,3.8294,3.8313,3.8399,3.8677,3.8875,3.8909,3.8467,3.8541,3.8238,3.8007,3.7399,3.7022,3.719,3.7184,3.7126,3.7828,3.9214,3.9741,4.0129,4.0265,4.0561,4.048,4.0258,4.0134,3.9915,3.9676,3.9234,3.9755,4.0076,4.0343,4.0604,4.0877,4.0918,4.0693,4.0606,3.8409,3.8437,3.8207,3.8158,3.8303,3.8108,3.8054,3.8158,3.8158,3.814,3.814,3.8174,3.8189,3.8274,3.8354,3.8515,3.867,3.8803,3.8815,3.9045,3.9045,3.9283,3.9464,3.9521,3.9614,3.9727,3.9858,3.9883,3.9927,3.997,4.0268,4.0014,3.9985,4.0034,3.9965,3.9889,3.9889,3.9889,3.9889,3.9889,3.9889,3.9911,4.002,4.0139,4.0194,4.03,4.0331,4.0092,3.9581,3.8459,3.8055,3.7698,3.7385,3.6938,3.7038,3.7119,3.7168,3.6792,3.6231,3.5989,3.596,3.5853,3.5803,3.5793,3.5791,3.6004,3.6148,3.6187,3.6304,3.6673,3.7197,3.7644,3.8343,3.9256,3.9723,4.0189,4.0441,3.9606,3.9101,3.8965,3.9198,3.9276,3.9177,3.9271,3.9482,3.9563,3.9129,3.876,3.8525,3.8251,3.789,3.7616,3.7867,3.8212,3.8209,3.8344,3.973,4.0369,4.0876,4.0952,4.1069,4.089,4.0633,4.0356,4.0118,3.9997,4.0012,4.0218,4.0584,4.1018,4.1091,4.1056,4.1013,4.096,4.0913,3.8606,3.915,3.8359,3.8397,3.8885,3.8275,3.8024,3.7952,3.8095,3.797,3.8005,3.802,3.8124,3.8104,3.8207,3.8274,3.8405,3.8559,3.8713,3.8931,3.9036,3.9248,3.9683,3.9789,4.0009,4.0459,4.0666,4.0729,4.0829,4.1293,4.1173,4.0948,4.0858,4.0658,4.0132,3.9889,4.0022,4.0022,3.9946,3.9908,4.0022,3.993,3.9914,4.0039,4.004,4.0139,4.0079,3.9706,3.925,3.908,3.8479,3.8549,3.8523,3.7674,3.7443,3.782,3.7901,3.7486,3.6772,3.6667,3.6377,3.5999,3.5881,3.587,3.6004,3.6459,3.682,3.7042,3.745,3.7974,3.8169,3.8635,3.9217,3.982,4.0266,4.0655,4.0752,4.0538,4.0228,4.013,4.0247,4.0286,4.0062,3.9963,4.0163,4.0322,4.0156,3.9897,3.97,3.9451,3.9175,3.8925,3.8769,3.9139,3.9429,3.9543,4.0127,4.0628,4.1016,4.101,4.1088,4.1088,4.0912,4.0656,4.0652,4.0707,4.0742,4.0734,4.0836,4.107,4.1109,4.1109,4.1067,4.1013,4.0967,3.8663,3.9333,3.8813,3.9102,3.9698,3.9391,3.9229,3.9247,3.9247,3.9012,3.8794,3.8703,3.8484,3.8264,3.8207,3.8307,3.8451,3.8695,3.8873,3.9045,3.9202,3.9634,4.0159,4.0215,4.0703,4.136,4.183,4.1773,4.1537,4.1832,4.1958,4.1744,4.1685,4.1316,4.0696,4.059,4.0552,4.0498,4.0173,4.0135,4.0419,4.0195,3.997,4.0017,4.0038,4.008,4.01,3.989,3.9497,3.9238,3.8819,3.8965,3.9013,3.882,3.8311,3.8697,3.8508,3.7851,3.7022,3.6626,3.6086,3.5873,3.6106,3.6435,3.6666,3.718,3.7732,3.7897,3.8013,3.8596,3.9023,3.9509,3.9858,4.0286,4.0674,4.0849,4.0888,4.0888,4.0888,4.0888,4.0733,4.0655,4.0761,4.076,4.0902,4.1011,4.1033,4.0875,4.0657,4.0333,3.9923,3.9561,3.9313,3.9804,4.0132,4.0303,4.04,4.0845,4.1114,4.1111,4.1108,4.1108,4.1108,4.0991,4.1085,4.1104,4.1065,4.0945,4.1042,4.1101,4.1117,4.1109,4.1081,4.1061,4.1019,3.8753,3.9569,3.93,3.9788,4.0583,4.0474,4.0366,4.0456,4.0384,4.0058,3.9624,3.937,3.8989,3.8567,3.8431,3.8519,3.8879,3.9276,3.9528,3.9881,4.0034,4.0439,4.0872,4.1154,4.1473,4.2262,4.2731,4.2938,4.2468,4.2652,4.2566,4.2448,4.2486,4.2143,4.1524,4.1358,4.1382,4.0988,4.059,4.0552,4.0609,4.0479,4.0201,4.0327,4.0308,4.0406,4.0558,4.0196,3.9905,3.9624,3.9377,3.9342,3.959,3.9576,3.9576,3.9573,3.9057,3.8257,3.7309,3.677,3.6375,3.5814,3.6522,3.6901,3.7336,3.787,3.8694,3.8829,3.8984,3.9256,3.9839,3.9975,4.0266,4.0616,4.083,4.0888,4.0888,4.0888,4.0888,4.0888,4.0888,4.0907,4.0907,4.0945,4.0971,4.0988,4.1006,4.0929,4.0733,4.0574,4.0227,3.9852,3.9813,4.0351,4.0677,4.0823,4.0862,4.0977,4.1111,4.1111,4.1108,4.1108,4.1108,4.1108,4.1108,4.1108,4.1108,4.1108,4.1108,4.1104,4.1097,4.1094,4.109,4.11,4.1086,3.8921,4.0239,3.9535,4.0095,4.1287,4.0744,4.0382,4.0418,4.0509,4.0292,4.0203,3.959,3.9282,3.9045,3.8733,3.9098,3.9681,4.0023,4.0447,4.0999,4.1213,4.1434,4.1822,4.1867,4.2393,4.3031,4.3294,4.3257,4.3257,4.3745,4.3753,4.3356,4.3194,4.2888,4.2233,4.2138,4.1784,4.1325,4.1075,4.0696,4.0344,4.0666,4.0862,4.0919,4.0921,4.0891,4.0844,4.0405,4.0043,4.013,4.0109,4.0128,4.0197,4.0181,4.0265,4.0391,4.0262,3.9765,3.8373,3.7746,3.7138,3.6433,3.6734,3.6978,3.7764,3.8733,3.9772,4.0558,4.0499,4.0422,4.0538,4.0674,4.081,4.083,4.0888,4.0888,4.0888,4.0888,4.0888,4.0888,4.0888,4.0888,4.0907,4.0945,4.0991,4.0988,4.0964,4.0901,4.0818,4.0707,4.068,4.035,4.0212,4.0715,4.0879,4.1071,4.1101,4.1116,4.1116,4.1114,4.1108,4.1108,4.1108,4.1108,4.1108,4.1108,4.1108,4.1108,4.1108,4.1104,4.1101,4.1101,4.1108,4.1117,4.11,4.0059,4.1089,4.0745,4.1252,4.221,4.1938,4.1756,4.1756,4.1756,4.1504,4.1124,4.08,4.0384,3.993,3.969,3.9947,4.0483,4.0726,4.1074,4.1679,4.1941,4.2192,4.2629,4.2787,4.32,4.3745,4.397,4.4045,4.4139,4.4214,4.4252,4.4073,4.3995,4.3683,4.3033,4.2963,4.2843,4.2532,4.2082,4.1396,4.0814,4.0552,4.0517,4.0517,4.0568,4.0634,4.0528,4.0283,4.006,4.0158,4.0176,4.0211,4.0283,4.0317,4.0315,4.0364,4.0431,3.9942,3.9064,3.8528,3.7773,3.7611,3.7865,3.8692,3.9199,3.9791,4.0441,4.081,4.0888,4.0888,4.0888,4.0888,4.0888,4.0888,4.0888,4.0888,4.0888,4.0888,4.0888,4.0888,4.0888,4.0888,4.0888,4.0917,4.0954,4.0991,4.098,4.0957,4.0933,4.0915,4.0948,4.0961,4.0905,4.1012,4.1038,4.111,4.1113,4.1112,4.111,4.1107,4.1114,4.1108,4.1108,4.1108,4.1108,4.1108,4.1108,4.1108,4.1108,4.1104,4.1101,4.1101,4.1101,4.1109,4.1115,4.1396,4.1977,4.1814,4.2176,4.2882,4.29,4.2864,4.2882,4.2828,4.2538,4.2085,4.1741,4.1252,4.0813,4.0716,4.0969,4.152,4.1711,4.2047,4.2343,4.2604,4.3042,4.3426,4.3651,4.3895,4.4496,4.4383,4.4402,4.4439,4.4496,4.4496,4.4496,4.4392,4.4221,4.3871,4.3736,4.3655,4.3334,4.2645,4.1983,4.1491,4.1196,4.0931,4.0798,4.07,4.064,4.0287,4.029,4.0338,4.002,4.006,4.0081,4.0139,4.0177,4.0213,4.0248,4.0336,4.0219,3.959,3.9045,3.8428,3.8459,3.896,3.9526,4.0424,4.0848,4.0888,4.0859,4.0888,4.0898,4.0898,4.0898,4.0888,4.0888,4.0888,4.0888,4.0888,4.0888,4.0888,4.0888,4.0888,4.0888,4.0888,4.0888,4.0917,4.0974,4.0982,4.098,4.0996,4.1018,4.1052,4.111,4.1097,4.1106,4.1113,4.1116,4.1107,4.1112,4.1113,4.1112,4.1103,4.1114,4.1108,4.1108,4.1108,4.1108,4.1108,4.1108,4.1108,4.1104,4.1104,4.1117,4.1113,4.11,4.131,4.2755,4.2755,4.2031,4.2194,4.29,4.29,4.29,4.29,4.29,4.2865,4.2648,4.2122,4.1665,4.1415,4.1549,4.2026,4.3072,4.3146,4.3456,4.3887,4.4299,4.4177,4.4252,4.4271,4.4364,4.4477,4.4496,4.4496,4.4496,4.4496,4.4496,4.4496,4.4496,4.4532,4.4428,4.4277,4.4086,4.3655,4.2937,4.2532,4.2498,4.256,4.2678,4.2337,4.2716,4.2754,4.1237,4.101,4.0726,4.0144,3.9992,3.9954,3.9979,3.9998,4.004,4.0101,4.0213,4.0185,3.9957,3.9561,3.8773,3.8462,3.8854,3.9883,4.0636,4.0773,4.0807,4.0828,4.0858,4.0888,4.0898,4.0888,4.0898,4.0888,4.0888,4.0888,4.0888,4.0888,4.0888,4.0888,4.0966,4.1102,4.1082,4.114,4.0985,4.1003,4.0982,4.0999,4.1003,4.1025,4.1078,4.1104,4.111,4.1114,4.1105,4.1101,4.1108,4.1116,4.1103,4.1113,4.1108,4.1103,4.1108,4.1108,4.1108,4.1108,4.1108,4.1108,4.1108,4.1108,4.1108,4.1101,4.1097,4.1113,4.1554,4.29,4.2864,4.2556,4.2611,4.29,4.29,4.29,4.29,4.29,4.2995,4.3105,4.2813,4.2715,4.2728,4.2788,4.3107,4.3743,4.3791,4.4121,4.4355,4.4496,4.4496,4.4496,4.4496,4.4496,4.4496,4.4496,4.4496,4.4496,4.4496,4.4496,4.4496,4.4496,4.4496,4.4524,4.4551,4.4353,4.4086,4.3511,4.3132,4.305,4.2796,4.2749,4.2526,4.2598,4.2635,4.1916,4.1446,4.1067,4.0688,4.0233,4.0041,3.9946,3.9927,3.9914,3.9998,4.006,4.012,4.0232,4.0082,3.9976,3.9893,4.0043,4.0352,4.072,4.0792,4.0807,4.0818,4.0837,4.0867,4.0927,4.0917,4.0898,4.0898,4.0888,4.0888,4.0966,4.1005,4.1063,4.114,4.1354,4.1548,4.149,4.1432,4.1218,4.1053,4.1012,4.0999,4.1003,4.1032,4.1078,4.1104,4.111,4.111,4.11,4.1106,4.1106,4.1105,4.1104,4.1107,4.1113,4.1099,4.1108,4.1108,4.1108,4.1108,4.1108,4.1108,4.1108,4.1108,4.1108,4.1108,4.1104,4.114,4.1679,4.29,4.29,4.29,4.29,4.29,4.29,4.29,4.29,4.29,4.2995,4.316,4.3214,4.3373,4.3612,4.3693,4.3849,4.4095,4.4202,4.4345,4.444,4.4496,4.4496,4.4496,4.4496,4.4496,4.4496,4.4496,4.4496,4.4496,4.4496,4.4496,4.4496,4.4496,4.4496,4.4496,4.4524,4.4578,4.4463,4.4214,4.3907,4.375,4.3485,4.3005,4.3014,4.318,4.2901,4.2579,4.2166,4.1977,4.1446,4.0896,4.0404,4.0233,4.01,3.9908,3.9911,3.9933,3.9994,4.0099,4.0233,4.0549,4.0327,4.0439,4.059,4.0732,4.08,4.087,4.1199,4.1048,4.0915,4.1091,4.1121,4.1218,4.1296,4.0946,4.0927,4.116,4.1257,4.1335,4.1412,4.1684,4.1995,4.2189,4.2073,4.149,4.1228,4.1002,4.0999,4.1015,4.1045,4.1065,4.1085,4.111,4.111,4.111,4.1103,4.1114,4.11,4.1109,4.1116,4.1112,4.1187,4.1169,4.1108,4.1108,4.1108,4.1127,4.1147,4.1127,4.1108,4.1108,4.1108,4.1283,4.1378,4.18,4.29,4.29,4.29,4.29,4.29,4.29,4.29,4.29,4.29,4.292,4.2995,4.2995,4.3232,4.3545,4.3697,4.3923,4.4218,4.4383,4.4458,4.4458,4.4487,4.4487,4.4496,4.4496,4.4496,4.4496,4.4496,4.4496,4.4496,4.4496,4.4496,4.4496,4.4496,4.4496,4.4496,4.4496,4.4524,4.456,4.4511,4.4508,4.4485,4.4405,4.4033,4.3875,4.4089,4.3767,4.3185,4.3052,4.2844,4.2332,4.1598,4.12,4.1143,4.0555,4.0268,4.0214,4.0247,4.0232,4.0176,4.0076,4.0195,4.0323,4.0419,4.0466,4.0607,4.0752,4.0977,4.1272,4.1257,4.135,4.1429,4.1567,4.1752,4.1781,4.151,4.1471,4.1762,4.1859,4.2015,4.2228,4.2325,4.2461,4.2772,4.2753,4.1956,4.1489,4.1127,4.1027,4.1151,4.1038,4.1085,4.1085,4.111,4.111,4.111,4.111,4.1117,4.1103,4.1237,4.1392,4.152,4.1679,4.1554,4.1311,4.156,4.195,4.1579,4.1186,4.1225,4.1264,4.1127,4.1147,4.1342,4.1635,4.2038,4.29,4.29,4.29,4.29,4.29,4.29,4.29,4.29,4.2938,4.2995,4.3124,4.3178,4.3338,4.3612,4.3679,4.386,4.4097,4.4158,4.4237,4.443,4.4458,4.4487,4.4468,4.4468,4.4496,4.4496,4.4496,4.4496,4.4496,4.4496,4.4496,4.4496,4.4496,4.4496,4.4496,4.4496,4.4496,4.4524,4.4578,4.4605,4.4632,4.4693,4.4612,4.4336,4.4638,4.4417,4.3837,4.3875,4.3496,4.3142,4.2423,4.201,4.1996,4.1461,4.1442,4.1461,4.1551,4.1608,4.1437,4.1206,4.0591,4.0482,4.0379,4.0447,4.0549,4.0607,4.0887,4.1306,4.1575,4.1765,4.1964,4.2518,4.281,4.2918,4.2811,4.2811,4.2947,4.2908,4.2986,4.3258,4.3433,4.3724,4.4035,4.3646,4.2889,4.2277,4.1935,4.1707,4.1735,4.1279,4.111,4.111,4.111,4.111,4.111,4.111,4.1245,4.134,4.167,4.2048,4.2168,4.2285,4.2536,4.2568,4.2717,4.2809,4.2477,4.2109,4.1599,4.142,4.154,4.1615,4.183,4.2025,4.2197,4.2824,4.2806,4.2862,4.2862,4.2862,4.29,4.29,4.29,4.29,4.2976,4.3124,4.3178,4.3267,4.3477,4.3612,4.3763,4.3992,4.4085,4.4147,4.4373,4.4354,4.4383,4.444,4.4468,4.4468,4.4468,4.4496,4.4496,4.4496,4.4496,4.4496,4.4496,4.4496,4.4496,4.4496,4.4496,4.4496,4.4515,4.4542,4.457,4.4578,4.4632,4.4685,4.4655,4.4719,4.4643,4.4575,4.4336,4.3977,4.3756,4.3345,4.282,4.2787,4.2579,4.2446,4.237,4.237,4.2356,4.2128,4.1958,4.1442,4.1206,4.0864,4.0762,4.088,4.1043,4.1585,4.1967,4.2067,4.2453,4.2916,4.3509,4.3544,4.3663,4.3665,4.3645,4.383,4.3791,4.3704,4.4035,4.4307,4.4734,4.5045,4.4501,4.386,4.3316,4.281,4.2574,4.226,4.1668,4.1299,4.1338,4.126,4.1221,4.1182,4.111,4.127,4.153,4.2048,4.2628,4.2908,4.3061,4.3457,4.3727,4.3528,4.3386,4.3423,4.3127,4.2636,4.238,4.236,4.2415,4.2435,4.2533,4.2685,4.2706,4.2649,4.2745,4.2783,4.2822,4.288,4.29,4.29,4.29,4.292,4.292,4.2957,4.3105,4.3268,4.3513,4.3716,4.3897,4.4116,4.4226,4.4304,4.4304,4.4362,4.4373,4.4383,4.4411,4.4487,4.4487,4.4487,4.4496,4.4496,4.4496,4.4496,4.4496,4.4496,4.4496,4.4496,4.4496,4.4515,4.4515,4.4542,4.4524,4.4551,4.4605,4.4632,4.4659,4.464,4.4629,4.4561,4.4587,4.4405,4.4033,4.3756,4.3377,4.2896,4.2588,4.2475,4.2612,4.2711,4.2754,4.2697,4.2427,4.2199,4.1867,4.1666,4.1608,4.1716,4.2206,4.2675,4.2907,4.3472,4.4023,4.4001,4.3995,4.4032,4.4059,4.4245,4.4528,4.4538,4.4423,4.4559,4.4812,4.5161,4.553,4.522,4.4695,4.4453,4.3928,4.3402,4.2933,4.1894,4.1643,4.1753,4.1643,4.1377,4.1377,4.1701,4.1922,4.2382,4.2733,4.3227,4.3517,4.3928,4.4368,4.4491,4.4081,4.3922,4.4038,4.3954,4.3696,4.3459,4.3088,4.3258,4.3277,4.3274,4.3447,4.2649,4.2609,4.2667,4.2706,4.2822,4.2862,4.29,4.29,4.29,4.2975,4.3123,4.3123,4.3196,4.341,4.3479,4.3667,4.3786,4.3915,4.4092,4.4153,4.4214,4.4255,4.4314,4.4344,4.4373,4.443,4.4458,4.4458,4.4487,4.4515,4.4496,4.4496,4.4496,4.4496,4.4496,4.4496,4.4496,4.4496,4.4496,4.4496,4.4496,4.4524,4.4551,4.4578,4.4597,4.4605,4.4632,4.4632,4.4659,4.4527,4.4485,4.4379,4.4341,4.4159,4.4046,4.4077,4.4164,4.4194,4.408,4.3596,4.325,4.325,4.3019,4.2696,4.2522,4.2508,4.2851,4.3267,4.3618,4.4048,4.4549,4.4684,4.4776,4.4873,4.489,4.5029,4.5273,4.5257,4.5161,4.52,4.5433,4.5491,4.588,4.5822,4.5356,4.5327,4.5026,4.4404,4.3644,4.2626,4.2174,4.2303,4.2264,4.2096,4.2556,4.2926,4.3031,4.3252,4.3552,4.3948,4.4448,4.489,4.5304,4.5351,4.5058,4.4844,4.4707,4.4607,4.4544,4.3954,4.3603,4.3888,4.4097,4.4055,4.4309,4.253,4.249,4.2548,4.2667,4.2783,4.288,4.29,4.29,4.29,4.2975,4.3087,4.316,4.3268,4.3393,4.3532,4.3686,4.3786,4.3915,4.4011,4.4073,4.4153,4.4214,4.4226,4.4255,4.4285,4.4344,4.4401,4.4411,4.444,4.4487,4.4496,4.4496,4.4496,4.4496,4.4496,4.4496,4.4496,4.4496,4.4496,4.4496,4.4496,4.4496,4.4524,4.4524,4.4515,4.4542,4.4551,4.4551,4.4578,4.456,4.4659,4.4659,4.464,4.4621,4.4629,4.4631,4.4638,4.4644,4.455,4.4298,4.4084,4.4027,4.4008,4.3818,4.3544,4.339,4.3673,4.3963,4.4186,4.4492,4.4993,4.5432,4.5647,4.5841,4.5879,4.5902,4.5944,4.5947,4.5938,4.5919,4.5938,4.5919,4.5977,4.5977,4.5822,4.5424,4.5269,4.5104,4.4365,4.3478,4.3078,4.3086,4.3027,4.293,4.3475,4.3875,4.3884,4.395,4.4211,4.4666,4.5285,4.5612,4.5792,4.5996,4.6133,4.582,4.541,4.5488,4.5371,4.4782,4.4505,4.4909,4.4998,4.4699,4.5129,4.2405,4.2346,4.2445,4.2606,4.2783,4.2862,4.29,4.29,4.29,4.292,4.2975,4.3123,4.3232,4.3358,4.3618,4.3753,4.3818,4.3897,4.3992,4.4005,4.4055,4.4085,4.4153,4.4184,4.4226,4.4285,4.4373,4.4383,4.4411,4.4468,4.4496,4.4515,4.4496,4.4496,4.4496,4.4496,4.4496,4.4496,4.4496,4.4496,4.4496,4.4496,4.4496,4.4496,4.4515,4.4496,4.4496,4.4496,4.4542,4.4551,4.4578,4.4597,4.4597,4.4605,4.4659,4.4685,4.4693,4.4738,4.4738,4.4561,4.4599,4.4572,4.4674,4.4485,4.4191,4.4052,4.4252,4.4454,4.4672,4.4876,4.5305,4.5519,4.5713,4.586,4.5899,4.5937,4.5941,4.5975,4.5997,4.5977,4.5977,4.5977,4.5977,4.5977,4.5919,4.5433,4.5356,4.5463,4.5143,4.4307,4.4102,4.3975,4.3808,4.3828,4.4189,4.45,4.4528,4.4654,4.4887,4.5215,4.5698,4.5988,4.6201,4.625,4.6269,4.6289,4.6094,4.6035,4.5976,4.5878,4.5759,4.6063,4.5938,4.5444,4.5578,4.2328,4.2328,4.2508,4.2667,4.2783,4.2862,4.29,4.29,4.29,4.3049,4.3142,4.3214,4.3268,4.3463,4.3686,4.3804,4.3851,4.3929,4.3974,4.4005,4.4005,4.4023,4.4055,4.4104,4.4153,4.4226,4.4266,4.4589,4.4721,4.4655,4.4571,4.459,4.4665,4.4749,4.4627,4.4608,4.4627,4.4533,4.4496,4.4496,4.4496,4.4496,4.4496,4.4496,4.4496,4.4496,4.4496,4.4496,4.4496,4.4524,4.4542,4.4542,4.4542,4.4578,4.4605,4.4632,4.4659,4.4685,4.4685,4.4659,4.4632,4.4632,4.4632,4.4632,4.4591,4.4613,4.4702,4.4893,4.5084,4.5285,4.547,4.5613,4.5731,4.5805,4.5874,4.5899,4.5917,4.5964,4.5997,4.5977,4.5977,4.5977,4.5977,4.5958,4.588,4.5841,4.5841,4.5871,4.5813,4.5337,4.5201,4.5036,4.4676,4.4696,4.5007,4.5143,4.5152,4.5317,4.555,4.586,4.6102,4.6162,4.6222,4.6236,4.625,4.6269,4.6289,4.6269,4.625,4.6289,4.6289,4.6305,4.6297,4.5922,4.6033,4.2665,4.2951,4.3149,4.3268,4.3292,4.3025,4.3157,4.3522,4.356,4.3889,4.4163,4.3652,4.3339,4.3618,4.3771,4.3851,4.3865,4.3942,4.4005,4.4005,4.4005,4.4005,4.4005,4.4061,4.4457,4.4624,4.5268,4.5581,4.5462,4.5651,4.5688,4.5547,4.5519,4.535,4.5153,4.5021,4.4871,4.4533,4.459,4.4571,4.4571,4.4515,4.4515,4.4496,4.4496,4.4496,4.4496,4.4496,4.4496,4.4496,4.4515,4.4515,4.4515,4.4542,4.457,4.4551,4.4578,4.4605,4.4605,4.4605,4.4605,4.4605,4.4651,4.4659,4.4685,4.4688,4.4811,4.4985,4.5099,4.5304,4.5455,4.5582,4.5632,4.5696,4.5805,4.586,4.5925,4.5975,4.5997,4.5977,4.5977,4.5977,4.5977,4.5977,4.5938,4.5938,4.5977,4.5977,4.5977,4.5977,4.5977,4.591,4.5415,4.5337,4.557,4.5687,4.5765,4.5969,4.6076,4.6095,4.6113,4.6166,4.6215,4.6209,4.6221,4.6269,4.6269,4.6269,4.6289,4.6289,4.6289,4.6289,4.6305,4.63,4.6295,4.3059,4.38,4.3808,4.3884,4.3924,4.3371,4.3521,4.4217,4.4364,4.4856,4.5259,4.3888,4.3608,4.3815,4.3837,4.3897,4.3974,4.4085,4.4085,4.4085,4.4067,4.4067,4.4141,4.4253,4.4892,4.5587,4.624,4.6566,4.6674,4.6684,4.6684,4.6955,4.6832,4.6607,4.6092,4.581,4.5641,4.5303,4.5153,4.4909,4.474,4.4533,4.4515,4.4496,4.4496,4.4496,4.4496,4.4496,4.4496,4.4496,4.4496,4.4496,4.4496,4.4542,4.4515,4.4542,4.4524,4.4551,4.4551,4.4578,4.4605,4.4632,4.4685,4.4712,4.4693,4.4796,4.4919,4.4995,4.5094,4.5222,4.54,4.5513,4.5547,4.5651,4.5731,4.5824,4.5899,4.5983,4.5986,4.5997,4.5997,4.5997,4.5997,4.5997,4.5977,4.5977,4.5977,4.5977,4.5977,4.5977,4.5977,4.5977,4.5774,4.5852,4.5977,4.6007,4.6007,4.6007,4.6047,4.6056,4.6095,4.6141,4.6177,4.6181,4.6209,4.6225,4.6248,4.625,4.6269,4.6289,4.6289,4.6289,4.6289,4.6306,4.6301,4.3116,4.3899,4.3307,4.34,4.3987,4.3883,4.3975,4.4158,4.434,4.4644,4.4726,4.4209,4.391,4.4586,4.4119,4.4023,4.4036,4.4147,4.4226,4.4255,4.4207,4.4207,4.4449,4.4916,4.5742,4.6457,4.6955,4.6948,4.7451,4.7293,4.7068,4.7199,4.7124,4.6982,4.6899,4.6692,4.6599,4.6261,4.6129,4.6017,4.5266,4.4965,4.4552,4.4496,4.4496,4.4496,4.4496,4.4496,4.4496,4.4496,4.4496,4.4496,4.4496,4.4524,4.4542,4.4542,4.4524,4.4551,4.4597,4.4605,4.4632,4.4685,4.4738,4.4738,4.4745,4.4821,4.4895,4.487,4.4976,4.5135,4.5281,4.5341,4.5419,4.5584,4.5703,4.5765,4.5838,4.5932,4.6003,4.5994,4.6005,4.5986,4.5997,4.5997,4.5977,4.5977,4.5977,4.5977,4.5977,4.5977,4.5977,4.5977,4.5977,4.5977,4.5977,4.5977,4.6007,4.5997,4.6007,4.6047,4.6076,4.6105,4.6123,4.6158,4.6174,4.619,4.6211,4.6214,4.623,4.625,4.6289,4.6289,4.6289,4.6289,4.6289]},{"header":{"parameterUnit":"m.s-1","parameterCategory":1,"la1":31.0,"la2":29.5877,"lo1":-88.7671,"lo2":-86.6584,"dy":0.0162,"dx":0.0185,"nx":115,"ny":88,"refTime":"2023-03-01T18:00:00:Z","depth":0,"parameterNumber":3,"parameterNumberName":"V-component_of_WINDS"},"data":[0.0,0.0,0.0,0.0,0.0,0.0,0.0,0.0,0.0,0.0,0.0,0.0,0.0,0.0,0.0,0.0,0.0,0.0,0.0,0.0,0.0,0.0,0.0,0.0,0.0,0.0,0.0,0.0,0.0,0.0,0.0,0.0,0.0,0.0,0.0,0.0,0.0,0.0,0.0,0.0,0.0,0.0,0.0,0.0,0.0,0.0,0.0,0.0,0.0,0.0,0.0,0.0,0.0,0.0,0.0,0.0,0.0,0.0,0.0,0.0,0.0,0.0,0.0,0.0,0.0,0.0,0.0,0.0,0.0,0.0,0.0,0.0,0.0,0.0,0.0,0.0,0.0,0.0,0.0,0.0,0.0,0.0,0.0,0.0,0.0,0.0,0.0,0.0,0.0,0.0,0.0,0.0,0.0,0.0,0.0,0.0,0.0,0.0,0.0,0.0,0.0,0.0,0.0,0.0,0.0,0.0,0.0,0.0,0.0,0.0,0.0,0.0,0.0,0.0,0.0,0.0,0.0,0.0,0.0,0.0,0.0,0.0,0.0,0.0,0.0,0.0,0.0,0.0,0.0,0.0,0.0,0.0,0.0,0.0,0.0,0.0,0.0,0.0,0.0,0.0,0.0,0.0,0.0,0.0,0.0,0.0,0.0,0.0,0.0,0.0,0.0,0.0,0.0,0.0,0.0,0.0,0.0,0.0,0.0,0.0,0.0,0.0,0.0,0.0,0.0,0.0,0.0,0.0,0.0,0.0,0.0,0.0,0.0,0.0,0.0,0.0,0.0,0.0,0.0,0.0,0.0,0.0,0.0,0.0,0.0,0.0,0.0,0.0,0.0,0.0,0.0,0.0,0.0,0.0,0.0,0.0,0.0,0.0,0.0,0.0,0.0,0.0,0.0,0.0,0.0,0.0,0.0,0.0,0.0,0.0,0.0,0.0,0.0,0.0,0.0,0.0,0.0,0.0,0.0,0.0,0.0,0.0,0.0,0.0,0.0,0.0,0.0,0.0,0.0,0.0,0.0,0.0,0.0,0.0,0.0,0.0,0.0,0.0,0.0,0.0,0.0,0.0,0.0,0.0,0.0,0.0,0.0,0.0,0.0,0.0,0.0,0.0,0.0,0.0,0.0,0.0,0.0,0.0,0.0,0.0,0.0,0.0,0.0,0.0,0.0,0.0,0.0,0.0,0.0,0.0,0.0,0.0,0.0,0.0,0.0,0.0,0.0,0.0,0.0,0.0,0.0,0.0,0.0,0.0,0.0,0.0,0.0,0.0,0.0,0.0,0.0,0.0,0.0,0.0,0.0,0.0,0.0,0.0,0.0,0.0,0.0,0.0,0.0,0.0,0.0,0.0,0.0,0.0,0.0,0.0,0.0,0.0,0.0,0.0,0.0,0.0,0.0,0.0,0.0,0.0,0.0,0.0,0.0,0.0,0.0,0.0,0.0,0.0,0.0,0.0,0.0,0.0,0.0,0.0,0.0,0.0,0.0,0.0,0.0,0.0,0.0,0.0,0.0,0.0,0.0,0.0,0.0,0.0,0.0,0.0,0.0,0.0,0.0,0.0,0.0,0.0,0.0,0.0,0.0,0.0,0.0,0.0,0.0,0.0,0.0,0.0,0.0,0.0,0.0,0.0,0.0,0.0,0.0,0.0,0.0,0.0,0.0,0.0,0.0,0.0,0.0,0.0,0.0,0.0,0.0,0.0,0.0,0.0,0.0,0.0,0.0,0.0,0.0,0.0,0.0,0.0,0.0,0.0,0.0,0.0,0.0,0.0,0.0,0.0,0.0,0.0,0.0,0.0,0.0,0.0,0.0,0.0,0.0,0.0,0.0,0.0,0.0,0.0,0.0,0.0,0.0,0.0,0.0,0.0,0.0,0.0,0.0,0.0,0.0,0.0,0.0,0.0,0.0,0.0,0.0,0.0,0.0,0.0,0.0,0.0,0.0,0.0,0.0,0.0,0.0,0.0,0.0,0.0,0.0,0.0,0.0,0.0,0.0,0.0,0.0,0.0,0.0,0.0,0.0,0.0,0.0,0.0,0.0,0.0,0.0,0.0,0.0,0.0,0.0,0.0,0.0,0.0,0.0,0.0,0.0,0.0,0.0,0.0,0.0,0.0,0.0,0.0,0.0,0.0,0.0,0.0,0.0,0.0,0.0,0.0,0.0,0.0,0.0,0.0,0.0,0.0,0.0,0.0,0.0,0.0,0.0,0.0,0.0,0.0,0.0,0.0,0.0,0.0,0.0,0.0,0.0,0.0,0.0,0.0,0.0,0.0,0.0,0.0,0.0,0.0,0.0,0.0,0.0,0.0,0.0,0.0,0.0,0.0,0.0,0.0,0.0,0.0,0.0,0.0,0.0,0.0,0.0,0.0,0.0,0.0,0.0,0.0,0.0,0.0,0.0,0.0,0.0,0.0,0.0,0.0,0.0,0.0,0.0,0.0,0.0,0.0,0.0,0.0,0.0,0.0,0.0,0.0,0.0,0.0,0.0,0.0,0.0,0.0,0.0,0.0,0.0,0.0,0.0,0.0,0.0,0.0,0.0,0.0,0.0,0.0,0.0,0.0,0.0,0.0,0.0,0.0,0.0,0.0,0.0,0.0,0.0,0.0,0.0,0.0,0.0,0.0,0.0,0.0,0.0,0.0,0.0,0.0,0.0,0.0,0.0,0.0,0.0,0.0,0.0,0.0,0.0,0.0,0.0,0.0,0.0,0.0,0.0,0.0,0.0,0.0,0.0,0.0,0.0,0.0,0.0,0.0,0.0,0.0,0.0,0.0,0.0,0.0,0.0,0.0,0.0,0.0,0.0,0.0,0.0,0.0,0.0,0.0,0.0,0.0,0.0,0.0,0.0,0.0,0.0,0.0,0.0,0.0,0.0,0.0,0.0,0.0,0.0,0.0,0.0,0.0,0.0,0.0,0.0,0.0,0.0,0.0,0.0,0.0,0.0,0.0,0.0,0.0,0.0,0.0,0.0,0.0,0.0,0.0,0.0,0.0,0.0,0.0,0.0,0.0,0.0,0.0,0.0,0.0,0.0,0.0,0.0,0.0,0.0,0.0,0.0,0.0,0.0,0.0,0.0,0.0,0.0,0.0,0.0,0.0,0.0,0.0,0.0,0.0,0.0,0.0,0.0,0.0,0.0,0.0,0.0,0.0,0.0,0.0,0.0,0.0,0.0,0.0,0.0,0.0,0.0,0.0,0.0,0.0,0.0,0.0,0.0,0.0,0.0,0.0,0.0,0.0,0.0,0.0,0.0,0.0,0.0,0.0,0.0,0.0,0.0,0.0,0.0,0.0,0.0,0.0,0.0,0.0,0.0,0.0,0.0,0.0,0.0,0.0,0.0,0.0,0.0,0.0,0.0,0.0,0.0,0.0,0.0,0.0,0.0,0.0,0.0,0.0,0.0,0.0,0.0,0.0,0.0,0.0,0.0,0.0,0.0,0.0,0.0,0.0,0.0,0.0,0.0,0.0,0.0,0.0,0.0,0.0,0.0,0.0,0.0,0.0,0.0,0.0,0.0,0.0,0.0,0.0,0.0,0.0,0.0,0.0,0.0,0.0,0.0,0.0,0.0,0.0,0.0,0.0,0.0,0.0,0.0,0.0,0.0,0.0,0.0,0.0,0.0,0.0,0.0,0.0,0.0,0.0,0.0,0.0,0.0,0.0,0.0,0.0,0.0,0.0,0.0,0.0,0.0,0.0,0.0,0.0,0.0,0.0,0.0,0.0,0.0,0.0,0.0,0.0,0.0,0.0,0.0,0.0,0.0,0.0,0.0,0.0,0.0,0.0,0.0,0.0,0.0,0.0,0.0,0.0,0.0,0.0,0.0,0.0,0.0,0.0,0.0,0.0,0.0,0.0,0.0,0.0,0.0,0.0,0.0,0.0,0.0,0.0,0.0,0.0,0.0,0.0,0.0,0.0,0.0,0.0,0.0,0.0,0.0,0.0,0.0,0.0,0.0,0.0,0.0,0.0,0.0,0.0,0.0,0.0,0.0,0.0,0.0,0.0,0.0,0.0,0.0,0.0,0.0,0.0,0.0,0.0,0.0,0.0,0.0,0.0,0.0,0.0,0.0,0.0,0.0,0.0,0.0,0.0,0.0,0.0,0.0,0.0,0.0,0.0,0.0,0.0,0.0,0.0,0.0,0.0,0.0,0.0,0.0,0.0,0.0,0.0,0.0,0.0,0.0,0.0,0.0,0.0,0.0,0.0,0.0,0.0,0.0,0.0,0.0,0.0,0.0,0.0,0.0,0.0,-1.2891,0.0,0.0,0.0,0.0,0.0,0.0,0.0,0.0,0.0,0.0,0.0,0.0,0.0,0.0,0.0,0.0,0.0,0.0,0.0,0.0,0.0,0.0,0.0,0.0,0.0,0.0,0.0,0.0,0.0,0.0,0.0,0.0,0.0,0.0,0.0,0.0,0.0,0.0,0.0,0.0,0.0,0.0,0.0,0.0,0.0,0.0,0.0,0.0,0.0,0.0,0.0,0.0,0.0,0.0,0.0,0.0,0.0,0.0,0.0,0.0,0.0,0.0,0.0,0.0,0.0,0.0,0.0,0.0,0.0,0.0,0.0,0.0,0.0,0.0,0.0,0.0,0.0,0.0,0.0,0.0,0.0,0.0,0.0,0.0,0.0,0.0,0.0,0.0,0.0,0.0,0.0,0.0,0.0,0.0,0.0,0.0,0.0,0.0,0.0,0.0,0.0,0.0,0.0,0.0,0.0,0.0,0.0,0.0,0.0,0.0,-1.2891,-1.2891,-1.2891,-1.2891,-1.2891,0.0,0.0,0.0,0.0,0.0,0.0,0.0,0.0,0.0,0.0,0.0,0.0,0.0,0.0,0.0,0.0,0.0,0.0,0.0,0.0,0.0,0.0,0.0,0.0,0.0,0.0,0.0,0.0,0.0,0.0,0.0,0.0,0.0,0.0,0.0,0.0,0.0,0.0,0.0,0.0,0.0,0.0,0.0,0.0,0.0,0.0,0.0,0.0,0.0,0.0,0.0,0.0,0.0,0.0,0.0,0.0,0.0,0.0,0.0,0.0,0.0,0.0,0.0,0.0,0.0,0.0,0.0,0.0,0.0,0.0,0.0,0.0,0.0,0.0,0.0,0.0,0.0,0.0,0.0,0.0,0.0,0.0,0.0,0.0,0.0,0.0,0.0,0.0,0.0,0.0,0.0,0.0,0.0,0.0,0.0,0.0,0.0,0.0,0.0,0.0,0.0,0.0,0.0,0.0,0.0,0.0,0.0,0.0,0.0,0.0,0.0,0.0,-1.2891,-1.2891,-1.2891,0.0,0.0,0.0,0.0,0.0,0.0,0.0,0.0,0.0,0.0,0.0,0.0,0.0,0.0,0.0,0.0,0.0,0.0,0.0,0.0,0.0,0.0,0.0,0.0,0.0,0.0,0.0,0.0,0.0,0.0,0.0,0.0,0.0,0.0,0.0,0.0,0.0,0.0,0.0,0.0,0.0,0.0,0.0,0.0,0.0,0.0,0.0,0.0,0.0,0.0,0.0,0.0,0.0,0.0,0.0,0.0,0.0,0.0,0.0,0.0,0.0,0.0,0.0,0.0,0.0,0.0,0.0,0.0,0.0,0.0,0.0,0.0,0.0,0.0,0.0,0.0,0.0,0.0,0.0,0.0,0.0,0.0,0.0,0.0,0.0,0.0,0.0,0.0,0.0,0.0,0.0,0.0,0.0,0.0,0.0,0.0,0.0,0.0,0.0,0.0,0.0,0.0,0.0,0.0,0.0,0.0,0.0,0.0,0.0,0.0,-1.2891,-1.2891,-1.2891,0.0,-1.2929,0.0,0.0,0.0,0.0,0.0,0.0,0.0,0.0,0.0,0.0,0.0,0.0,0.0,0.0,0.0,0.0,0.0,0.0,0.0,0.0,0.0,0.0,0.0,0.0,0.0,0.0,0.0,0.0,0.0,0.0,0.0,0.0,0.0,0.0,0.0,0.0,0.0,0.0,0.0,0.0,0.0,0.0,0.0,0.0,0.0,0.0,0.0,0.0,0.0,0.0,0.0,0.0,0.0,0.0,0.0,0.0,0.0,0.0,0.0,0.0,0.0,0.0,0.0,0.0,0.0,0.0,0.0,0.0,0.0,0.0,0.0,0.0,0.0,0.0,0.0,0.0,0.0,0.0,0.0,0.0,0.0,0.0,0.0,0.0,0.0,0.0,0.0,0.0,0.0,0.0,0.0,0.0,0.0,0.0,0.0,0.0,0.0,0.0,0.0,0.0,0.0,0.0,0.0,0.0,0.0,0.0,0.0,0.0,0.0,0.0,-1.2891,-1.2891,-1.2891,-1.2968,0.0,0.0,0.0,0.0,0.0,0.0,0.0,0.0,0.0,0.0,0.0,0.0,0.0,0.0,0.0,0.0,0.0,0.0,0.0,0.0,0.0,0.0,0.0,0.0,0.0,0.0,0.0,0.0,0.0,0.0,0.0,0.0,0.0,0.0,0.0,0.0,0.0,0.0,0.0,0.0,0.0,0.0,0.0,0.0,0.0,0.0,0.0,0.0,0.0,0.0,0.0,0.0,0.0,0.0,0.0,0.0,0.0,0.0,0.0,0.0,0.0,0.0,0.0,0.0,0.0,0.0,0.0,0.0,0.0,0.0,0.0,0.0,0.0,0.0,0.0,0.0,0.0,0.0,0.0,0.0,0.0,0.0,0.0,0.0,0.0,0.0,0.0,0.0,0.0,0.0,0.0,0.0,0.0,0.0,0.0,0.0,0.0,0.0,0.0,0.0,0.0,0.0,0.0,0.0,0.0,0.0,0.0,0.0,0.0,0.0,-1.2891,-1.2891,-1.2891,-1.2891,-1.3017,-1.3238,0.0,0.0,0.0,0.0,0.0,0.0,0.0,0.0,0.0,0.0,0.0,0.0,0.0,0.0,0.0,0.0,0.0,0.0,0.0,0.0,0.0,0.0,0.0,0.0,0.0,0.0,0.0,0.0,0.0,0.0,0.0,0.0,0.0,0.0,0.0,0.0,0.0,0.0,0.0,0.0,0.0,0.0,0.0,0.0,0.0,0.0,0.0,0.0,0.0,0.0,0.0,0.0,0.0,0.0,0.0,0.0,0.0,0.0,0.0,0.0,0.0,0.0,0.0,0.0,0.0,0.0,0.0,0.0,0.0,0.0,0.0,0.0,0.0,0.0,0.0,0.0,0.0,0.0,0.0,0.0,0.0,0.0,0.0,0.0,0.0,0.0,0.0,0.0,0.0,0.0,0.0,0.0,0.0,0.0,0.0,0.0,0.0,0.0,0.0,0.0,0.0,0.0,0.0,0.0,0.0,0.0,0.0,0.0,-1.2891,-1.2891,-1.2891,-1.2891,-1.2891,-1.2929,0.0,0.0,0.0,0.0,0.0,0.0,0.0,0.0,0.0,0.0,0.0,0.0,0.0,0.0,0.0,0.0,0.0,0.0,0.0,0.0,0.0,0.0,0.0,0.0,0.0,0.0,0.0,0.0,0.0,0.0,0.0,0.0,0.0,0.0,0.0,0.0,0.0,0.0,0.0,0.0,0.0,0.0,0.0,0.0,0.0,0.0,0.0,0.0,0.0,0.0,0.0,0.0,0.0,0.0,0.0,0.0,0.0,0.0,0.0,0.0,0.0,0.0,0.0,0.0,0.0,0.0,0.0,0.0,0.0,0.0,0.0,0.0,0.0,0.0,0.0,0.0,0.0,0.0,0.0,0.0,0.0,0.0,0.0,0.0,0.0,0.0,0.0,0.0,0.0,0.0,0.0,0.0,0.0,0.0,0.0,0.0,0.0,0.0,0.0,0.0,0.0,0.0,0.0,0.0,0.0,0.0,0.0,0.0,0.0,-1.2891,-1.2891,-1.2891,-1.2891,-1.2891,-1.3104,0.0,0.0,0.0,0.0,0.0,0.0,0.0,0.0,0.0,0.0,0.0,0.0,0.0,0.0,0.0,0.0,0.0,0.0,0.0,0.0,0.0,0.0,0.0,0.0,0.0,0.0,0.0,0.0,0.0,0.0,0.0,0.0,0.0,0.0,0.0,0.0,0.0,0.0,0.0,0.0,0.0,0.0,0.0,0.0,0.0,0.0,0.0,0.0,0.0,0.0,0.0,0.0,0.0,0.0,0.0,0.0,0.0,0.0,0.0,0.0,0.0,0.0,0.0,0.0,0.0,0.0,0.0,0.0,0.0,0.0,0.0,0.0,0.0,0.0,0.0,0.0,0.0,0.0,0.0,0.0,0.0,0.0,0.0,0.0,0.0,0.0,0.0,0.0,0.0,0.0,0.0,0.0,0.0,0.0,0.0,0.0,0.0,0.0,0.0,0.0,0.0,0.0,0.0,0.0,0.0,0.0,0.0,0.0,0.0,-1.2891,0.0,-1.2891,0.0,-1.2891,-1.32,0.0,0.0,0.0,0.0,0.0,0.0,0.0,0.0,0.0,0.0,0.0,0.0,0.0,0.0,0.0,0.0,0.0,0.0,0.0,0.0,0.0,0.0,0.0,0.0,0.0,0.0,0.0,0.0,0.0,0.0,0.0,0.0,0.0,0.0,0.0,0.0,0.0,0.0,0.0,0.0,0.0,0.0,0.0,0.0,0.0,0.0,0.0,0.0,0.0,0.0,0.0,0.0,0.0,0.0,0.0,0.0,0.0,0.0,0.0,0.0,0.0,0.0,0.0,0.0,0.0,0.0,0.0,0.0,0.0,0.0,0.0,0.0,0.0,0.0,0.0,0.0,0.0,0.0,0.0,0.0,0.0,0.0,0.0,0.0,0.0,0.0,0.0,0.0,0.0,0.0,0.0,0.0,0.0,0.0,0.0,0.0,0.0,0.0,0.0,0.0,0.0,0.0,0.0,0.0,0.0,0.0,0.0,0.0,-1.2871,-1.2871,-1.2852,-1.2861,-1.2929,-1.2881,-1.3065,0.0,0.0,0.0,0.0,0.0,0.0,0.0,0.0,0.0,0.0,0.0,0.0,0.0,0.0,0.0,0.0,0.0,0.0,0.0,0.0,0.0,0.0,0.0,0.0,0.0,0.0,0.0,0.0,0.0,0.0,0.0,0.0,0.0,0.0,0.0,0.0,0.0,0.0,0.0,0.0,0.0,0.0,0.0,0.0,0.0,0.0,0.0,0.0,0.0,0.0,0.0,0.0,0.0,0.0,0.0,0.0,0.0,0.0,0.0,0.0,0.0,0.0,0.0,0.0,0.0,0.0,0.0,0.0,0.0,0.0,0.0,0.0,0.0,0.0,0.0,0.0,0.0,0.0,0.0,0.0,0.0,0.0,0.0,0.0,0.0,0.0,0.0,0.0,0.0,0.0,0.0,0.0,0.0,0.0,0.0,0.0,0.0,0.0,0.0,0.0,0.0,0.0,0.0,0.0,0.0,0.0,0.0,0.0,0.0,-1.2432,-1.2177,-1.2368,-1.3017,-1.3027,-1.3306,0.0,0.0,0.0,0.0,0.0,0.0,0.0,0.0,0.0,0.0,0.0,0.0,0.0,0.0,0.0,0.0,0.0,0.0,0.0,0.0,0.0,0.0,0.0,0.0,0.0,0.0,0.0,0.0,0.0,0.0,0.0,0.0,0.0,0.0,0.0,0.0,0.0,0.0,0.0,0.0,0.0,0.0,0.0,0.0,0.0,0.0,0.0,0.0,0.0,0.0,0.0,0.0,0.0,0.0,0.0,0.0,0.0,0.0,0.0,0.0,0.0,0.0,0.0,0.0,0.0,0.0,0.0,0.0,0.0,0.0,0.0,0.0,0.0,0.0,0.0,0.0,0.0,0.0,0.0,0.0,0.0,0.0,0.0,0.0,0.0,0.0,0.0,0.0,0.0,0.0,0.0,0.0,0.0,0.0,0.0,0.0,0.0,0.0,0.0,0.0,0.0,0.0,0.0,0.0,0.0,0.0,0.0,0.0,0.0,-1.15,-1.1771,-1.2253,-1.3027,-1.3085,-1.3402,-1.4071,0.0,0.0,0.0,0.0,0.0,0.0,0.0,0.0,0.0,0.0,0.0,0.0,0.0,0.0,0.0,0.0,0.0,0.0,0.0,0.0,0.0,0.0,0.0,0.0,0.0,0.0,0.0,0.0,0.0,0.0,0.0,0.0,0.0,0.0,0.0,0.0,0.0,0.0,0.0,0.0,0.0,0.0,0.0,0.0,0.0,0.0,0.0,0.0,0.0,0.0,0.0,0.0,0.0,0.0,0.0,0.0,0.0,0.0,0.0,0.0,0.0,0.0,0.0,0.0,0.0,0.0,0.0,0.0,0.0,0.0,0.0,0.0,0.0,0.0,0.0,0.0,0.0,0.0,0.0,0.0,0.0,0.0,0.0,0.0,0.0,0.0,0.0,0.0,0.0,0.0,0.0,0.0,0.0,0.0,0.0,0.0,0.0,0.0,0.0,0.0,0.0,0.0,0.0,0.0,0.0,0.0,0.0,0.0,-1.0343,-1.1586,-1.2431,-1.2881,-1.3036,-1.3402,0.0,0.0,0.0,0.0,0.0,0.0,0.0,0.0,0.0,0.0,0.0,0.0,0.0,0.0,0.0,0.0,0.0,0.0,0.0,0.0,0.0,0.0,0.0,0.0,0.0,0.0,0.0,0.0,0.0,0.0,0.0,0.0,0.0,0.0,0.0,0.0,0.0,0.0,0.0,0.0,0.0,0.0,0.0,0.0,0.0,0.0,0.0,0.0,0.0,0.0,0.0,0.0,0.0,0.0,0.0,0.0,0.0,0.0,0.0,0.0,0.0,0.0,0.0,0.0,0.0,0.0,0.0,0.0,0.0,0.0,0.0,0.0,0.0,0.0,0.0,0.0,0.0,0.0,0.0,0.0,0.0,0.0,0.0,0.0,0.0,0.0,0.0,0.0,0.0,0.0,0.0,0.0,0.0,0.0,0.0,0.0,0.0,0.0,0.0,0.0,0.0,0.0,0.0,0.0,0.0,0.0,0.0,0.0,0.0,-1.1025,-1.1173,-1.1678,-1.2588,-1.2929,-1.3402,0.0,0.0,0.0,0.0,0.0,0.0,0.0,0.0,0.0,0.0,0.0,0.0,0.0,0.0,0.0,0.0,0.0,0.0,0.0,0.0,0.0,0.0,0.0,0.0,0.0,0.0,0.0,0.0,0.0,0.0,0.0,0.0,0.0,0.0,0.0,0.0,0.0,0.0,0.0,0.0,0.0,0.0,0.0,0.0,0.0,0.0,0.0,0.0,0.0,0.0,0.0,0.0,0.0,0.0,0.0,0.0,0.0,0.0,0.0,0.0,0.0,0.0,0.0,0.0,0.0,0.0,0.0,0.0,0.0,0.0,0.0,0.0,0.0,0.0,0.0,0.0,0.0,0.0,0.0,0.0,0.0,0.0,0.0,0.0,0.0,0.0,0.0,0.0,0.0,0.0,0.0,0.0,0.0,0.0,0.0,0.0,0.0,0.0,0.0,0.0,0.0,0.0,0.0,0.0,0.0,0.0,0.0,0.0,-1.0733,-1.0894,-1.1231,-1.1634,-1.2113,-1.256,-1.3248,0.0,0.0,0.0,0.0,0.0,0.0,0.0,0.0,0.0,0.0,0.0,0.0,0.0,0.0,0.0,0.0,0.0,0.0,0.0,0.0,0.0,0.0,0.0,0.0,0.0,0.0,0.0,0.0,0.0,0.0,0.0,0.0,0.0,0.0,0.0,0.0,0.0,0.0,0.0,0.0,0.0,0.0,0.0,0.0,0.0,0.0,0.0,0.0,0.0,0.0,0.0,0.0,0.0,0.0,0.0,0.0,0.0,0.0,0.0,0.0,0.0,0.0,0.0,0.0,0.0,0.0,0.0,0.0,0.0,0.0,0.0,0.0,0.0,0.0,0.0,0.0,0.0,0.0,0.0,0.0,0.0,0.0,0.0,0.0,0.0,0.0,0.0,0.0,0.0,0.0,0.0,0.0,0.0,0.0,0.0,0.0,0.0,0.0,0.0,0.0,0.0,0.0,0.0,0.0,0.0,0.0,0.0,0.0,-1.0887,-1.0479,-1.1368,-1.1805,-1.1664,-1.2261,-1.3008,0.0,0.0,0.0,0.0,0.0,0.0,0.0,0.0,0.0,0.0,0.0,0.0,0.0,0.0,0.0,0.0,0.0,0.0,0.0,0.0,0.0,0.0,0.0,0.0,0.0,0.0,0.0,0.0,0.0,0.0,0.0,0.0,0.0,0.0,0.0,0.0,0.0,0.0,0.0,0.0,0.0,0.0,0.0,0.0,0.0,0.0,0.0,0.0,0.0,0.0,0.0,0.0,0.0,0.0,0.0,0.0,0.0,0.0,0.0,0.0,0.0,0.0,0.0,0.0,0.0,0.0,0.0,0.0,0.0,0.0,0.0,0.0,0.0,0.0,0.0,0.0,0.0,0.0,0.0,0.0,0.0,0.0,0.0,0.0,0.0,0.0,0.0,0.0,0.0,0.0,0.0,0.0,0.0,0.0,0.0,0.0,0.0,0.0,0.0,0.0,0.0,0.0,0.0,0.0,0.0,0.0,0.0,0.0,-1.0254,-1.127,-1.0726,-1.0875,-1.1824,-1.2617,-1.3047,0.0,0.0,0.0,0.0,0.0,0.0,0.0,0.0,0.0,0.0,0.0,0.0,0.0,0.0,0.0,0.0,0.0,0.0,0.0,0.0,0.0,0.0,0.0,0.0,0.0,0.0,0.0,0.0,0.0,0.0,0.0,0.0,0.0,0.0,0.0,0.0,0.0,0.0,0.0,0.0,0.0,0.0,0.0,0.0,0.0,0.0,0.0,0.0,-1.9635,0.0,0.0,0.0,0.0,0.0,0.0,0.0,0.0,0.0,0.0,0.0,0.0,0.0,0.0,0.0,0.0,0.0,0.0,0.0,0.0,0.0,0.0,0.0,0.0,0.0,0.0,0.0,0.0,0.0,0.0,0.0,0.0,0.0,0.0,0.0,0.0,0.0,0.0,0.0,0.0,0.0,0.0,0.0,0.0,0.0,0.0,0.0,0.0,0.0,0.0,0.0,0.0,0.0,0.0,0.0,0.0,0.0,0.0,0.0,-0.998,-1.078,-1.0539,-1.0869,-1.1858,-1.2639,-1.3046,0.0,0.0,0.0,0.0,0.0,0.0,0.0,0.0,0.0,0.0,0.0,0.0,0.0,0.0,0.0,0.0,0.0,0.0,0.0,0.0,0.0,0.0,0.0,0.0,0.0,0.0,0.0,0.0,0.0,0.0,0.0,0.0,0.0,0.0,0.0,0.0,0.0,0.0,0.0,0.0,0.0,0.0,0.0,0.0,0.0,0.0,0.0,0.0,0.0,0.0,0.0,0.0,0.0,0.0,0.0,0.0,0.0,0.0,0.0,0.0,0.0,0.0,0.0,0.0,0.0,0.0,0.0,0.0,0.0,0.0,0.0,0.0,0.0,0.0,0.0,0.0,0.0,0.0,0.0,0.0,0.0,0.0,0.0,0.0,0.0,0.0,0.0,0.0,0.0,0.0,0.0,0.0,0.0,0.0,0.0,0.0,0.0,0.0,0.0,0.0,0.0,0.0,0.0,0.0,0.0,0.0,0.0,-0.9646,-0.9737,-0.9952,-1.0415,-1.1017,-1.1718,-1.2321,-1.2839,-1.3242,0.0,0.0,0.0,0.0,0.0,0.0,0.0,0.0,0.0,0.0,0.0,0.0,0.0,0.0,0.0,0.0,0.0,0.0,0.0,0.0,0.0,0.0,0.0,0.0,0.0,0.0,0.0,0.0,0.0,0.0,0.0,0.0,0.0,0.0,0.0,0.0,0.0,0.0,-1.5691,-1.5881,0.0,0.0,0.0,0.0,0.0,0.0,0.0,0.0,-1.9447,0.0,0.0,0.0,0.0,0.0,0.0,0.0,0.0,0.0,0.0,0.0,0.0,0.0,0.0,0.0,0.0,0.0,0.0,0.0,0.0,0.0,0.0,0.0,0.0,0.0,0.0,0.0,0.0,0.0,0.0,0.0,0.0,0.0,0.0,0.0,0.0,0.0,0.0,0.0,0.0,0.0,0.0,0.0,0.0,0.0,0.0,0.0,0.0,0.0,0.0,0.0,0.0,0.0,0.0,0.0,0.0,-0.8322,-0.8838,-0.9302,-0.96,-0.997,-1.0478,-1.1122,-1.1677,-1.2313,-1.3125,0.0,0.0,0.0,0.0,0.0,0.0,0.0,0.0,0.0,0.0,0.0,0.0,0.0,0.0,0.0,0.0,0.0,0.0,0.0,0.0,0.0,0.0,0.0,0.0,0.0,0.0,0.0,0.0,0.0,0.0,0.0,0.0,0.0,0.0,0.0,0.0,0.0,0.0,0.0,-1.5686,-1.6117,0.0,0.0,0.0,0.0,0.0,0.0,0.0,0.0,-2.0167,0.0,0.0,0.0,0.0,0.0,0.0,0.0,0.0,0.0,0.0,0.0,0.0,0.0,0.0,0.0,0.0,0.0,0.0,0.0,0.0,0.0,0.0,0.0,0.0,0.0,0.0,0.0,0.0,0.0,0.0,0.0,0.0,0.0,0.0,0.0,0.0,0.0,0.0,0.0,0.0,0.0,0.0,0.0,0.0,0.0,0.0,0.0,0.0,0.0,0.0,0.0,0.0,0.0,0.0,0.0,-0.8516,-0.864,-0.8829,-0.8969,-0.9396,-0.9964,-1.0598,-1.1108,-1.202,0.0,0.0,0.0,0.0,0.0,0.0,0.0,0.0,0.0,0.0,0.0,0.0,0.0,0.0,0.0,0.0,0.0,0.0,0.0,0.0,0.0,0.0,0.0,0.0,0.0,0.0,0.0,0.0,0.0,0.0,0.0,0.0,0.0,0.0,0.0,0.0,0.0,0.0,0.0,0.0,-1.5924,-1.6169,-1.5742,0.0,0.0,0.0,0.0,0.0,0.0,-2.0191,-2.0278,0.0,0.0,0.0,0.0,0.0,0.0,0.0,0.0,0.0,0.0,0.0,0.0,0.0,0.0,0.0,0.0,0.0,0.0,0.0,0.0,0.0,0.0,0.0,0.0,0.0,0.0,0.0,0.0,0.0,0.0,0.0,0.0,0.0,0.0,0.0,0.0,0.0,0.0,0.0,0.0,0.0,0.0,0.0,0.0,0.0,0.0,0.0,0.0,0.0,0.0,0.0,0.0,0.0,0.0,0.0,-0.8824,-0.8668,-0.8576,-0.8517,-0.9017,-0.9564,-1.014,-1.0696,-1.1757,0.0,0.0,0.0,0.0,0.0,0.0,0.0,0.0,0.0,0.0,0.0,0.0,0.0,0.0,0.0,0.0,0.0,0.0,0.0,0.0,0.0,0.0,0.0,0.0,0.0,0.0,0.0,0.0,0.0,0.0,0.0,0.0,0.0,0.0,0.0,0.0,0.0,0.0,0.0,0.0,0.0,-1.6135,-1.5654,-1.6407,0.0,0.0,0.0,0.0,-2.0163,-2.0382,0.0,0.0,0.0,0.0,0.0,0.0,0.0,0.0,0.0,0.0,0.0,0.0,0.0,0.0,0.0,0.0,0.0,0.0,0.0,0.0,0.0,0.0,0.0,0.0,0.0,0.0,0.0,0.0,0.0,0.0,0.0,0.0,0.0,0.0,0.0,0.0,0.0,0.0,0.0,0.0,0.0,0.0,0.0,0.0,0.0,0.0,0.0,0.0,0.0,0.0,0.0,0.0,0.0,0.0,0.0,0.0,-0.8661,-0.8811,-0.8829,-0.8517,-0.9022,-0.9415,-0.9697,-1.0414,-1.1468,0.0,0.0,0.0,0.0,0.0,0.0,0.0,0.0,0.0,0.0,0.0,0.0,0.0,0.0,0.0,0.0,0.0,0.0,0.0,0.0,0.0,0.0,0.0,0.0,0.0,0.0,0.0,0.0,0.0,0.0,0.0,0.0,0.0,0.0,0.0,0.0,0.0,0.0,0.0,0.0,0.0,-1.595,-1.5951,-1.6078,-1.6562,0.0,0.0,-1.8801,-1.9677,-2.0319,0.0,0.0,0.0,0.0,0.0,0.0,0.0,0.0,0.0,0.0,0.0,0.0,0.0,0.0,0.0,0.0,0.0,0.0,0.0,0.0,0.0,0.0,0.0,0.0,0.0,0.0,0.0,0.0,0.0,0.0,0.0,0.0,0.0,0.0,0.0,0.0,0.0,0.0,0.0,0.0,0.0,0.0,0.0,0.0,0.0,0.0,0.0,0.0,0.0,0.0,0.0,0.0,0.0,0.0,0.0,-0.8083,-0.8005,-0.8054,-0.8111,-0.8052,-0.8571,-0.9093,-0.9585,-1.0076,-1.1131,0.0,0.0,0.0,0.0,0.0,0.0,0.0,0.0,0.0,0.0,0.0,0.0,0.0,0.0,0.0,0.0,0.0,0.0,0.0,0.0,0.0,0.0,0.0,0.0,0.0,0.0,0.0,0.0,0.0,0.0,0.0,0.0,0.0,0.0,0.0,0.0,0.0,0.0,0.0,0.0,0.0,0.0,-1.5462,-1.6405,0.0,0.0,0.0,-1.9543,-2.0103,0.0,0.0,0.0,0.0,0.0,0.0,0.0,0.0,0.0,0.0,0.0,0.0,0.0,0.0,0.0,0.0,0.0,0.0,0.0,0.0,0.0,0.0,0.0,0.0,0.0,0.0,0.0,0.0,0.0,0.0,0.0,0.0,0.0,0.0,0.0,0.0,0.0,0.0,0.0,0.0,0.0,0.0,0.0,0.0,0.0,0.0,0.0,0.0,0.0,0.0,0.0,0.0,0.0,0.0,0.0,0.0,0.0,-0.7525,-0.754,-0.7565,-0.7727,-0.8252,-0.8816,-0.949,-0.9781,0.0,0.0,0.0,0.0,0.0,0.0,0.0,0.0,0.0,0.0,0.0,0.0,0.0,0.0,0.0,0.0,0.0,0.0,0.0,0.0,0.0,0.0,0.0,0.0,0.0,0.0,0.0,-1.7791,0.0,0.0,0.0,0.0,0.0,0.0,0.0,0.0,0.0,0.0,0.0,0.0,0.0,0.0,-1.6471,-1.552,-1.6907,-1.7861,0.0,0.0,-1.9991,-2.0432,-2.0573,-2.0539,0.0,0.0,0.0,0.0,0.0,0.0,0.0,0.0,0.0,0.0,0.0,0.0,0.0,0.0,0.0,0.0,0.0,0.0,0.0,0.0,0.0,0.0,0.0,0.0,0.0,0.0,0.0,0.0,0.0,0.0,0.0,0.0,0.0,0.0,0.0,0.0,0.0,0.0,0.0,0.0,0.0,0.0,0.0,0.0,0.0,0.0,0.0,0.0,0.0,0.0,0.0,0.0,0.0,0.0,0.0,-0.7493,-0.7637,-0.7712,-0.7731,-0.8257,-0.8731,-0.9095,-0.968,-1.0683,0.0,0.0,0.0,0.0,0.0,0.0,0.0,0.0,0.0,0.0,0.0,0.0,0.0,0.0,0.0,0.0,0.0,0.0,0.0,0.0,0.0,0.0,0.0,0.0,0.0,0.0,0.0,0.0,0.0,0.0,0.0,0.0,0.0,0.0,0.0,0.0,0.0,0.0,0.0,0.0,0.0,-1.6863,-1.6793,-1.7299,-1.7855,0.0,0.0,-1.9494,-2.0143,-2.0398,-2.0502,-2.0496,0.0,0.0,0.0,0.0,0.0,0.0,0.0,0.0,0.0,0.0,0.0,0.0,0.0,0.0,0.0,0.0,0.0,0.0,0.0,0.0,0.0,0.0,0.0,0.0,0.0,0.0,0.0,0.0,0.0,0.0,0.0,0.0,0.0,0.0,0.0,0.0,0.0,0.0,0.0,0.0,0.0,0.0,0.0,0.0,0.0,0.0,0.0,0.0,0.0,0.0,0.0,0.0,0.0,-0.7053,-0.6802,-0.669,-0.6814,-0.719,-0.7727,-0.8217,-0.864,-0.955,-1.0424,0.0,0.0,0.0,0.0,0.0,0.0,0.0,0.0,0.0,0.0,0.0,0.0,0.0,0.0,0.0,0.0,0.0,0.0,0.0,0.0,0.0,0.0,0.0,0.0,0.0,0.0,0.0,0.0,-1.959,-1.9699,-1.9345,0.0,0.0,0.0,0.0,0.0,0.0,0.0,0.0,0.0,0.0,-1.7375,-1.7065,-1.7949,0.0,0.0,-1.9128,-1.9674,-2.0003,-2.0334,-2.0557,-2.058,-2.0664,0.0,0.0,0.0,0.0,0.0,0.0,0.0,0.0,0.0,0.0,0.0,0.0,0.0,0.0,0.0,0.0,0.0,0.0,0.0,0.0,0.0,0.0,0.0,0.0,0.0,0.0,0.0,0.0,0.0,0.0,0.0,0.0,0.0,0.0,0.0,0.0,0.0,0.0,0.0,0.0,0.0,0.0,0.0,0.0,0.0,0.0,0.0,0.0,0.0,0.0,0.0,0.0,-0.6485,-0.6493,-0.5971,-0.6155,-0.7012,-0.7424,-0.7932,-0.8531,-0.9395,-1.016,0.0,0.0,0.0,0.0,0.0,0.0,0.0,0.0,0.0,0.0,0.0,0.0,0.0,0.0,0.0,0.0,0.0,0.0,0.0,0.0,0.0,0.0,0.0,0.0,0.0,0.0,0.0,0.0,-2.0009,-2.0077,-1.975,0.0,0.0,0.0,0.0,0.0,0.0,0.0,0.0,0.0,0.0,-1.7512,-1.7377,-1.8469,-1.9112,-1.8684,-1.9396,-2.0016,-2.0182,-2.0422,-2.066,-2.0759,0.0,0.0,0.0,0.0,0.0,0.0,0.0,0.0,0.0,0.0,0.0,0.0,0.0,0.0,0.0,0.0,0.0,0.0,0.0,0.0,0.0,0.0,0.0,0.0,0.0,0.0,0.0,0.0,0.0,0.0,-1.3612,0.0,0.0,0.0,0.0,0.0,0.0,0.0,0.0,0.0,0.0,0.0,0.0,0.0,0.0,0.0,0.0,0.0,0.0,0.0,0.0,0.0,0.0,-0.6503,-0.6595,-0.5754,-0.5964,-0.7142,-0.7503,-0.8004,-0.8757,-0.9328,-0.992,-1.0594,0.0,0.0,0.0,0.0,0.0,0.0,0.0,0.0,0.0,0.0,0.0,0.0,0.0,0.0,0.0,0.0,0.0,0.0,0.0,0.0,0.0,0.0,0.0,0.0,0.0,0.0,-1.9601,-1.9913,-2.012,0.0,0.0,0.0,0.0,0.0,0.0,0.0,0.0,0.0,0.0,-1.6852,-1.7353,-1.789,-1.8714,-1.9104,-1.8666,-1.9617,-2.0422,-2.0523,-2.056,-2.0709,0.0,0.0,0.0,0.0,0.0,0.0,0.0,0.0,0.0,0.0,0.0,0.0,0.0,0.0,0.0,0.0,0.0,0.0,0.0,0.0,0.0,0.0,0.0,0.0,0.0,0.0,0.0,-1.3897,-1.3932,0.0,0.0,0.0,0.0,0.0,0.0,0.0,0.0,0.0,0.0,0.0,-0.7708,-0.6124,0.0,0.0,0.0,0.0,0.0,0.0,0.0,0.0,0.0,0.0,0.0,0.0,-0.5906,-0.55,-0.5089,-0.5365,-0.6394,-0.6892,-0.7481,-0.8151,-0.9082,-1.0093,-1.1164,0.0,0.0,0.0,0.0,0.0,0.0,0.0,0.0,0.0,0.0,0.0,0.0,0.0,0.0,0.0,0.0,0.0,0.0,0.0,0.0,0.0,0.0,0.0,0.0,0.0,-1.9507,0.0,0.0,0.0,0.0,0.0,0.0,0.0,0.0,0.0,0.0,0.0,-1.5616,-1.5815,-1.6641,-1.7328,-1.7499,-1.8046,-1.8611,0.0,0.0,0.0,0.0,0.0,0.0,0.0,0.0,0.0,0.0,0.0,0.0,0.0,0.0,-2.069,-1.9535,-1.9526,-1.9659,-1.9659,0.0,0.0,0.0,0.0,0.0,0.0,0.0,0.0,0.0,0.0,0.0,0.0,0.0,0.0,-1.3233,0.0,-1.2949,0.0,0.0,0.0,0.0,0.0,0.0,0.0,0.0,-0.7987,-0.6802,-0.5373,-0.4193,-0.4668,0.0,-0.621,-0.5855,0.0,0.0,0.0,0.0,0.0,0.0,0.0,0.0,-0.5152,-0.4737,-0.4466,-0.4815,-0.5837,-0.656,-0.7265,-0.8106,-0.8985,-0.9926,-1.0865,-1.1256,-1.1922,0.0,0.0,0.0,0.0,0.0,0.0,0.0,0.0,0.0,0.0,0.0,0.0,0.0,0.0,0.0,0.0,0.0,0.0,0.0,0.0,0.0,0.0,0.0,-1.8985,0.0,0.0,0.0,0.0,0.0,0.0,0.0,0.0,0.0,-1.5337,-1.5196,-1.5195,-1.5411,-1.6191,-1.6907,-1.7263,0.0,0.0,0.0,0.0,0.0,0.0,0.0,-2.0706,-2.0731,-2.1211,-2.1663,-2.1865,-2.1938,-2.2102,-2.24,0.0,0.0,-2.0499,-2.0404,-2.0561,-2.0609,-2.0708,-2.0708,-2.0368,-2.0327,-2.021,0.0,0.0,0.0,0.0,0.0,0.0,0.0,0.0,-1.3235,-1.2605,0.0,-1.1585,0.0,0.0,0.0,0.0,0.0,-1.0283,0.0,0.0,-0.5106,-0.3636,-0.1748,-0.2559,-0.31,-0.3032,-0.249,-0.1946,-0.1535,-0.5667,0.0,0.0,0.0,0.0,0.0,0.0,-0.4183,-0.4389,-0.405,-0.4399,-0.5497,-0.6427,-0.74,-0.8468,-0.8926,-0.9343,-0.9826,-1.0642,-1.1434,-1.2133,-1.3232,0.0,0.0,0.0,0.0,0.0,0.0,0.0,0.0,0.0,0.0,0.0,0.0,0.0,0.0,0.0,0.0,0.0,0.0,0.0,0.0,-1.8042,0.0,0.0,0.0,0.0,0.0,0.0,0.0,0.0,0.0,0.0,-1.4266,-1.414,-1.4325,-1.5187,0.0,0.0,0.0,0.0,-1.8561,-1.8563,-1.9644,-2.0445,-2.0538,-2.0957,-2.1213,-2.1213,0.0,0.0,-2.2018,-2.1754,-2.168,-2.2056,-2.1984,-2.1809,-2.203,-2.212,-2.2243,-2.2391,-2.1918,-2.159,-2.1575,-2.0873,-2.0283,-1.0758,0.0,0.0,0.0,0.0,-1.1994,-1.1431,-1.0487,-1.0432,-1.0356,-1.0273,-0.9994,0.0,0.0,0.0,0.0,0.0,0.0,-0.6645,-0.3777,-0.34,-0.2277,-0.0469,-0.0201,-0.0402,-0.0939,-0.1075,-0.1663,-0.2611,-0.3759,-0.442,-0.4534,0.0,0.0,0.0,0.0,-0.3211,-0.3356,-0.3635,-0.4122,-0.4743,-0.6097,-0.7325,-0.8458,-0.923,-0.9709,-0.9955,-1.09,-1.1429,-1.1589,-1.2762,0.0,0.0,0.0,0.0,0.0,0.0,0.0,0.0,0.0,0.0,0.0,0.0,0.0,0.0,0.0,0.0,0.0,0.0,0.0,-1.8296,-1.7811,-1.7632,0.0,0.0,0.0,0.0,0.0,0.0,0.0,0.0,0.0,-1.3034,-1.3304,-1.3868,0.0,0.0,-1.5355,-1.6367,-1.6698,-1.7134,-1.8103,-1.8347,0.0,-1.986,-2.0182,-2.0342,-2.0377,-2.0746,-2.1115,-2.135,-2.1891,-2.2399,-2.2623,-2.2883,-2.3083,-2.3103,-2.2575,-2.2133,-2.189,-2.1956,-2.1851,-2.1144,-2.1016,-2.0978,-0.7442,-0.9009,-1.0393,-1.0593,-1.0093,-1.0165,-0.959,-0.8529,-0.8443,-0.8228,-0.7916,-0.7766,-0.7634,-0.7693,-0.8004,0.0,0.0,0.0,-0.4061,-0.1347,-0.0195,0.0848,0.1815,0.2097,0.1975,0.1449,0.0667,-0.02,-0.1047,-0.1179,-0.145,-0.1931,0.0,0.0,-0.3954,-0.2908,-0.2388,-0.2417,-0.3024,-0.3704,-0.433,-0.5833,-0.7075,-0.817,-0.8753,-0.935,-0.9853,-1.0678,-1.1188,-1.1464,-1.251,-1.3354,0.0,0.0,0.0,0.0,0.0,0.0,0.0,0.0,0.0,0.0,0.0,-1.9594,-1.986,0.0,0.0,0.0,-1.8235,-1.7911,-1.748,-1.7047,0.0,0.0,0.0,0.0,0.0,0.0,0.0,-1.4472,-1.3136,-1.2333,-1.2305,-1.2445,-1.2834,-1.3795,-1.4125,-1.4608,-1.551,0.0,-1.6631,-1.7795,-1.7839,-1.8171,-1.9425,-1.9772,-2.0061,-2.0579,-2.0885,-2.1146,-2.1292,-2.1848,-2.2224,-2.2359,-2.2616,-2.2811,-2.2932,-2.2443,-2.2015,-2.1818,-2.1847,-2.1575,-2.0628,-2.0552,-2.0539,-0.4139,-0.4267,-0.7925,-0.9144,-0.8806,-0.8751,-0.8115,-0.714,-0.6872,-0.6163,-0.513,-0.5128,-0.4942,-0.4785,-0.5353,0.0,-0.2991,-0.2481,-0.1029,0.1166,0.3605,0.4684,0.4632,0.4061,0.3793,0.3793,0.2513,0.2079,0.2281,0.1743,0.1072,0.0268,-0.0719,-0.1393,-0.1738,-0.1605,-0.1557,-0.1598,-0.2267,-0.3147,-0.4338,-0.5702,-0.6811,-0.7591,-0.7901,-0.8539,-0.9604,-1.0228,-1.0873,-1.165,-1.238,-1.3175,-1.4114,0.0,0.0,0.0,0.0,0.0,0.0,0.0,0.0,0.0,0.0,0.0,0.0,0.0,0.0,0.0,-1.7341,0.0,-1.6367,-1.6123,0.0,0.0,0.0,-1.683,-1.601,-1.5756,-1.4915,-1.3104,0.0,0.0,-1.1902,-1.1549,-1.1563,-1.2282,-1.3034,-1.379,-1.4702,-1.5624,-1.6618,-1.7534,-1.7752,-1.818,-1.8971,-1.9422,-2.0029,-2.0934,-2.1428,-2.1404,-2.1404,-2.1542,-2.1553,-2.1565,-2.1616,-2.1678,-2.1877,-2.1892,-2.1969,-2.195,-2.1679,-2.107,-2.0251,-1.9797,-1.9608,-0.0804,-0.1076,-0.1882,-0.3466,-0.549,-0.6325,-0.6085,-0.5209,-0.4328,-0.3727,-0.3469,-0.3377,-0.2849,-0.1999,-0.1398,-0.0852,-0.0255,0.1542,0.3044,0.4122,0.4645,0.4768,0.4559,0.4058,0.3918,0.4115,0.3311,0.3088,0.3489,0.3015,0.2748,0.2751,0.2134,0.0936,-0.0678,-0.0485,-0.0421,-0.0707,-0.1474,-0.2793,-0.4671,-0.5698,-0.6539,-0.7265,-0.7986,-0.8787,-0.975,-1.0655,-1.1199,-1.1406,-1.2085,-1.2622,-1.2739,-1.4119,0.0,0.0,0.0,0.0,0.0,0.0,0.0,0.0,0.0,-1.7775,-1.8534,0.0,-1.7808,0.0,-1.6242,-1.6203,-1.6558,-1.602,0.0,0.0,-1.5644,-1.5328,-1.3978,-1.3907,-1.3385,-1.2074,-1.1333,-1.1019,-1.1207,-1.1215,-1.135,-1.1604,-1.2104,-1.3034,-1.4696,-1.4238,-1.4592,-1.6591,-1.6763,-1.6929,-1.79,-1.87,-1.9299,-1.9562,-2.0107,-2.0453,-2.0453,-2.0839,-2.1071,-2.1083,-2.1376,-2.1628,-2.1628,-2.1815,-2.1564,-2.1042,-2.1176,-2.1165,-2.014,-1.9946,-1.9858,0.1884,0.1798,0.2314,0.1295,-0.0789,-0.2433,-0.2847,-0.2338,-0.1667,-0.1401,-0.1332,-0.1052,-0.0654,-0.0065,0.0777,0.152,0.228,0.3188,0.4122,0.4958,0.5074,0.5106,0.5173,0.4958,0.4872,0.4941,0.4432,0.4225,0.4292,0.3956,0.3692,0.3431,0.2993,0.2109,0.0808,0.0484,0.0,-0.0784,-0.1548,-0.2778,-0.4387,-0.5059,-0.5947,-0.6937,-0.7456,-0.8231,-0.9396,-1.0111,-1.077,-1.1274,-1.2032,-1.2492,-1.2626,-1.3694,-1.4387,0.0,0.0,0.0,0.0,0.0,0.0,0.0,0.0,0.0,0.0,0.0,-1.7082,-1.6732,-1.6071,-1.593,-1.6438,-1.5689,-1.4946,-1.4448,-1.4556,-1.4136,-1.2658,-1.2453,-1.1995,-1.101,-1.0425,-1.0074,-1.008,-1.0145,-1.0355,-1.067,-1.1014,-1.192,-1.3699,-1.3684,-1.4042,-1.5564,-1.5713,-1.598,-1.7198,-1.8027,-1.8576,-1.8643,-1.9121,-1.955,-1.955,-1.9933,-2.0313,-2.0442,-2.0688,-2.088,-2.0944,-2.1008,-2.0905,-2.0511,-2.0461,-2.0331,-1.9715,-1.9557,-1.9408,0.4124,0.4153,0.4975,0.4787,0.3856,0.1828,0.0864,0.066,0.0858,0.0927,0.0797,0.1358,0.1602,0.154,0.2192,0.3171,0.4405,0.378,0.4062,0.4916,0.5277,0.5698,0.6178,0.6126,0.5994,0.5836,0.5549,0.5226,0.4827,0.4694,0.4225,0.3431,0.3027,0.2684,0.2225,0.1308,0.0212,-0.1087,-0.2124,-0.2977,-0.3734,-0.4325,-0.5256,-0.6543,-0.6589,-0.7302,-0.8803,-0.9179,-0.9874,-1.1066,-1.1819,-1.2334,-1.2677,-1.3269,-1.3769,0.0,-1.4888,0.0,0.0,0.0,0.0,0.0,0.0,0.0,0.0,-1.6355,-1.6617,-1.7266,-1.6256,-1.5629,-1.5788,-1.5074,-1.4233,-1.3597,-1.3556,-1.3129,-1.1829,-1.1368,-1.0848,-0.9989,-0.9554,-0.9256,-0.915,-0.9085,-0.9342,-0.991,-1.0129,-1.0821,-1.2291,-1.3119,-1.3765,-1.4355,-1.4681,-1.5226,-1.6437,-1.7276,-1.7833,-1.7969,-1.8452,-1.8741,-1.8808,-1.9131,-1.9539,-1.9671,-1.9726,-1.9802,-1.9878,-1.989,-1.9836,-1.9771,-1.9566,-1.9318,-1.9094,-1.8795,-1.8518,0.5291,0.5264,0.5339,0.5277,0.5081,0.4722,0.3774,0.243,0.3184,0.304,0.2329,0.3149,0.3439,0.3511,0.4022,0.4791,0.5736,0.545,0.567,0.6248,0.6232,0.6309,0.6497,0.6129,0.5919,0.5844,0.5552,0.5292,0.5024,0.502,0.4824,0.4498,0.3981,0.3374,0.2621,0.0,0.0,0.0,-0.2243,-0.324,-0.3503,-0.4421,-0.5322,-0.6064,-0.6015,0.0,-0.823,-0.8301,-0.8874,-0.9976,-1.0353,0.0,0.0,0.0,0.0,0.0,0.0,0.0,0.0,0.0,0.0,0.0,-1.4757,-1.516,-1.635,-1.6268,-1.6151,-1.6181,-1.5476,-1.463,-1.3859,-1.3409,-1.2969,-1.2428,-1.2258,-1.1883,-1.1087,-1.0704,-1.0189,-0.956,-0.9456,-0.9452,-0.9319,-0.9564,-0.9702,-0.9829,-0.9938,-1.0082,-1.0467,-1.1384,-1.241,-1.3546,-1.3897,-1.4474,-1.5604,-1.6228,-1.6793,-1.7423,-1.8114,-1.8432,-1.8489,-1.8566,-1.871,-1.8757,-1.8777,-1.8777,-1.8834,-1.8689,-1.8622,-1.857,-1.8343,-1.8196,-1.8344,-1.8116,-1.7638,0.663,0.0,0.6211,0.6215,0.0,0.6274,0.5724,0.4958,0.5001,0.4788,0.4322,0.4775,0.4977,0.4974,0.5226,0.5594,0.6072,0.6014,0.6214,0.6602,0.6547,0.6601,0.6757,0.6604,0.651,0.6415,0.6048,0.5822,0.562,0.5286,0.4957,0.4691,0.4159,0.3692,0.3222,0.2216,0.0947,-0.0549,-0.1598,-0.2394,-0.3066,-0.3639,-0.4446,-0.5509,-0.5587,0.0,0.0,0.0,0.0,0.0,0.0,0.0,0.0,0.0,0.0,-1.2482,-1.3236,-1.38,-1.4187,-1.4274,-1.417,-1.3956,-1.383,-1.4033,-1.4706,-1.4814,-1.4662,-1.4131,-1.3688,-1.313,-1.2394,-1.2101,-1.1692,-1.1003,-1.0968,-1.077,-1.0027,-0.9297,-0.8739,-0.8408,-0.823,-0.8102,-0.8102,-0.8359,-0.8755,-0.9082,-0.9186,-0.9223,-0.9611,-1.0204,-1.1172,-1.2517,-1.3025,-1.3542,-1.4322,-1.4887,-1.5384,-1.5939,-1.6551,-1.7052,-1.7245,-1.7589,-1.7866,-1.7942,-1.8158,-1.8452,-1.8489,-1.8384,-1.8314,-1.81,-1.7674,-1.7206,-1.7062,-1.7043,-1.7042,0.7703,0.7491,0.7026,0.7073,0.7374,0.704,0.6955,0.703,0.0,0.0,0.0,0.6085,0.6042,0.5994,0.6109,0.6161,0.6275,0.6275,0.6402,0.6707,0.6768,0.686,0.7021,0.7152,0.7108,0.6876,0.6486,0.6218,0.6017,0.5418,0.4954,0.4625,0.4159,0.3889,0.3689,0.2426,0.1081,-0.0271,-0.0831,-0.1547,-0.2556,-0.2754,-0.3451,-0.4854,-0.505,-0.5541,-0.6489,-0.6742,-0.7287,-0.8131,-0.8834,-0.9463,-1.0031,-1.0717,-1.1149,-1.1421,-1.1794,-1.2175,-1.2444,-1.2659,-1.2718,-1.2565,-1.2712,-1.2832,-1.2955,-1.3274,-1.3056,-1.2258,-1.1927,-1.1551,-1.11,-1.0895,-1.0477,-0.9731,-0.9723,-0.9485,-0.8772,-0.7657,-0.706,-0.7007,-0.6731,-0.6419,-0.6487,-0.6843,-0.7229,-0.7812,-0.8029,-0.831,-0.8864,-0.9417,-1.0232,-1.1304,-1.1842,-1.2445,-1.3164,-1.3673,-1.3962,-1.4514,-1.5002,-1.53,-1.5633,-1.6196,-1.6618,-1.6627,-1.7188,-1.7331,-1.7561,-1.7359,-1.7434,-1.7093,-1.6569,-1.5956,-1.5396,-1.5476,-1.5768,0.8017,0.796,0.745,0.7243,0.7297,0.719,0.7247,0.7412,0.6883,0.6352,0.5978,0.6661,0.674,0.6363,0.6798,0.7053,0.7053,0.6863,0.6928,0.7117,0.7307,0.7455,0.7553,0.7358,0.7046,0.6741,0.6218,0.5822,0.5491,0.5223,0.4957,0.4831,0.4697,0.4295,0.356,0.2818,0.2018,0.1114,-0.0698,-0.1716,-0.1941,-0.2628,-0.3269,-0.3949,-0.41,-0.4582,-0.5473,-0.5798,-0.6297,-0.7011,-0.7291,-0.7858,-0.879,-0.9206,-0.9921,-1.0991,-1.1553,-1.2042,-1.251,-1.1829,-1.1025,-1.0196,-0.9965,-1.084,-1.3172,-1.2977,-1.2438,-1.1834,-1.0996,-1.0346,-0.9844,-0.9456,-0.9202,-0.9003,-0.823,-0.7598,-0.7453,-0.641,-0.5675,-0.5686,-0.5557,-0.5529,-0.5575,-0.5953,-0.6286,-0.6464,-0.7005,-0.7206,-0.7575,-0.8461,-0.9599,-1.0288,-1.0663,-1.1323,-1.2245,-1.2931,-1.3266,-1.4004,-1.4047,-1.4136,-1.4198,-1.4348,-1.4468,-1.4449,-1.4639,-1.458,-1.4538,-1.4105,-1.4216,-1.417,-1.3785,-1.3351,-1.3194,-1.3177,-1.3361,0.8858,0.8807,0.8373,0.8266,0.8388,0.8017,0.7847,0.7772,0.7521,0.7161,0.6857,0.7063,0.7048,0.6863,0.7007,0.7138,0.733,0.7269,0.733,0.7521,0.7717,0.7857,0.7927,0.7727,0.7396,0.6937,0.6544,0.6203,0.594,0.5399,0.5167,0.5312,0.5047,0.4458,0.3714,0.3313,0.2735,0.2118,0.0657,-0.0443,-0.1134,-0.161,-0.2329,-0.3215,-0.3411,-0.3851,-0.4617,-0.5095,-0.5588,-0.6112,-0.6708,-0.7302,-0.7977,-0.8484,-0.8965,-0.9575,-0.9955,-1.0233,-1.049,-1.0132,-0.9755,-0.9296,-0.9069,-0.9376,-1.0493,-1.073,-1.0674,-1.0375,-0.9357,-0.86,-0.8324,-0.7493,-0.7016,-0.6968,-0.6502,-0.6164,-0.6085,-0.5459,-0.4916,-0.4848,-0.4783,-0.4784,-0.4708,-0.5126,-0.5636,-0.5928,-0.6528,-0.6863,-0.685,-0.7472,-0.8237,-0.8846,-0.9528,-1.0135,-1.0771,-1.1398,-1.184,-1.2325,-1.2353,-1.2467,-1.2658,-1.2721,-1.287,-1.2914,-1.3165,-1.3435,-1.3478,-1.3515,-1.334,-1.306,-1.2814,-1.2578,-1.2422,-1.2228,-1.2297,0.962,0.9569,0.9185,0.9133,0.921,0.8613,0.8291,0.8112,0.8112,0.7917,0.7591,0.7461,0.74,0.7335,0.7204,0.7335,0.7591,0.7587,0.7717,0.7847,0.7917,0.7987,0.8062,0.7857,0.7526,0.7077,0.6717,0.6483,0.6314,0.5698,0.5566,0.5779,0.5375,0.4676,0.3949,0.3835,0.3409,0.2872,0.2055,0.1069,-0.0153,-0.0467,-0.1177,-0.2354,-0.2665,-0.3054,-0.3679,-0.4382,-0.4927,-0.547,-0.6167,-0.6788,-0.7403,-0.7855,-0.8156,-0.8304,-0.8542,-0.8546,-0.8389,-0.8495,-0.8472,-0.8241,-0.8041,-0.7878,-0.7677,-0.8083,-0.8449,-0.8444,-0.7531,-0.6855,-0.6749,-0.6022,-0.5289,-0.5316,-0.516,-0.5116,-0.4962,-0.4546,-0.4172,-0.4074,-0.4018,-0.4024,-0.402,-0.4283,-0.4707,-0.5337,-0.6009,-0.6395,-0.6472,-0.6553,-0.6853,-0.7419,-0.8316,-0.9011,-0.9071,-0.9646,-1.0124,-1.0315,-1.0368,-1.0577,-1.0862,-1.1108,-1.1341,-1.1448,-1.1927,-1.2189,-1.2512,-1.2636,-1.2515,-1.2176,-1.1909,-1.1858,-1.1659,-1.149,-1.1553,0.9904,0.9794,0.9484,0.9151,0.9034,0.8345,0.8285,0.8436,0.8447,0.8252,0.7997,0.7922,0.7932,0.7922,0.7927,0.7922,0.7992,0.7922,0.7987,0.7987,0.7792,0.7727,0.7741,0.7204,0.6806,0.6766,0.6443,0.6394,0.6302,0.6276,0.62,0.6079,0.58,0.5147,0.4416,0.438,0.407,0.3257,0.3018,0.2348,0.1175,0.0548,-0.0235,-0.1413,-0.1726,-0.2116,-0.2666,-0.345,-0.4229,-0.5004,-0.5318,-0.6018,-0.7026,-0.7253,-0.7557,-0.8003,-0.8232,-0.8156,-0.7383,-0.7242,-0.6782,-0.5952,-0.5858,-0.5788,-0.5692,-0.5771,-0.5997,-0.6293,-0.5902,-0.5554,-0.5449,-0.5292,-0.5192,-0.5095,-0.4686,-0.4368,-0.4184,-0.3604,-0.31,-0.3038,-0.3132,-0.3063,-0.3097,-0.3293,-0.3661,-0.4112,-0.4678,-0.5151,-0.5386,-0.5702,-0.5976,-0.6173,-0.6868,-0.7677,-0.8134,-0.8217,-0.8467,-0.8549,-0.8519,-0.879,-0.9127,-0.9304,-0.9292,-0.9802,-0.9925,-0.9987,-1.0032,-0.9988,-1.0283,-1.0418,-1.0315,-1.0276,-1.0244,-1.0238,-1.0478,1.0324,1.0305,1.0127,0.9984,0.9825,0.936,0.9162,0.9228,0.9526,0.9328,0.8926,0.9131,0.8918,0.8379,0.8173,0.8249,0.8506,0.8375,0.8317,0.8317,0.8187,0.8325,0.8634,0.8048,0.772,0.7636,0.7333,0.7091,0.702,0.7053,0.6939,0.6565,0.5966,0.5573,0.5368,0.4798,0.4246,0.3789,0.3748,0.3295,0.2433,0.1489,0.047,-0.0471,-0.1177,-0.1649,-0.2042,-0.2668,-0.3212,-0.3679,-0.4148,-0.4693,-0.5309,-0.5469,-0.5616,-0.5918,-0.5999,-0.5922,-0.5619,-0.5717,-0.5526,-0.507,-0.5118,-0.4975,-0.4678,-0.4459,-0.4408,-0.4435,-0.4599,-0.473,-0.4657,-0.4327,-0.4066,-0.3949,-0.3664,-0.3422,-0.318,-0.2956,-0.2677,-0.2446,-0.2533,-0.2549,-0.2432,-0.2686,-0.3078,-0.3312,-0.3791,-0.4295,-0.4688,-0.5079,-0.5292,-0.5628,-0.5934,-0.6275,-0.6937,-0.7355,-0.7469,-0.7563,-0.7505,-0.7562,-0.7716,-0.7717,-0.7834,-0.819,-0.8315,-0.8376,-0.8501,-0.8683,-0.8888,-0.8905,-0.9017,-0.9075,-0.8888,-0.9145,-0.9588,1.0735,1.0795,1.0802,1.0791,1.0715,1.0527,1.0251,1.0104,1.0411,1.0202,0.9717,1.0047,0.9863,0.9308,0.8869,0.8858,0.9056,0.892,0.8843,0.8843,0.8771,0.8869,0.9146,0.8663,0.8322,0.8128,0.7859,0.7708,0.7693,0.7643,0.7425,0.7098,0.6442,0.604,0.5894,0.5123,0.4621,0.4233,0.4155,0.3999,0.3452,0.2429,0.141,0.0706,-0.0235,-0.0943,-0.1258,-0.1884,-0.2273,-0.2503,-0.2974,-0.3522,-0.4066,-0.4232,-0.4304,-0.4368,-0.4353,-0.4339,-0.4185,-0.4363,-0.439,-0.4232,-0.4249,-0.421,-0.3847,-0.3575,-0.3339,-0.3136,-0.3503,-0.3811,-0.3876,-0.3405,-0.2986,-0.2894,-0.2829,-0.2647,-0.2491,-0.2428,-0.2377,-0.2128,-0.2217,-0.2155,-0.1954,-0.2194,-0.2491,-0.2539,-0.3023,-0.3519,-0.3988,-0.4219,-0.4525,-0.5046,-0.4901,-0.5061,-0.5891,-0.6255,-0.66,-0.665,-0.6458,-0.6475,-0.6613,-0.6684,-0.689,-0.7523,-0.7364,-0.7414,-0.7707,-0.789,-0.8108,-0.8195,-0.8251,-0.828,-0.8296,-0.8505,-0.8646,1.1136,1.1363,1.1383,1.1383,1.1341,1.1361,1.1155,1.0798,1.0886,1.0679,1.039,1.0426,1.0618,1.0867,1.0055,0.9759,0.9765,0.9725,0.9708,0.9633,0.9366,0.9039,0.8709,0.8343,0.8061,0.7952,0.7947,0.7991,0.8045,0.7927,0.7783,0.7456,0.7391,0.6703,0.5758,0.5696,0.5318,0.454,0.4384,0.4384,0.4226,0.3444,0.2744,0.2278,0.1178,0.0314,-0.0079,-0.0864,-0.1491,-0.172,-0.1799,-0.2501,-0.3832,-0.4062,-0.4137,-0.429,-0.4292,-0.4091,-0.3699,-0.3566,-0.3333,-0.2977,-0.2997,-0.2894,-0.2865,-0.2769,-0.2723,-0.2627,-0.2557,-0.2695,-0.284,-0.2665,-0.2594,-0.254,-0.2393,-0.2197,-0.2105,-0.2029,-0.2062,-0.1865,-0.1875,-0.1878,-0.165,-0.1651,-0.1649,-0.1643,-0.1959,-0.243,-0.2743,-0.3134,-0.3651,-0.3995,-0.4002,-0.3953,-0.5064,-0.5405,-0.5252,-0.5415,-0.5603,-0.5529,-0.5908,-0.6204,-0.6549,-0.6863,-0.6952,-0.7018,-0.7214,-0.7377,-0.756,-0.7706,-0.7801,-0.7841,-0.762,-0.7966,-0.8063,1.1329,1.1374,1.163,1.171,1.171,1.1898,1.175,1.1365,1.1686,1.1468,1.1114,1.1259,1.1471,1.1481,1.1174,1.0887,1.0651,1.0347,1.013,0.9991,0.9712,0.9797,0.9987,0.9645,0.9373,0.9222,0.9015,0.8793,0.8456,0.8327,0.8169,0.794,0.7633,0.7092,0.6553,0.6093,0.555,0.5007,0.4776,0.4465,0.4231,0.3763,0.3448,0.3295,0.2353,0.1491,0.0864,0.0392,-0.0078,-0.0627,-0.0705,-0.1253,-0.2195,-0.2665,-0.2877,-0.2766,-0.3006,-0.294,-0.2623,-0.2777,-0.2595,-0.1955,-0.2154,-0.207,-0.1652,-0.1518,-0.1373,-0.1296,-0.1068,-0.0992,-0.1133,-0.1612,-0.1872,-0.1697,-0.1451,-0.1378,-0.1421,-0.1362,-0.1291,-0.1152,-0.1321,-0.1572,-0.1573,-0.1493,-0.1415,-0.1336,-0.1492,-0.1805,-0.2196,-0.2508,-0.2809,-0.3335,-0.3344,-0.3357,-0.372,-0.4312,-0.4535,-0.4809,-0.5006,-0.5171,-0.5522,-0.5692,-0.6043,-0.6198,-0.6332,-0.6436,-0.6565,-0.6647,-0.6907,-0.7062,-0.7099,-0.7163,-0.6838,-0.7355,-0.7468,1.165,1.1623,1.1884,1.2011,1.2083,1.2195,1.2116,1.1873,1.2188,1.2037,1.1755,1.1924,1.2003,1.1929,1.1855,1.1765,1.1427,1.1028,1.0734,1.0592,1.045,1.0515,1.0625,1.0362,1.0076,0.9851,0.9638,0.9306,0.8961,0.8673,0.8563,0.8431,0.7953,0.7614,0.7188,0.6714,0.6247,0.5783,0.5321,0.4935,0.4701,0.4311,0.4153,0.3997,0.353,0.2826,0.1728,0.1647,0.1254,0.0628,0.047,0.0,-0.0863,-0.1649,-0.1948,-0.1693,-0.1852,-0.1784,-0.1471,-0.1668,-0.158,-0.0995,-0.1218,-0.1219,-0.0696,-0.0468,-0.0391,-0.0235,-0.0078,0.0157,0.031,-0.0223,-0.0732,-0.0604,-0.052,-0.0443,-0.0381,-0.0459,-0.046,-0.0462,-0.0778,-0.1177,-0.1493,-0.1415,-0.1336,-0.1336,-0.1336,-0.1492,-0.1804,-0.1883,-0.2117,-0.2665,-0.2584,-0.2585,-0.2809,-0.3231,-0.3663,-0.3875,-0.4463,-0.4699,-0.4958,-0.5114,-0.5341,-0.5491,-0.5622,-0.5739,-0.5874,-0.5954,-0.6117,-0.6361,-0.6481,-0.6717,-0.6655,-0.6828,-0.6925,1.2151,1.2049,1.2191,1.2345,1.2351,1.2358,1.2325,1.2345,1.2338,1.2365,1.2304,1.2358,1.2317,1.2338,1.2317,1.2257,1.2111,1.181,1.1643,1.1556,1.1569,1.119,1.065,1.0699,1.0324,0.9615,0.9404,0.9344,0.9261,0.9094,0.8944,0.8736,0.8523,0.813,0.7508,0.7431,0.7257,0.6729,0.6116,0.5796,0.5786,0.5176,0.4711,0.4465,0.4628,0.4081,0.2589,0.2824,0.2588,0.1881,0.1881,0.1332,-0.0078,-0.102,-0.1492,-0.1094,-0.0999,-0.0684,-0.0303,-0.0223,-0.0295,-0.0,-0.015,-0.0152,0.0,0.0155,0.0313,0.047,0.0548,0.0783,0.1406,0.1302,0.0837,0.0467,0.0463,0.0693,0.07,0.0704,0.0392,0.0,-0.0393,-0.0786,-0.11,-0.1336,-0.1336,-0.1336,-0.1336,-0.1336,-0.1414,-0.1414,-0.1649,-0.1883,-0.1961,-0.1883,-0.2038,-0.2272,-0.2582,-0.2968,-0.3655,-0.4088,-0.4222,-0.4449,-0.4825,-0.4974,-0.546,-0.5582,-0.603,-0.6115,-0.6231,-0.6396,-0.6357,-0.637,-0.646,-0.655,-0.6512,1.3083,1.3015,1.3104,1.299,1.2926,1.2751,1.2758,1.2926,1.3024,1.3024,1.2933,1.2926,1.2812,1.2692,1.2812,1.2699,1.2338,1.2417,1.228,1.1968,1.1793,1.1489,1.1325,1.1741,1.1678,1.088,1.0119,0.9671,0.9567,0.9495,0.9447,0.9299,0.9011,0.8754,0.8462,0.8008,0.7451,0.6863,0.6324,0.5811,0.5347,0.5091,0.4938,0.4789,0.4781,0.4389,0.3839,0.3684,0.345,0.3134,0.2666,0.1881,0.094,0.0392,0.0235,0.0392,0.0234,0.031,0.0697,0.0616,0.0688,0.1074,0.1158,0.1162,0.1474,0.1716,0.1803,0.1803,0.2038,0.2353,0.2507,0.2418,0.1945,0.1252,0.1449,0.1511,0.1455,0.1686,0.1157,-0.0,0.0236,0.0236,-0.0629,-0.1022,-0.1336,-0.1336,-0.1336,-0.1336,-0.1336,-0.1336,-0.1336,-0.1492,-0.1335,-0.1335,-0.157,-0.1805,-0.1961,-0.2352,-0.2978,-0.3444,-0.3522,-0.3837,-0.4229,-0.4618,-0.5043,-0.5487,-0.587,-0.6106,-0.6207,-0.6377,-0.6405,-0.6345,-0.6282,-0.6261,-0.6332,1.3423,1.343,1.3351,1.3279,1.3206,1.3035,1.3114,1.3206,1.3299,1.3299,1.3206,1.3206,1.3106,1.2986,1.3133,1.2999,1.2679,1.2846,1.2812,1.2474,1.2048,1.1725,1.1504,1.1769,1.1778,1.1226,1.0553,1.0156,1.006,0.9971,0.9849,0.9761,0.9399,0.9189,0.9068,0.8604,0.8137,0.7745,0.7038,0.6351,0.5894,0.5375,0.5117,0.502,0.492,0.4818,0.4628,0.4309,0.3999,0.3763,0.3372,0.2744,0.2036,0.1802,0.1644,0.1567,0.1488,0.1487,0.1803,0.1642,0.1645,0.2117,0.2117,0.2116,0.2431,0.2746,0.2824,0.2824,0.2904,0.3139,0.3061,0.2982,0.2668,0.2273,0.2223,0.2267,0.2218,0.2608,0.2392,0.133,0.0864,0.0393,-0.0236,-0.0943,-0.1258,-0.1336,-0.1336,-0.1336,-0.1336,-0.1336,-0.1337,-0.1337,-0.1336,-0.1336,-0.1336,-0.1415,-0.1415,-0.1805,-0.2275,-0.2586,-0.282,-0.321,-0.3602,-0.4016,-0.4472,-0.5015,-0.5404,-0.5693,-0.5854,-0.6099,-0.6355,-0.6405,-0.629,-0.6426,-0.6525,1.3471,1.3253,1.3346,1.3373,1.338,1.3307,1.332,1.3287,1.33,1.332,1.3307,1.334,1.328,1.3247,1.332,1.3273,1.3206,1.3292,1.3338,1.3151,1.2635,1.2114,1.1792,1.128,1.1009,1.0947,1.0752,1.0693,1.0646,1.0484,1.0282,1.0095,0.9779,0.9559,0.9339,0.9264,0.9131,0.8837,0.802,0.7435,0.7241,0.6114,0.5402,0.5367,0.5275,0.5159,0.5007,0.4739,0.4401,0.3999,0.3999,0.3763,0.3212,0.3052,0.274,0.2352,0.2506,0.2585,0.2824,0.2744,0.2744,0.2824,0.2824,0.2824,0.2904,0.3059,0.3139,0.3137,0.3141,0.3217,0.3217,0.3139,0.3061,0.3061,0.2885,0.2885,0.3136,0.345,0.3214,0.2666,0.1335,0.0079,0.0157,-0.0629,-0.11,-0.1336,-0.1336,-0.1337,-0.1345,-0.1347,-0.1341,-0.1342,-0.1348,-0.1341,-0.1342,-0.1336,-0.1415,-0.1496,-0.1812,-0.2055,-0.2288,-0.2681,-0.3081,-0.3491,-0.3903,-0.4453,-0.4909,-0.5121,-0.5511,-0.5849,-0.6103,-0.628,-0.6407,-0.6461,-0.6575,1.4049,1.4324,1.4338,1.4338,1.4255,1.4166,1.4076,1.4083,1.3924,1.3814,1.3848,1.3854,1.3707,1.3567,1.3748,1.3634,1.3447,1.3595,1.3614,1.3471,1.3353,1.3034,1.2536,1.1688,1.1354,1.1547,1.1182,1.1031,1.0916,1.0829,1.0702,1.0469,1.0064,0.988,0.9819,0.9483,0.9179,0.8866,0.8548,0.7975,0.7481,0.6726,0.6195,0.6074,0.565,0.5386,0.5265,0.5031,0.4701,0.4314,0.4307,0.4231,0.3841,0.3763,0.3604,0.337,0.3526,0.3604,0.3528,0.3528,0.3528,0.3528,0.3452,0.345,0.3292,0.3528,0.3528,0.3448,0.3528,0.3606,0.3606,0.345,0.337,0.337,0.3377,0.3376,0.3528,0.3686,0.353,0.2746,0.1882,0.1412,0.0864,0.0236,-0.0472,-0.0944,-0.1181,-0.1265,-0.1198,-0.1279,-0.1275,-0.1286,-0.1289,-0.1276,-0.1346,-0.1339,-0.1338,-0.1341,-0.1508,-0.1683,-0.1921,-0.2239,-0.2648,-0.3063,-0.3317,-0.3722,-0.4241,-0.452,-0.5012,-0.5445,-0.56,-0.5653,-0.6185,-0.6397,-0.6486,1.4324,1.4559,1.4566,1.465,1.4643,1.4566,1.4566,1.4482,1.4405,1.4334,1.4328,1.4328,1.4232,1.4096,1.4156,1.4061,1.3784,1.3981,1.4117,1.3994,1.3831,1.333,1.2688,1.1842,1.1544,1.166,1.1429,1.1262,1.1094,1.1008,1.0916,1.0621,1.0348,1.01,0.9995,0.9743,0.947,0.9235,0.891,0.8504,0.8086,0.7472,0.7086,0.6817,0.6282,0.5849,0.5452,0.5221,0.495,0.4742,0.4543,0.4543,0.447,0.447,0.4311,0.4073,0.4153,0.4077,0.3843,0.3841,0.3841,0.3841,0.3841,0.3763,0.3682,0.3763,0.3684,0.3682,0.3763,0.3763,0.3763,0.3684,0.3624,0.3655,0.3659,0.3724,0.3771,0.3767,0.361,0.3139,0.2826,0.2354,0.1727,0.11,0.0632,0.0079,-0.0395,-0.0558,-0.0807,-0.1048,-0.1289,-0.1295,-0.1291,-0.1274,-0.1352,-0.135,-0.1443,-0.1366,-0.1454,-0.1548,-0.1641,-0.1882,-0.212,-0.2458,-0.2712,-0.3035,-0.3485,-0.3947,-0.4378,-0.4668,-0.4914,-0.5223,-0.5756,-0.612,-0.6298,1.4482,1.4482,1.4482,1.4566,1.4734,1.4741,1.4741,1.4734,1.465,1.465,1.465,1.4734,1.4636,1.4643,1.4461,1.4378,1.4364,1.442,1.4525,1.4338,1.4007,1.3367,1.2433,1.1798,1.1439,1.1424,1.1267,1.1267,1.1181,1.1008,1.0829,1.0636,1.0366,1.0197,1.0033,1.0005,1.0028,0.9831,0.9387,0.9113,0.8827,0.8321,0.7914,0.7737,0.7107,0.6443,0.593,0.561,0.5423,0.5123,0.4875,0.4797,0.4951,0.494,0.4779,0.4462,0.4384,0.4231,0.3921,0.3843,0.3841,0.3841,0.3841,0.3841,0.3763,0.3763,0.3763,0.3763,0.3841,0.3841,0.3845,0.3771,0.3816,0.3873,0.3895,0.3873,0.3816,0.3797,0.3801,0.3801,0.3803,0.3164,0.2608,0.2136,0.2072,0.1057,0.0485,-0.0245,-0.0575,-0.0984,-0.1221,-0.1293,-0.1282,-0.1345,-0.1351,-0.1441,-0.1464,-0.1481,-0.1573,-0.1586,-0.144,-0.1607,-0.1671,-0.1917,-0.2353,-0.2672,-0.2956,-0.3366,-0.3725,-0.3938,-0.4091,-0.4813,-0.5448,-0.5726,-0.5912,1.4741,1.4915,1.4999,1.5082,1.5173,1.509,1.5006,1.4999,1.4824,1.4734,1.4734,1.4734,1.4734,1.4734,1.465,1.4559,1.4398,1.4657,1.4824,1.4384,1.3769,1.3146,1.2407,1.186,1.1606,1.1386,1.1267,1.1181,1.1094,1.1008,1.0824,1.0467,1.0381,1.0212,1.0038,1.0038,1.0038,0.9946,0.9772,0.9685,0.9598,0.9069,0.8603,0.8467,0.7857,0.744,0.713,0.6589,0.6116,0.583,0.5385,0.5036,0.4888,0.4789,0.4711,0.4555,0.455,0.447,0.4155,0.3999,0.3921,0.3841,0.3841,0.3841,0.3841,0.3841,0.3841,0.3841,0.3841,0.3843,0.3779,0.3832,0.3881,0.392,0.3971,0.4001,0.3981,0.3975,0.3963,0.3967,0.3882,0.3727,0.3474,0.3052,0.2734,0.1999,0.1168,0.0167,-0.0334,-0.0748,-0.0984,-0.105,-0.1291,-0.1279,-0.1362,-0.1382,-0.1417,-0.1521,-0.1531,-0.1624,-0.1474,-0.1478,-0.163,-0.1884,-0.2153,-0.2382,-0.2508,-0.2704,-0.3159,-0.328,-0.3396,-0.3946,-0.4496,-0.4953,-0.5571,1.4824,1.509,1.5166,1.5333,1.534,1.5333,1.5333,1.5257,1.5082,1.4999,1.4999,1.4999,1.4992,1.4915,1.4734,1.4482,1.4153,1.4068,1.3893,1.3464,1.3039,1.2534,1.202,1.1747,1.1486,1.1262,1.1267,1.1181,1.1181,1.1013,1.0824,1.0467,1.0386,1.0212,1.0038,1.0038,1.0038,1.0038,1.0038,1.0038,0.9864,0.9598,0.8978,0.8536,0.7918,0.7526,0.6673,0.6694,0.6282,0.5976,0.5918,0.5621,0.5039,0.4936,0.4854,0.4698,0.4698,0.4587,0.433,0.4231,0.4155,0.3921,0.3921,0.3921,0.3841,0.3841,0.3841,0.3841,0.3845,0.3777,0.3822,0.3861,0.3922,0.4024,0.4069,0.4114,0.4136,0.4089,0.4034,0.395,0.394,0.3942,0.3867,0.3639,0.3401,0.2721,0.1932,0.1009,0.0584,0.0166,-0.049,-0.0808,-0.1136,-0.1299,-0.1296,-0.1321,-0.1369,-0.1388,-0.1489,-0.1494,-0.1416,-0.1502,-0.167,-0.184,-0.1917,-0.1993,-0.2228,-0.2344,-0.2539,-0.2644,-0.2839,-0.3127,-0.358,-0.4098,-0.4716,1.4936,1.5238,1.534,1.5514,1.5573,1.5688,1.5665,1.5514,1.5514,1.5506,1.5506,1.5423,1.5333,1.5173,1.4915,1.4496,1.4075,1.3646,1.3555,1.2875,1.2875,1.2198,1.1596,1.1332,1.1359,1.1392,1.1429,1.1342,1.1261,1.1179,1.0978,1.0722,1.0527,1.026,1.0057,1.0038,1.0038,1.0038,1.0038,1.0038,1.0038,0.9951,0.9331,0.8715,0.836,0.7834,0.7021,0.6799,0.6535,0.5748,0.6539,0.6309,0.5671,0.5356,0.5205,0.5052,0.4976,0.4844,0.4609,0.4499,0.4415,0.4164,0.4079,0.3999,0.3841,0.3864,0.3799,0.3803,0.3816,0.3854,0.391,0.3957,0.403,0.4126,0.4175,0.4224,0.4251,0.4163,0.411,0.4095,0.412,0.4128,0.3945,0.3781,0.3628,0.3374,0.265,0.1947,0.1514,0.0918,0.0165,-0.0246,-0.0578,-0.0917,-0.1001,-0.1088,-0.1127,-0.1322,-0.1338,-0.143,-0.1434,-0.1517,-0.1596,-0.1674,-0.1752,-0.1834,-0.1922,-0.2108,-0.2216,-0.215,-0.2243,-0.2511,-0.2868,-0.3314,-0.3849,1.55,1.5718,1.5693,1.5807,1.6007,1.605,1.6042,1.6012,1.5974,1.602,1.5937,1.5748,1.5597,1.5492,1.534,1.5173,1.4838,1.4321,1.3899,1.3215,1.2966,1.2375,1.1473,1.1316,1.1472,1.1602,1.1661,1.1583,1.1515,1.1452,1.1225,1.0781,1.0662,1.042,1.0192,1.0038,1.0071,1.0071,1.0052,1.0043,1.0071,0.9956,0.9859,0.9336,0.9244,0.8807,0.8245,0.7718,0.7186,0.6452,0.6008,0.5675,0.5586,0.5715,0.5679,0.5399,0.5242,0.5102,0.4841,0.4746,0.4547,0.4261,0.4088,0.4008,0.3864,0.3832,0.3951,0.3893,0.3936,0.3991,0.4012,0.4061,0.4122,0.4185,0.4232,0.4273,0.4283,0.4261,0.4228,0.4218,0.423,0.4234,0.4122,0.3936,0.369,0.3439,0.2808,0.2265,0.1907,0.1292,0.0598,0.0255,-0.0,-0.0342,-0.0602,-0.0777,-0.0876,-0.1153,-0.1253,-0.1432,-0.1435,-0.1435,-0.1429,-0.1509,-0.1597,-0.1688,-0.1779,-0.1957,-0.1872,-0.1883,-0.1885,-0.1885,-0.2332,-0.2868,-0.3224,1.5621,1.5891,1.5978,1.6097,1.6342,1.6417,1.635,1.6257,1.6257,1.6159,1.597,1.5834,1.5646,1.546,1.534,1.509,1.4664,1.3893,1.3385,1.2875,1.2454,1.2117,1.1515,1.1532,1.1671,1.186,1.1995,1.1978,1.1812,1.1699,1.1538,1.1283,1.0975,1.0685,1.043,1.0214,1.0205,1.0097,1.0109,1.01,1.0171,1.0022,0.9873,0.9515,0.9428,0.9069,0.8524,0.8479,0.7767,0.6919,0.6932,0.6433,0.6005,0.5975,0.6068,0.5611,0.5412,0.532,0.5038,0.4903,0.4671,0.4484,0.4353,0.4232,0.4097,0.4072,0.4049,0.3983,0.3995,0.4057,0.4102,0.4153,0.4189,0.4234,0.4275,0.4293,0.4297,0.4297,0.4297,0.4297,0.4281,0.4273,0.4194,0.4014,0.3758,0.3408,0.2869,0.259,0.2309,0.1761,0.122,0.0863,0.0515,-0.0261,-0.0613,-0.0879,-0.0882,-0.107,-0.1256,-0.1346,-0.1436,-0.1436,-0.1436,-0.1431,-0.1524,-0.1525,-0.1524,-0.1609,-0.1613,-0.1615,-0.1705,-0.1885,-0.2063,-0.2422,-0.2778,1.5657,1.6088,1.6178,1.6379,1.6603,1.6662,1.672,1.6551,1.6521,1.6388,1.611,1.6007,1.5752,1.5387,1.5041,1.4594,1.3959,1.3047,1.2843,1.2574,1.2144,1.1883,1.172,1.1801,1.1892,1.2118,1.2253,1.2312,1.2178,1.2029,1.1905,1.1672,1.1384,1.0997,1.0739,1.06,1.051,1.0314,1.0214,1.0205,1.0219,1.0093,0.9837,0.9218,0.9213,0.8958,0.8436,0.8544,0.8119,0.7523,0.7565,0.7647,0.6359,0.6445,0.6445,0.5826,0.5576,0.5377,0.5243,0.5004,0.487,0.4636,0.4646,0.4449,0.4254,0.4231,0.4238,0.4081,0.4097,0.4126,0.4187,0.4202,0.4232,0.4269,0.4291,0.4297,0.4297,0.4297,0.4297,0.4297,0.4297,0.43,0.43,0.4123,0.3855,0.3676,0.3227,0.2952,0.267,0.2393,0.1932,0.1566,0.0956,-0.0176,-0.071,-0.1158,-0.1159,-0.1252,-0.1346,-0.1346,-0.1436,-0.1436,-0.1436,-0.1436,-0.1436,-0.1436,-0.1436,-0.1436,-0.1436,-0.1525,-0.1705,-0.1794,-0.1884,-0.2064,-0.2333,1.6022,1.6565,1.6275,1.6505,1.6996,1.6981,1.6934,1.6949,1.6883,1.6896,1.6755,1.6399,1.6171,1.5874,1.4965,1.4327,1.3857,1.3586,1.324,1.2927,1.2698,1.2372,1.2091,1.2005,1.2156,1.2339,1.2414,1.2404,1.2404,1.2544,1.2443,1.2126,1.1979,1.1693,1.1119,1.1094,1.0903,1.0495,1.0527,1.043,1.0152,1.0233,1.0093,1.0107,1.0013,0.9723,0.9055,0.905,0.8511,0.7891,0.7796,0.78,0.7541,0.7629,0.7281,0.6669,0.6107,0.5589,0.5393,0.5221,0.5054,0.4877,0.4836,0.4622,0.447,0.4242,0.4268,0.4263,0.4257,0.4249,0.4261,0.4275,0.4289,0.4291,0.4297,0.4297,0.4297,0.4297,0.4297,0.4297,0.4297,0.4297,0.43,0.4123,0.3857,0.3676,0.3494,0.3309,0.3123,0.2757,0.2577,0.2203,0.1844,0.08,-0.0,-0.0538,-0.0987,-0.1166,-0.1166,-0.1256,-0.1436,-0.1436,-0.1436,-0.1436,-0.1436,-0.1436,-0.1436,-0.1436,-0.1436,-0.1525,-0.1615,-0.1615,-0.1436,-0.1705,-0.2064,1.6491,1.681,1.6669,1.6876,1.7268,1.7157,1.7189,1.7189,1.7189,1.7085,1.6929,1.6692,1.6521,1.6133,1.5734,1.5234,1.4635,1.4123,1.3644,1.3041,1.2723,1.2498,1.2324,1.2269,1.2388,1.2544,1.2608,1.263,1.2657,1.2678,1.2689,1.2534,1.2304,1.2114,1.1531,1.1412,1.118,1.09,1.0687,1.061,1.0365,1.0205,1.0102,1.0102,1.0303,1.0037,0.973,0.9578,0.9157,0.8627,0.8448,0.8181,0.7921,0.7746,0.7654,0.739,0.7129,0.6505,0.5664,0.5415,0.5309,0.5202,0.5069,0.4922,0.464,0.4446,0.4251,0.4289,0.4297,0.4297,0.4297,0.4297,0.4297,0.4297,0.4297,0.4297,0.4297,0.4297,0.4297,0.4297,0.4297,0.4297,0.4297,0.421,0.4034,0.3857,0.3765,0.3583,0.3401,0.313,0.2953,0.2774,0.2412,0.188,0.1164,0.0538,-0.009,-0.0359,-0.0538,-0.0718,-0.1256,-0.1436,-0.1436,-0.1436,-0.1436,-0.1436,-0.1436,-0.1436,-0.1436,-0.1525,-0.1615,-0.1615,-0.1615,-0.1885,-0.2155,1.6936,1.696,1.6894,1.704,1.7326,1.7333,1.7318,1.7326,1.7304,1.7186,1.7004,1.6865,1.6562,1.5974,1.563,1.5013,1.4398,1.3956,1.3561,1.2945,1.262,1.2444,1.2452,1.2517,1.2587,1.2759,1.2727,1.2732,1.2743,1.2759,1.2759,1.2759,1.2624,1.2368,1.2167,1.1924,1.1697,1.1308,1.093,1.076,1.0634,1.0367,1.03,1.0267,1.0336,1.0416,1.0138,1.0045,0.9684,0.9331,0.9157,0.8978,0.8623,0.854,0.8364,0.8097,0.7749,0.7092,0.6359,0.5923,0.5829,0.5748,0.5562,0.5467,0.5232,0.4835,0.4478,0.4565,0.4478,0.4389,0.4389,0.4389,0.4297,0.4297,0.4297,0.4297,0.4297,0.4297,0.4297,0.4297,0.4297,0.4297,0.4297,0.4297,0.421,0.4036,0.3946,0.3765,0.3587,0.3318,0.3141,0.2875,0.2784,0.2334,0.1795,0.1166,0.0718,0.0359,0.0179,-0.0269,-0.0897,-0.1256,-0.1436,-0.1436,-0.1436,-0.1436,-0.1436,-0.1436,-0.1436,-0.1525,-0.1525,-0.1705,-0.1795,-0.2064,-0.2165,1.7274,1.7274,1.6982,1.7047,1.7333,1.7333,1.7333,1.7333,1.7333,1.721,1.7123,1.6912,1.5994,1.487,1.4611,1.4062,1.2758,1.2576,1.2769,1.2896,1.2807,1.2667,1.2689,1.2694,1.2721,1.2754,1.2759,1.2759,1.2759,1.2759,1.2759,1.2759,1.2759,1.2559,1.2425,1.2383,1.2123,1.1697,1.1204,1.09,1.0793,1.071,1.0641,1.0556,1.065,1.066,1.0282,1.0225,1.0154,0.9823,0.9786,0.9777,0.9506,0.951,0.9244,0.889,0.8364,0.7811,0.7225,0.6887,0.7186,0.7042,0.6502,0.5872,0.5711,0.5277,0.501,0.4832,0.4746,0.4659,0.4569,0.4478,0.4389,0.4297,0.4297,0.4297,0.4297,0.4297,0.4297,0.4297,0.4306,0.432,0.4318,0.4324,0.4308,0.4129,0.3946,0.3767,0.3497,0.3229,0.3053,0.2964,0.2875,0.2515,0.1974,0.1615,0.1436,0.1166,0.0897,0.0179,-0.0628,-0.0897,-0.1436,-0.1436,-0.1436,-0.1436,-0.1436,-0.1436,-0.1436,-0.1436,-0.1436,-0.1615,-0.1705,-0.1795,-0.1996,1.7333,1.7318,1.7194,1.7216,1.7333,1.7333,1.7333,1.7333,1.7333,1.7044,1.6655,1.6434,1.5865,1.5026,1.4733,1.4215,1.3374,1.3284,1.3069,1.2823,1.2759,1.2759,1.2759,1.2759,1.2759,1.2759,1.2759,1.2759,1.2759,1.2759,1.2759,1.2759,1.2759,1.2759,1.2662,1.2565,1.2404,1.2123,1.1557,1.1155,1.1234,1.0968,1.0758,1.0603,1.072,1.0729,1.0548,1.0334,1.0239,1.0145,1.0031,1.0076,1.0052,1.0047,0.9859,0.951,0.9157,0.8803,0.8277,0.7519,0.6421,0.6318,0.5985,0.5761,0.5813,0.528,0.501,0.4921,0.4924,0.4837,0.4663,0.4572,0.4569,0.4389,0.4297,0.4297,0.4306,0.431,0.4316,0.4324,0.4346,0.4367,0.4361,0.4355,0.4332,0.4224,0.4039,0.3767,0.3497,0.3139,0.3053,0.2964,0.2875,0.2875,0.2424,0.2334,0.2334,0.1974,0.1525,0.0718,-0.0179,-0.1076,-0.1436,-0.1436,-0.1436,-0.1436,-0.1436,-0.1436,-0.1436,-0.1436,-0.1436,-0.1436,-0.1525,-0.1616,-0.182,1.7333,1.7333,1.7333,1.7333,1.7333,1.7333,1.7333,1.7333,1.7333,1.7044,1.6567,1.648,1.6001,1.5337,1.5045,1.4459,1.3692,1.3409,1.3136,1.2953,1.2759,1.2759,1.2759,1.2759,1.2759,1.2759,1.2759,1.2759,1.2759,1.2759,1.2759,1.2759,1.2759,1.2759,1.2759,1.2662,1.2467,1.2226,1.1951,1.1662,1.1723,1.1347,1.1022,1.0824,1.0966,1.0796,1.0715,1.0513,1.0466,1.0334,1.0197,1.0074,1.0031,0.9998,1.0043,0.9951,0.9864,0.9694,0.9165,0.8368,0.6786,0.6929,0.6495,0.6157,0.5725,0.5371,0.529,0.5333,0.5131,0.4933,0.4773,0.4685,0.4514,0.434,0.4304,0.4302,0.4326,0.4336,0.4344,0.4353,0.4381,0.4414,0.4434,0.4422,0.4361,0.4242,0.3948,0.3767,0.3588,0.323,0.2962,0.2963,0.2875,0.2875,0.2875,0.2694,0.2515,0.2424,0.1885,0.1166,0.0359,-0.0629,-0.1348,-0.1436,-0.1436,-0.1436,-0.1436,-0.1437,-0.1436,-0.1436,-0.1436,-0.1436,-0.1442,-0.1535,-0.1734,1.7333,1.7333,1.7333,1.7333,1.7333,1.7333,1.7333,1.7333,1.7333,1.7232,1.7044,1.7044,1.6379,1.5527,1.5153,1.4484,1.3624,1.3147,1.2958,1.2958,1.2861,1.2861,1.2759,1.2759,1.2759,1.2759,1.2759,1.2759,1.2759,1.2759,1.2759,1.2759,1.2759,1.2759,1.2759,1.2759,1.2662,1.2462,1.2344,1.2134,1.192,1.1691,1.149,1.1245,1.1197,1.1115,1.0867,1.0834,1.0782,1.0653,1.0371,1.0272,1.0258,1.0112,1.0133,1.0027,0.9477,0.9196,0.8999,0.9437,0.9003,0.8021,0.7309,0.7044,0.6432,0.6,0.5668,0.5525,0.534,0.5077,0.4904,0.4736,0.448,0.4391,0.4363,0.4359,0.4389,0.44,0.4416,0.4438,0.4449,0.4463,0.4496,0.4493,0.441,0.4178,0.387,0.368,0.36,0.332,0.2963,0.2963,0.2875,0.2875,0.2875,0.2875,0.2785,0.2694,0.2071,0.1084,0.0544,-0.0182,-0.0816,-0.1172,-0.1361,-0.1373,-0.1361,-0.1438,-0.144,-0.1441,-0.1436,-0.1437,-0.1444,-0.1454,-0.1652,1.7333,1.7333,1.7333,1.7333,1.7333,1.7333,1.7333,1.7333,1.7239,1.7044,1.6662,1.6574,1.6096,1.5337,1.5146,1.4675,1.401,1.3817,1.363,1.3055,1.2958,1.2861,1.2856,1.2856,1.2759,1.2759,1.2759,1.2759,1.2759,1.2759,1.2759,1.2759,1.2759,1.2759,1.2759,1.2759,1.2759,1.2662,1.2467,1.237,1.2273,1.1975,1.1745,1.1569,1.1648,1.1487,1.1235,1.1245,1.1148,1.0957,1.0774,1.0572,1.0471,1.0434,1.0429,1.0434,1.0071,1.0085,1.0044,1.0083,0.9464,0.8605,0.794,0.7588,0.6786,0.6432,0.6019,0.5713,0.5473,0.5221,0.4874,0.4844,0.4688,0.4606,0.45,0.45,0.4514,0.451,0.4518,0.4547,0.4565,0.4596,0.4628,0.4587,0.4508,0.435,0.4038,0.3741,0.3651,0.3249,0.2875,0.2875,0.2875,0.2875,0.2875,0.2875,0.2613,0.2347,0.1546,0.0459,0.0,0.0,-0.0464,-0.0929,-0.1212,-0.1401,-0.1391,-0.1287,-0.1362,-0.1446,-0.136,-0.1453,-0.1461,-0.1468,-0.1566,1.752,1.7512,1.7426,1.7426,1.7426,1.7333,1.7333,1.7333,1.7333,1.7037,1.6662,1.6574,1.6285,1.5717,1.5337,1.4962,1.44,1.4112,1.3919,1.3249,1.3244,1.3147,1.2953,1.2856,1.2856,1.2856,1.2759,1.2759,1.2759,1.2759,1.2759,1.2759,1.2759,1.2759,1.2759,1.2759,1.2759,1.2764,1.2667,1.257,1.2467,1.2273,1.2078,1.1965,1.1878,1.1858,1.1736,1.1569,1.1476,1.1316,1.1109,1.0875,1.0767,1.0715,1.0681,1.0662,1.0662,1.056,1.0504,1.0461,0.9854,0.9135,0.85,0.8016,0.7392,0.7145,0.6866,0.6459,0.5912,0.5683,0.546,0.5439,0.5154,0.4975,0.4782,0.478,0.4703,0.4699,0.4594,0.4628,0.4657,0.4702,0.4734,0.4677,0.461,0.4362,0.4122,0.3912,0.3697,0.3279,0.2978,0.2981,0.2976,0.2973,0.297,0.2875,0.2524,0.2086,0.1376,0.0837,0.0468,0.0658,0.0,-0.0572,-0.076,-0.1041,-0.1137,-0.1223,-0.1303,-0.1387,-0.1387,-0.1481,-0.1482,-0.1485,-0.1584,1.7908,1.7994,1.7815,1.7721,1.7628,1.7434,1.7333,1.7333,1.7333,1.7232,1.7232,1.7138,1.6763,1.6393,1.573,1.5159,1.4688,1.4016,1.3732,1.3545,1.3545,1.3352,1.3249,1.3147,1.305,1.2861,1.2861,1.2861,1.2759,1.2759,1.2759,1.2759,1.2759,1.2759,1.2759,1.2759,1.2759,1.2764,1.2764,1.2667,1.2662,1.2565,1.237,1.2273,1.2175,1.217,1.2063,1.194,1.1843,1.1691,1.149,1.1316,1.1218,1.0894,1.0915,1.0886,1.0822,1.0748,1.066,1.0645,1.0677,1.0131,0.9666,0.9047,0.8371,0.792,0.7632,0.7333,0.6892,0.6691,0.6579,0.6184,0.5792,0.5504,0.5117,0.5041,0.4975,0.4878,0.4669,0.4683,0.471,0.4747,0.4785,0.4753,0.4698,0.4574,0.4327,0.4084,0.3851,0.3389,0.3095,0.3194,0.3095,0.2984,0.2984,0.3099,0.3023,0.2592,0.2614,0.2171,0.1805,0.1246,0.0774,0.0291,-0.0289,-0.0575,-0.0673,-0.0959,-0.1144,-0.1233,-0.1222,-0.1416,-0.1417,-0.1511,-0.1612,1.7994,1.8087,1.8001,1.7908,1.7628,1.7426,1.7333,1.7333,1.7333,1.7145,1.677,1.677,1.6581,1.6015,1.5825,1.5356,1.5077,1.4694,1.422,1.4027,1.3835,1.3636,1.3443,1.3346,1.3249,1.3055,1.2958,1.2958,1.2861,1.2764,1.2759,1.2759,1.2759,1.2759,1.2759,1.2759,1.2759,1.2759,1.2759,1.2759,1.2759,1.2662,1.2565,1.2467,1.2473,1.237,1.2273,1.2273,1.2175,1.2139,1.192,1.1788,1.1778,1.1626,1.1596,1.1399,1.1216,1.1019,1.099,1.1072,1.1085,1.1085,1.0726,1.0152,0.9427,0.8842,0.8426,0.8019,0.7495,0.7174,0.6757,0.6379,0.5994,0.5709,0.5412,0.523,0.5158,0.4956,0.4747,0.4751,0.4775,0.4781,0.4822,0.4816,0.4767,0.4664,0.4534,0.4276,0.401,0.3542,0.3319,0.3422,0.3419,0.3313,0.3443,0.3473,0.3387,0.3309,0.3236,0.317,0.2719,0.2156,0.1582,0.0,0.0,0.0,-0.0195,-0.0487,-0.0778,-0.0959,-0.0951,-0.1245,-0.1444,-0.1538,-0.1547,1.8272,1.8365,1.828,1.8001,1.7721,1.7434,1.7333,1.7333,1.7333,1.7145,1.6864,1.6676,1.6393,1.6116,1.5737,1.5363,1.5077,1.4694,1.4406,1.4214,1.4027,1.3835,1.3732,1.3636,1.3539,1.3346,1.3152,1.305,1.2953,1.2861,1.2759,1.2759,1.2759,1.2759,1.2759,1.2759,1.2759,1.2759,1.2759,1.2759,1.2759,1.2759,1.2662,1.2662,1.2764,1.2667,1.2565,1.2565,1.2467,1.2462,1.2175,1.2175,1.217,1.2165,1.2063,1.175,1.1648,1.1546,1.1521,1.1559,1.1606,1.1591,1.1586,1.123,1.0554,1.0017,0.9283,0.8745,0.799,0.7246,0.6825,0.6385,0.6111,0.5832,0.5532,0.5331,0.5133,0.4931,0.4828,0.4826,0.4828,0.4826,0.4832,0.4832,0.4816,0.4674,0.4658,0.4542,0.4272,0.3899,0.3769,0.3675,0.367,0.3662,0.3708,0.3839,0.3743,0.3652,0.3577,0.3515,0.3365,0.289,0.2099,0.0,0.0,0.0,0.0,0.0,-0.0198,-0.0489,-0.0777,-0.1078,-0.1375,-0.1561,-0.1576,1.8658,1.8743,1.8566,1.8195,1.7721,1.7426,1.7333,1.7333,1.7333,1.7232,1.7145,1.677,1.6487,1.6211,1.5553,1.5172,1.4981,1.4688,1.44,1.4298,1.4208,1.4112,1.4027,1.3931,1.3732,1.3539,1.3249,1.3147,1.305,1.2856,1.2759,1.2764,1.2759,1.2759,1.2759,1.2759,1.2759,1.2759,1.2759,1.2759,1.2759,1.2759,1.2759,1.2759,1.2764,1.2759,1.2759,1.2759,1.2667,1.2565,1.2467,1.2473,1.2473,1.237,1.2175,1.2078,1.1975,1.1883,1.1883,1.194,1.195,1.2047,1.197,1.192,1.1428,1.0779,1.0013,0.955,0.8784,0.8014,0.748,0.7006,0.6628,0.6139,0.5839,0.5539,0.5336,0.5035,0.4834,0.4832,0.4832,0.4832,0.4832,0.4832,0.4826,0.4775,0.4767,0.4678,0.4546,0.4266,0.4149,0.4041,0.3929,0.3931,0.406,0.4089,0.3994,0.3907,0.3927,0.3757,0.3597,0.3115,0.2522,0.0,0.0,0.0,0.0,0.0,0.0,-0.02,-0.0499,-0.1005,-0.1303,-0.1488,-0.1592,1.8735,1.8735,1.8373,1.8001,1.7721,1.7426,1.7333,1.7333,1.7333,1.7066,1.6777,1.6588,1.6393,1.5927,1.5363,1.5083,1.4885,1.4592,1.4394,1.4298,1.4298,1.4304,1.4208,1.4118,1.4027,1.3732,1.3534,1.3208,1.3035,1.291,1.278,1.2786,1.2807,1.2937,1.2797,1.2791,1.2797,1.277,1.2759,1.2759,1.2759,1.2759,1.2759,1.2759,1.2759,1.2759,1.2759,1.2759,1.2759,1.2662,1.2667,1.2667,1.2667,1.2467,1.237,1.2273,1.2175,1.2078,1.2078,1.2175,1.2273,1.2273,1.2273,1.2273,1.2052,1.1434,1.0835,1.0364,0.9686,0.8803,0.8018,0.7531,0.7039,0.6539,0.6039,0.5839,0.5536,0.5135,0.4834,0.4832,0.4832,0.4832,0.4832,0.483,0.4822,0.4818,0.4818,0.472,0.4714,0.4565,0.4552,0.4436,0.4302,0.4304,0.4334,0.4347,0.4248,0.4164,0.4185,0.4012,0.3932,0.343,0.2827,0.2221,0.0,0.0,0.0,0.0,0.0,0.0,-0.0202,-0.0606,-0.101,-0.1203,-0.1406,1.8551,1.8676,1.8315,1.8033,1.7821,1.7493,1.7218,1.7144,1.7049,1.6847,1.6622,1.6538,1.6204,1.5553,1.5178,1.4885,1.4783,1.449,1.4298,1.4298,1.4298,1.4298,1.4298,1.4316,1.4231,1.3963,1.3732,1.3502,1.3144,1.2982,1.2993,1.306,1.316,1.3111,1.2947,1.291,1.2867,1.277,1.2786,1.278,1.278,1.2764,1.2764,1.2759,1.2759,1.2759,1.2759,1.2759,1.2759,1.2759,1.2764,1.2764,1.2764,1.2667,1.257,1.2565,1.2467,1.237,1.237,1.237,1.237,1.237,1.2278,1.2175,1.2078,1.1453,1.0965,1.0489,0.9895,0.9011,0.8322,0.7832,0.7534,0.7135,0.6539,0.6139,0.5639,0.5035,0.4834,0.4832,0.4832,0.4832,0.4832,0.4832,0.4828,0.4828,0.4832,0.4832,0.4832,0.4832,0.4832,0.4724,0.4573,0.4565,0.4589,0.46,0.4608,0.4528,0.4437,0.4236,0.4034,0.3633,0.3232,0.2725,0.2119,0.0,0.0,0.0,0.0,0.0,0.0,-0.0202,-0.0606,-0.0909,-0.1111,1.8277,1.8479,1.8258,1.8177,1.8082,1.7523,1.7253,1.7084,1.6587,1.6437,1.6473,1.6409,1.5872,1.5408,1.4987,1.4688,1.4394,1.4112,1.4112,1.4112,1.4106,1.4106,1.413,1.4165,1.4154,1.4155,1.4027,1.3683,1.3383,1.3276,1.3276,1.3464,1.3539,1.3474,1.3217,1.3136,1.3087,1.299,1.2947,1.2877,1.2829,1.277,1.2764,1.2759,1.2759,1.2759,1.2759,1.2759,1.2759,1.2759,1.2759,1.2759,1.2759,1.2667,1.2764,1.2667,1.2662,1.2565,1.2565,1.2467,1.237,1.2273,1.2078,1.198,1.1975,1.1585,1.1096,1.0699,1.01,0.9509,0.8825,0.8333,0.8031,0.7537,0.7039,0.6542,0.5839,0.5138,0.4935,0.4834,0.4834,0.4834,0.4834,0.4834,0.4832,0.4832,0.4832,0.4832,0.4832,0.4832,0.4832,0.4832,0.471,0.4718,0.4832,0.4734,0.4734,0.4734,0.4535,0.4435,0.4236,0.3935,0.3736,0.3432,0.2725,0.2018,0.1413,0.0,0.0,0.0,0.0,0.0,-0.0202,-0.0505,-0.0808,1.8191,1.8296,1.7938,1.7866,1.7772,1.7507,1.7433,1.7394,1.6029,1.57,1.6168,1.5873,1.5549,1.557,1.4762,1.4304,1.4202,1.3919,1.3732,1.3636,1.3727,1.3727,1.3802,1.3947,1.3985,1.3982,1.402,1.3907,1.3719,1.3561,1.3497,1.3534,1.3513,1.3583,1.3448,1.3389,1.3362,1.3265,1.3227,1.3195,1.298,1.2894,1.2775,1.2759,1.2759,1.2759,1.2759,1.2759,1.2759,1.2759,1.2759,1.2759,1.2759,1.2662,1.2667,1.2667,1.2662,1.2565,1.2473,1.237,1.2273,1.2078,1.1883,1.1883,1.178,1.1487,1.1194,1.1292,1.0694,1.0006,0.9418,0.9122,0.8726,0.7935,0.7341,0.6942,0.6442,0.5741,0.514,0.5037,0.4937,0.4935,0.4834,0.4834,0.4832,0.4832,0.4832,0.4832,0.4832,0.4832,0.4832,0.4832,0.4832,0.4832,0.4832,0.4832,0.4734,0.4834,0.4734,0.4535,0.4437,0.4338,0.4137,0.3734,0.3533,0.3027,0.2321,0.1816,0.0,0.0,0.0,0.0,0.0,0.0,0.0]}]]